[[{"header":{"parameterUnit":"m.s-1","parameterCategory":1,"la1":30.6,"la2":29.2853,"lo1":-89.7004,"lo2":-87.6739,"dy":0.0162,"dx":0.0183,"nx":112,"ny":82,"refTime":"2026-04-25T00:00:00:Z","depth":0,"parameterNumber":2,"parameterNumberName":"U-component_of_WINDS"},"data":[0.0,0.0,0.0,0.0,0.0,0.0,0.0,0.0,0.0,0.0,0.0,0.0,0.0,0.0,0.0,0.0,0.0,0.0,0.0,0.0,0.0,0.0,0.0,0.0,0.0,0.0,0.0,0.0,0.0,0.0,0.0,0.0,0.0,0.0,0.0,0.0,0.0,0.0,0.0,0.0,0.0,0.0,0.0,0.0,0.0,0.0,0.0,0.0,0.0,0.0,0.0,0.0,0.0,0.0,0.0,0.0,0.0,0.0,0.0,0.0,0.0,0.0,0.0,0.0,0.0,0.0,0.0,0.0,0.0,0.0,0.0,0.0,0.0,0.0,0.0,0.0,0.0,0.0,0.0,0.0,0.0,0.0,0.0,0.0,0.0,0.0,0.0,0.0,0.0,0.0,-4.0204,-4.3621,-4.7276,-4.9192,-4.8465,-4.6758,-4.2708,-3.5646,0.0,0.0,0.0,0.0,0.0,0.0,0.0,0.0,0.0,0.0,0.0,0.0,0.0,0.0,0.0,0.0,0.0,0.0,0.0,0.0,0.0,0.0,0.0,0.0,0.0,0.0,0.0,0.0,0.0,0.0,0.0,0.0,0.0,0.0,0.0,0.0,0.0,0.0,0.0,0.0,0.0,0.0,0.0,0.0,0.0,0.0,0.0,0.0,0.0,0.0,0.0,0.0,0.0,0.0,0.0,0.0,0.0,0.0,0.0,0.0,0.0,0.0,0.0,0.0,0.0,0.0,0.0,0.0,0.0,0.0,0.0,0.0,0.0,0.0,0.0,0.0,0.0,0.0,0.0,0.0,0.0,0.0,0.0,0.0,0.0,0.0,0.0,0.0,0.0,0.0,0.0,0.0,0.0,0.0,0.0,0.0,0.0,0.0,0.0,0.0,0.0,0.0,0.0,0.0,-3.9882,-4.7166,-4.8869,-4.9315,-4.8842,-4.6387,-4.2378,-3.6468,0.0,0.0,0.0,0.0,0.0,0.0,0.0,0.0,0.0,0.0,0.0,0.0,0.0,0.0,0.0,0.0,0.0,0.0,0.0,0.0,0.0,0.0,0.0,0.0,0.0,0.0,0.0,0.0,0.0,0.0,0.0,0.0,0.0,0.0,0.0,0.0,0.0,0.0,0.0,0.0,0.0,0.0,0.0,0.0,0.0,0.0,0.0,0.0,0.0,0.0,0.0,0.0,0.0,0.0,0.0,0.0,0.0,0.0,0.0,0.0,0.0,0.0,0.0,0.0,0.0,0.0,0.0,0.0,0.0,0.0,0.0,0.0,0.0,0.0,0.0,0.0,0.0,0.0,0.0,0.0,0.0,0.0,0.0,0.0,0.0,0.0,0.0,0.0,0.0,0.0,0.0,0.0,0.0,0.0,0.0,0.0,0.0,0.0,0.0,0.0,0.0,0.0,0.0,-3.8375,-4.18,-4.8757,-4.9306,-4.8904,-4.8315,-4.5669,-4.1625,-3.594,-3.3238,0.0,0.0,0.0,0.0,0.0,0.0,0.0,0.0,0.0,0.0,0.0,0.0,0.0,0.0,0.0,0.0,0.0,0.0,0.0,0.0,0.0,0.0,0.0,0.0,0.0,0.0,0.0,0.0,0.0,0.0,0.0,0.0,0.0,0.0,0.0,0.0,0.0,0.0,0.0,0.0,0.0,0.0,0.0,0.0,0.0,0.0,0.0,0.0,0.0,0.0,0.0,0.0,0.0,0.0,0.0,0.0,0.0,0.0,0.0,0.0,0.0,0.0,0.0,0.0,0.0,0.0,0.0,0.0,0.0,0.0,0.0,0.0,0.0,0.0,0.0,0.0,0.0,0.0,0.0,0.0,0.0,0.0,0.0,0.0,0.0,0.0,0.0,0.0,0.0,0.0,0.0,0.0,0.0,0.0,0.0,0.0,0.0,0.0,0.0,0.0,0.0,0.0,-4.2106,-4.4319,-4.9295,-4.928,-4.8546,-4.7629,-4.4732,-4.0671,-3.5353,-3.1445,0.0,0.0,0.0,0.0,0.0,0.0,0.0,0.0,0.0,0.0,0.0,0.0,0.0,0.0,0.0,0.0,0.0,0.0,0.0,0.0,0.0,0.0,0.0,0.0,0.0,0.0,0.0,0.0,0.0,0.0,0.0,0.0,0.0,0.0,0.0,0.0,0.0,0.0,0.0,0.0,0.0,0.0,0.0,0.0,0.0,0.0,0.0,0.0,0.0,0.0,0.0,0.0,0.0,0.0,0.0,0.0,0.0,0.0,0.0,0.0,0.0,0.0,0.0,0.0,0.0,0.0,0.0,0.0,0.0,0.0,0.0,0.0,0.0,0.0,0.0,0.0,0.0,0.0,0.0,0.0,0.0,0.0,0.0,0.0,0.0,0.0,0.0,0.0,0.0,0.0,0.0,0.0,0.0,0.0,0.0,0.0,0.0,0.0,0.0,0.0,0.0,0.0,-4.2449,-4.6721,-4.8779,-4.8947,-4.8428,-4.7243,-4.3516,-3.9481,-3.5279,-2.9867,0.0,0.0,0.0,0.0,0.0,0.0,0.0,0.0,0.0,0.0,0.0,0.0,0.0,0.0,0.0,0.0,0.0,0.0,0.0,0.0,0.0,0.0,0.0,0.0,0.0,0.0,0.0,0.0,0.0,0.0,0.0,0.0,0.0,0.0,0.0,0.0,0.0,0.0,0.0,0.0,0.0,0.0,0.0,0.0,0.0,0.0,0.0,0.0,0.0,0.0,0.0,0.0,0.0,0.0,0.0,0.0,0.0,0.0,0.0,0.0,0.0,0.0,0.0,0.0,0.0,0.0,0.0,0.0,0.0,0.0,0.0,0.0,0.0,0.0,0.0,0.0,0.0,0.0,0.0,0.0,0.0,0.0,0.0,0.0,0.0,0.0,0.0,0.0,0.0,0.0,0.0,0.0,0.0,0.0,0.0,0.0,0.0,0.0,0.0,0.0,0.0,0.0,-4.0697,-4.4705,-4.8501,-4.823,-4.7389,-4.6434,-4.3589,-3.968,-3.4564,0.0,0.0,0.0,0.0,0.0,0.0,0.0,0.0,0.0,0.0,0.0,0.0,0.0,0.0,0.0,0.0,0.0,0.0,0.0,0.0,0.0,0.0,0.0,0.0,0.0,0.0,0.0,0.0,0.0,0.0,0.0,0.0,0.0,0.0,0.0,0.0,0.0,0.0,0.0,0.0,0.0,0.0,0.0,0.0,0.0,0.0,0.0,0.0,0.0,0.0,0.0,0.0,0.0,0.0,0.0,0.0,0.0,0.0,0.0,0.0,0.0,0.0,0.0,0.0,0.0,0.0,0.0,0.0,0.0,0.0,0.0,0.0,0.0,0.0,0.0,0.0,0.0,0.0,0.0,0.0,0.0,0.0,0.0,0.0,0.0,0.0,0.0,0.0,0.0,0.0,0.0,0.0,0.0,0.0,0.0,0.0,0.0,0.0,0.0,0.0,0.0,0.0,-3.5794,-4.004,-4.4072,-4.793,-4.7574,-4.6764,-4.5975,-4.2745,-3.8781,-3.41,0.0,0.0,0.0,0.0,0.0,0.0,0.0,0.0,0.0,0.0,0.0,0.0,0.0,0.0,0.0,0.0,0.0,0.0,0.0,0.0,0.0,0.0,0.0,0.0,0.0,0.0,0.0,0.0,0.0,0.0,0.0,0.0,0.0,0.0,0.0,0.0,0.0,0.0,0.0,0.0,0.0,0.0,0.0,0.0,0.0,0.0,0.0,0.0,0.0,0.0,0.0,0.0,0.0,0.0,0.0,0.0,0.0,0.0,0.0,0.0,0.0,0.0,0.0,0.0,0.0,0.0,0.0,0.0,0.0,0.0,0.0,0.0,0.0,0.0,0.0,0.0,0.0,0.0,0.0,0.0,0.0,0.0,0.0,0.0,0.0,0.0,0.0,0.0,0.0,0.0,0.0,0.0,0.0,0.0,0.0,0.0,0.0,0.0,0.0,0.0,0.0,0.0,-3.4637,-4.0952,-4.5667,-4.6948,-4.7076,-4.6746,-4.5938,-4.0742,-3.6464,0.0,0.0,0.0,0.0,0.0,0.0,0.0,0.0,0.0,0.0,0.0,0.0,0.0,0.0,0.0,0.0,0.0,0.0,0.0,0.0,0.0,0.0,0.0,0.0,0.0,0.0,0.0,0.0,0.0,0.0,0.0,0.0,0.0,0.0,0.0,0.0,0.0,0.0,0.0,0.0,0.0,0.0,0.0,0.0,0.0,0.0,0.0,0.0,0.0,0.0,0.0,0.0,0.0,0.0,0.0,0.0,0.0,0.0,0.0,0.0,0.0,0.0,0.0,0.0,0.0,0.0,0.0,0.0,0.0,0.0,0.0,0.0,0.0,0.0,0.0,0.0,0.0,0.0,0.0,0.0,0.0,0.0,0.0,0.0,0.0,0.0,0.0,0.0,0.0,0.0,0.0,0.0,0.0,0.0,0.0,0.0,0.0,0.0,0.0,0.0,0.0,0.0,0.0,-3.4596,-4.0268,-4.459,-4.6103,-4.5737,-4.5094,-4.4268,-4.1128,-3.7404,-3.322,0.0,0.0,0.0,0.0,0.0,0.0,0.0,0.0,0.0,0.0,0.0,0.0,0.0,0.0,0.0,0.0,0.0,0.0,0.0,0.0,0.0,0.0,0.0,0.0,0.0,0.0,0.0,0.0,0.0,0.0,0.0,0.0,0.0,0.0,0.0,0.0,0.0,0.0,0.0,0.0,0.0,0.0,0.0,0.0,0.0,0.0,0.0,0.0,0.0,0.0,0.0,0.0,0.0,0.0,0.0,0.0,0.0,0.0,0.0,0.0,0.0,0.0,0.0,0.0,0.0,0.0,0.0,0.0,0.0,0.0,0.0,0.0,0.0,0.0,0.0,0.0,0.0,0.0,0.0,0.0,0.0,0.0,0.0,0.0,0.0,0.0,0.0,0.0,0.0,0.0,0.0,0.0,0.0,0.0,0.0,0.0,0.0,0.0,0.0,0.0,0.0,0.0,-3.4105,-3.9496,-4.3644,-4.5259,-4.5002,-4.4378,-4.357,-4.0983,-3.7477,-3.2894,0.0,0.0,0.0,0.0,0.0,0.0,0.0,0.0,0.0,0.0,0.0,0.0,0.0,0.0,0.0,0.0,0.0,0.0,0.0,0.0,0.0,0.0,0.0,0.0,0.0,0.0,0.0,0.0,0.0,0.0,0.0,0.0,0.0,0.0,0.0,0.0,0.0,0.0,0.0,0.0,0.0,0.0,0.0,0.0,0.0,0.0,0.0,0.0,0.0,0.0,0.0,0.0,0.0,0.0,0.0,0.0,0.0,0.0,0.0,0.0,0.0,0.0,0.0,0.0,0.0,0.0,0.0,0.0,0.0,0.0,0.0,0.0,0.0,0.0,0.0,0.0,0.0,0.0,0.0,0.0,0.0,0.0,0.0,0.0,0.0,0.0,0.0,0.0,0.0,0.0,0.0,0.0,0.0,0.0,0.0,0.0,0.0,0.0,0.0,0.0,0.0,0.0,-3.3385,-3.8707,-4.2818,-4.4433,-4.4599,-4.4232,-4.3351,-4.0524,-3.7074,-3.2968,0.0,0.0,0.0,0.0,0.0,0.0,0.0,0.0,0.0,0.0,0.0,0.0,0.0,0.0,0.0,0.0,0.0,0.0,0.0,0.0,0.0,0.0,0.0,0.0,0.0,0.0,0.0,0.0,0.0,0.0,0.0,0.0,0.0,0.0,0.0,0.0,0.0,0.0,0.0,0.0,0.0,0.0,0.0,0.0,0.0,0.0,0.0,0.0,0.0,0.0,0.0,0.0,0.0,0.0,0.0,0.0,0.0,0.0,0.0,0.0,-3.8026,-3.544,0.0,0.0,0.0,0.0,0.0,0.0,0.0,0.0,0.0,0.0,0.0,0.0,0.0,0.0,0.0,0.0,0.0,0.0,0.0,0.0,0.0,0.0,0.0,0.0,0.0,0.0,0.0,0.0,0.0,0.0,0.0,0.0,0.0,0.0,0.0,0.0,0.0,0.0,0.0,0.0,-3.3385,-3.823,-4.1974,-4.3571,-4.3754,-4.3167,-4.1735,-4.0396,-3.79,-3.3807,-2.9769,0.0,0.0,0.0,0.0,0.0,0.0,0.0,0.0,0.0,0.0,0.0,0.0,0.0,0.0,0.0,0.0,0.0,0.0,0.0,0.0,0.0,0.0,0.0,0.0,0.0,0.0,0.0,0.0,0.0,0.0,0.0,0.0,0.0,0.0,0.0,0.0,0.0,0.0,0.0,0.0,0.0,0.0,0.0,0.0,0.0,0.0,0.0,0.0,0.0,0.0,0.0,0.0,0.0,0.0,0.0,0.0,0.0,0.0,0.0,-4.145,-3.9074,0.0,0.0,0.0,0.0,0.0,0.0,0.0,0.0,0.0,0.0,0.0,0.0,0.0,0.0,0.0,0.0,0.0,0.0,0.0,0.0,0.0,0.0,0.0,0.0,0.0,0.0,0.0,0.0,0.0,0.0,0.0,0.0,0.0,0.0,0.0,0.0,0.0,0.0,0.0,0.0,-3.3385,-3.8068,-4.1735,-4.3331,-4.3149,-4.2433,-4.1187,-4.001,-3.7734,-3.4027,-3.0742,0.0,0.0,0.0,0.0,0.0,0.0,0.0,0.0,0.0,0.0,0.0,0.0,0.0,0.0,0.0,0.0,0.0,0.0,0.0,0.0,0.0,0.0,0.0,0.0,0.0,0.0,0.0,0.0,0.0,0.0,0.0,0.0,0.0,0.0,0.0,0.0,0.0,0.0,0.0,0.0,0.0,0.0,0.0,0.0,0.0,0.0,0.0,0.0,0.0,0.0,0.0,0.0,0.0,-4.8232,-4.8635,-4.9132,-4.847,-4.8158,-4.8012,-4.5351,-4.3644,-4.2506,-3.9845,0.0,0.0,0.0,0.0,0.0,0.0,0.0,0.0,0.0,0.0,0.0,0.0,0.0,0.0,0.0,0.0,0.0,0.0,0.0,0.0,0.0,0.0,-3.4669,-3.3848,-3.5238,-3.5422,-3.0723,0.0,0.0,0.0,0.0,0.0,0.0,0.0,0.0,0.0,0.0,0.0,-3.3807,-3.8251,-4.1645,-4.313,-4.269,-4.1919,-4.0967,-3.968,-3.7624,-3.4633,-3.2173,-2.9567,0.0,0.0,0.0,0.0,0.0,0.0,0.0,0.0,0.0,0.0,0.0,0.0,0.0,0.0,0.0,0.0,0.0,0.0,0.0,0.0,0.0,0.0,0.0,0.0,0.0,0.0,0.0,0.0,0.0,0.0,0.0,0.0,-3.8285,-3.9294,0.0,0.0,0.0,0.0,0.0,0.0,0.0,0.0,0.0,0.0,0.0,0.0,0.0,-4.7058,-4.8619,-5.082,-5.1738,-5.1371,-5.2766,-5.3133,-5.2543,-5.2433,-5.2396,-5.236,-5.1958,0.0,-4.4342,-4.3938,0.0,0.0,0.0,0.0,0.0,0.0,0.0,0.0,0.0,0.0,0.0,0.0,0.0,0.0,0.0,0.0,0.0,0.0,0.0,0.0,0.0,0.0,-3.8891,-3.8083,-3.8157,-3.8193,-3.7441,-3.355,-3.0044,-2.9512,-2.7247,-2.4787,0.0,0.0,0.0,0.0,0.0,0.0,-3.5459,-3.8982,-4.1444,-4.2359,-4.2359,-4.168,-4.0175,-3.9845,-3.8946,-3.7125,-3.4688,-3.2816,-3.1702,-2.6759,0.0,0.0,0.0,0.0,0.0,0.0,0.0,0.0,0.0,0.0,0.0,0.0,0.0,0.0,0.0,0.0,0.0,0.0,0.0,0.0,0.0,0.0,0.0,0.0,0.0,0.0,0.0,0.0,0.0,-3.845,-4.0855,-4.1203,-4.102,-4.0338,0.0,0.0,0.0,0.0,0.0,0.0,0.0,0.0,0.0,-4.8049,-4.926,-5.0637,-5.227,-5.3353,-5.4161,-5.4711,-5.5409,-5.5574,-5.5225,-5.5225,-5.4987,-5.4546,-5.4546,-5.2876,-4.9939,-4.7168,-4.4287,-4.1387,0.0,0.0,0.0,0.0,-3.8582,-3.8141,-3.9866,-3.9389,-3.7973,-3.7404,0.0,0.0,0.0,0.0,0.0,0.0,0.0,-3.5243,-3.6285,-3.856,-4.0598,-4.0708,-4.1075,-4.1405,-4.1405,-3.8377,-3.4963,-3.2669,-3.1458,-2.942,-2.5089,-2.4722,0.0,0.0,0.0,-3.1678,-3.5771,-3.8322,-4.0414,-4.2121,-4.1497,-4.0671,-3.9955,-3.9478,-3.8726,-3.7566,-3.5605,-3.4105,-3.3311,-2.9604,-2.6757,0.0,0.0,0.0,0.0,0.0,0.0,0.0,0.0,0.0,0.0,0.0,0.0,0.0,0.0,0.0,0.0,0.0,0.0,0.0,0.0,0.0,0.0,0.0,0.0,0.0,0.0,0.0,0.0,-4.099,-4.3255,-4.3371,-4.419,-4.3773,0.0,0.0,0.0,0.0,0.0,0.0,-4.6471,-4.8085,-4.9921,-5.1958,-5.3206,-5.4418,-5.5629,-5.5831,-5.6547,-5.7721,-5.7519,-5.7428,-5.7428,-5.7207,-5.6785,-5.6198,-5.6198,-5.5757,-5.4675,-5.0215,-4.7407,-4.5718,-4.3498,-4.2379,-4.2122,-4.2928,-4.2708,-4.2306,-4.4323,-4.4103,-4.2727,-4.1515,-3.9753,-3.7658,-3.522,0.0,0.0,0.0,0.0,-3.6729,-3.8765,-4.0359,-4.1625,-4.2415,-4.3057,-4.3441,-4.3239,-4.1607,-3.9239,-3.5991,-3.5169,-3.3353,-2.8136,-2.7567,0.0,-2.7027,-2.931,-3.2522,-3.6413,-3.8138,-3.9772,-4.1791,-4.0744,-3.9808,-3.9606,-3.9038,-3.8358,-3.7547,-3.6138,-3.4949,-3.4137,-3.1788,-2.9308,-2.6747,0.0,0.0,0.0,0.0,0.0,0.0,0.0,0.0,0.0,0.0,0.0,0.0,0.0,0.0,0.0,0.0,0.0,0.0,0.0,0.0,0.0,0.0,0.0,0.0,0.0,0.0,0.0,0.0,0.0,-4.6238,-4.7331,0.0,0.0,0.0,0.0,-4.6617,-4.7516,-4.9058,-5.1499,-5.3151,-5.4436,-5.5317,-5.7629,-5.8872,-5.8946,-5.9722,-6.0144,-6.0217,-5.9423,-5.9074,-5.9038,-5.829,-5.7923,-5.7868,-5.7868,-5.7428,-5.6436,-5.3115,-5.0765,-4.9095,-4.7443,-4.5865,-4.4618,-4.5424,-4.5204,-4.4636,-4.5535,-4.5296,-4.4563,-4.4471,-4.2341,-3.9751,-3.957,-3.8447,0.0,0.0,-3.8447,-3.9863,-4.0747,-4.1625,-4.2433,-4.324,-4.3478,-4.3277,-4.2525,-4.1645,-4.0747,-3.9772,-3.7096,-3.4417,-3.2564,0.0,-3.114,-3.1103,-3.254,-3.4816,-3.8157,-3.9313,-4.0175,-4.1058,-4.0396,-3.9588,-3.8836,-3.8726,-3.8358,-3.7547,-3.6688,-3.5862,-3.4986,-3.2614,-3.0721,-2.9426,-2.5605,0.0,0.0,0.0,0.0,0.0,0.0,0.0,0.0,0.0,0.0,0.0,0.0,0.0,0.0,0.0,0.0,0.0,0.0,0.0,0.0,0.0,0.0,0.0,0.0,0.0,0.0,0.0,0.0,-4.9879,-5.0865,0.0,-4.9536,-4.9389,-4.9646,-5.0215,-5.1958,-5.361,-5.5005,-5.662,-5.7868,-5.8657,-5.952,-5.9979,-5.9979,-6.0272,-6.0401,-6.0401,-5.957,-5.9184,-5.9166,-5.8364,-5.7997,-5.7997,-5.7997,-5.7831,-5.7446,-5.5776,-5.383,-5.172,-5.0123,-4.9132,-4.8673,-4.8948,-4.8545,-4.7884,-4.8178,-4.7388,-4.5993,-4.4433,-4.3149,-4.2011,-4.1001,-4.0267,-3.9918,-4.0432,-4.1001,-4.1625,-4.2433,-4.2855,-4.313,-4.3441,-4.3515,-4.3277,-4.247,-4.168,-4.0857,-4.0065,-3.812,-3.5917,-3.3752,-3.3555,-3.3537,-3.3018,-3.3867,-3.5573,-3.834,-3.8046,-3.8285,-4.0139,-3.9145,-3.8245,-3.7936,-3.7933,-3.7584,-3.6795,-3.544,-3.4559,-3.4247,-3.2412,-3.0498,-2.8617,-2.6673,-2.3944,0.0,0.0,0.0,0.0,0.0,0.0,0.0,0.0,0.0,0.0,0.0,0.0,0.0,0.0,0.0,0.0,0.0,0.0,0.0,0.0,0.0,0.0,0.0,0.0,0.0,-4.7886,-5.0899,-5.2441,-5.3918,-5.4399,-5.3316,-5.3702,-5.4142,-5.4418,-5.5904,-5.7171,-5.7978,-5.9281,-6.0254,-6.0786,-6.108,-6.1208,-6.1208,-6.1208,-6.1208,-6.1208,-6.0401,-5.9887,-5.9593,-5.8767,-5.8253,-5.7997,-5.7997,-5.7997,-5.7923,-5.684,-5.5445,-5.3885,-5.2546,-5.1683,-5.1206,-5.1206,-5.0508,-4.9555,-4.9242,-4.8269,-4.6837,-4.5241,-4.4342,-4.3699,-4.2636,-4.2139,-4.2029,-4.2543,-4.269,-4.2818,-4.3368,-4.3515,-4.3515,-4.3515,-4.3515,-4.3221,-4.2139,-4.148,-4.0765,-3.9698,-3.8615,-3.7309,-3.5367,-3.5495,-3.5569,-3.4761,-3.533,-3.6541,-3.845,-3.7533,-3.7529,-3.9662,-3.8227,-3.7217,-3.7474,-3.7254,-3.6725,-3.5917,-3.4559,-3.355,-3.2999,-3.1715,-2.9919,-2.764,-2.6323,-2.3994,-2.0597,0.0,0.0,0.0,0.0,0.0,0.0,0.0,0.0,0.0,0.0,0.0,0.0,0.0,0.0,0.0,0.0,0.0,0.0,0.0,0.0,0.0,0.0,0.0,-4.669,-4.9824,-5.2602,-5.3813,-5.6411,-5.7464,-5.5945,-5.7171,-5.84,-5.9166,-5.9258,-5.9606,-6.0401,-6.119,-6.163,-6.163,-6.2401,-6.278,-6.278,-6.278,-6.278,-6.278,-6.1961,-6.1153,-6.0382,-5.9533,-5.8749,-5.7997,-5.7997,-5.7997,-5.7868,-5.629,-5.5611,-5.5522,-5.4693,-5.3408,-5.2032,-5.2032,-5.1024,-4.9519,-4.8618,-4.7791,-4.7131,-4.7113,-4.603,-4.4728,-4.4727,-4.414,-4.3515,-4.3515,-4.3515,-4.3515,-4.3515,-4.3515,-4.3515,-4.3515,-4.3478,-4.302,-4.1425,-4.1077,-4.0581,-3.9019,-3.8707,-3.845,-3.7676,-3.7547,-3.7272,-3.6486,-3.7052,0.0,-3.8597,-3.7988,-3.8062,-3.9659,-3.7679,-3.656,-3.7364,-3.6707,-3.5881,-3.4986,-3.4156,-3.2999,-3.147,-3.0595,-2.9106,-2.6872,-2.4612,-2.2711,-2.119,0.0,0.0,0.0,0.0,0.0,0.0,0.0,0.0,0.0,0.0,0.0,0.0,0.0,0.0,0.0,0.0,0.0,0.0,0.0,0.0,0.0,-4.5668,-4.8693,-4.9491,-5.2996,-5.604,-5.7534,-5.8911,-5.9795,-5.9924,-5.9813,-5.9832,-6.0052,-6.0621,-6.1043,-6.1263,-6.2034,-6.2475,-6.2475,-6.2695,-6.278,-6.278,-6.278,-6.278,-6.2762,-6.1392,-6.0621,-6.0346,-5.8969,-5.8217,-5.7997,-5.7997,-5.7997,-5.7923,-5.6895,-5.6124,-5.5467,-5.4069,-5.3261,-5.2876,-5.2876,-5.1848,-5.0251,-4.8802,-4.8159,-4.7865,-4.7278,-4.6416,-4.5461,-4.4892,-4.414,-4.3515,-4.3515,-4.3515,-4.3515,-4.3515,-4.3515,-4.3515,-4.3515,-4.3039,-4.2359,-4.1315,-4.0653,-3.9937,-3.8909,-3.8707,-3.8634,-3.8414,-3.8377,-3.8303,-3.8065,-3.823,-3.845,-3.867,-3.7496,-3.7033,-3.8062,-3.6486,-3.5445,-3.5665,-3.5481,-3.4766,-3.3353,-3.1971,-3.1256,-3.1397,-3.0081,-2.8815,-2.7694,-2.5729,-2.354,0.0,0.0,0.0,0.0,0.0,0.0,0.0,0.0,0.0,0.0,0.0,0.0,0.0,0.0,0.0,0.0,0.0,0.0,0.0,0.0,0.0,0.0,-4.8919,-5.1767,-5.3373,-5.5745,-5.7905,-5.9496,-6.0419,-6.1227,-6.2016,-6.1686,-6.141,-6.141,-6.1851,-6.2108,-6.2108,-6.2567,-6.2658,-6.231,-6.231,-6.2144,-6.1814,-6.1796,-6.1796,-6.1796,-6.086,-6.0236,-5.9887,-5.8933,-5.8327,-5.7997,-5.7997,-5.7997,-5.7905,-5.6767,-5.6014,-5.5464,0.0,0.0,0.0,0.0,-5.161,-5.0563,-4.8893,-4.8306,-4.8233,-4.7736,-4.7058,-4.625,-4.5461,-4.4635,-4.392,-4.3589,-4.3515,-4.3515,-4.3515,-4.3515,-4.3515,-4.3515,-4.313,-4.2488,-4.1352,-4.0728,-4.0065,-3.8927,-3.8707,0.0,-3.8707,-3.8707,-3.8707,-3.8707,-3.8707,-3.8707,-3.8707,-3.7588,-3.6978,-3.7456,-3.6009,-3.5004,-3.5004,-3.4692,0.0,0.0,0.0,-3.0962,-3.0411,-2.904,0.0,0.0,0.0,0.0,0.0,0.0,0.0,0.0,-2.4055,-2.3981,0.0,0.0,0.0,0.0,0.0,0.0,0.0,0.0,0.0,0.0,0.0,0.0,0.0,0.0,0.0,0.0,-5.2477,-5.5299,-5.7288,-5.7891,-5.8717,-6.0294,-6.122,-6.2016,-6.275,-6.278,-6.278,-6.278,-6.278,-6.2768,-6.2652,-6.2677,0.0,0.0,0.0,-6.1117,-6.0419,-6.0401,-6.0401,-6.0401,-6.0309,-5.9905,-5.9184,-5.9093,-5.8694,-5.7997,-5.7997,-5.7941,-5.774,-5.6216,-5.5504,-5.5244,-5.4546,-5.383,-5.3002,-5.1389,-5.0802,-5.0563,-4.8893,0.0,0.0,-4.8306,-4.7755,-4.6947,-4.614,-4.5351,-4.4544,-4.3718,-4.3515,-4.3515,-4.3515,-4.3515,-4.3515,-4.3515,-4.3368,-4.2837,-4.1407,-4.0948,-4.0398,-3.8982,-3.8707,-3.8707,-3.8707,-3.8707,-3.8707,-3.8707,-3.8707,-3.8707,-3.8707,-3.7918,-3.7364,-3.7364,0.0,0.0,-3.4857,-3.4211,-3.3752,-3.3678,-3.2986,-3.1592,-2.9354,-2.8464,-2.7918,-2.77,-2.7717,-2.8157,-2.9084,-2.9351,-2.9556,-2.9656,-2.6108,-2.6085,0.0,0.0,0.0,0.0,0.0,0.0,0.0,0.0,0.0,0.0,0.0,0.0,0.0,0.0,0.0,-5.114,-5.3961,-5.6323,-5.7726,-5.8525,-5.9463,-6.0803,-6.1919,-6.264,-6.2762,-6.278,-6.278,-6.278,-6.278,-6.253,-6.1869,-6.1832,-6.1465,-6.0658,-6.0639,-6.0566,-6.0401,-6.0401,-6.0401,-6.0401,-5.9758,0.0,-5.9166,-5.8529,-5.8143,-5.7997,-5.7997,-5.7629,-5.6969,-5.5996,-5.484,-5.3665,-5.35,-5.3332,-5.3002,-5.1389,-5.0802,-5.0563,-4.8893,-4.8306,-4.8306,-4.8306,-4.7755,-4.6947,-4.614,-4.5351,0.0,-4.3718,-4.3515,-4.3515,-4.3515,-4.3515,-4.3515,-4.3515,-4.2506,-4.148,-4.1168,-4.0068,-3.9074,-3.8762,-3.8707,-3.8707,-3.8707,-3.8707,-3.8707,-3.8707,-3.8707,-3.8707,-3.8707,-3.7422,-3.6523,-3.6523,-3.5037,-3.4027,-3.4027,-3.3899,-3.3532,-3.2858,-3.2693,-3.21,-3.098,-3.197,-3.1808,-3.0242,-3.0201,-2.9582,-2.831,-2.8573,-2.9382,-3.0613,-2.9158,-2.8676,0.0,0.0,0.0,0.0,0.0,0.0,0.0,0.0,0.0,0.0,0.0,-4.5565,-4.7631,0.0,-5.178,-5.4038,-5.5567,-5.7006,-5.8486,-5.8984,-5.9577,-6.0613,-6.1621,-6.2365,-6.2768,-6.278,-6.264,-6.2236,-6.2199,-6.1851,-6.1043,-6.1006,-6.0639,-5.9808,-5.9813,-5.9612,-5.9208,-5.9208,-5.9208,-5.9189,-5.8786,-5.8602,-5.8602,-5.818,-5.7997,-5.7997,-5.7997,-5.7538,-5.6712,-5.55,-5.4289,-5.3185,-5.3185,-5.3185,-5.3002,-5.1389,-5.0802,-5.0563,-4.8893,-4.8306,-4.8306,-4.8306,-4.8031,-4.748,-4.6269,-4.5626,-4.5057,-4.3828,-4.3515,-4.3515,-4.3515,-4.3515,-4.3515,-4.3515,-4.2892,-4.2084,-4.126,-4.0471,-3.9646,-3.8872,-3.8707,-3.8707,-3.8707,-3.8707,-3.8707,-3.8707,-3.8707,-3.8707,-3.8707,-3.7643,-3.6758,-3.634,-3.5165,-3.4247,-3.3825,-3.3807,-3.3623,-3.3238,-3.3201,-3.2834,-3.2027,-3.2779,-3.275,-3.1764,-3.1556,-3.1287,-3.0944,-3.0871,-3.137,-3.2329,-3.1896,-3.1579,0.0,0.0,0.0,0.0,0.0,0.0,0.0,-4.3682,-4.5105,-4.696,-4.8559,-5.0263,-5.2262,-5.333,-5.4546,-5.6492,-5.6932,-5.7522,-5.8934,-5.9038,-5.9258,-6.007,-6.0878,-6.1612,-6.2273,-6.2321,-6.2071,-6.141,-6.1374,-6.1025,-6.0217,-6.0181,-5.9813,-5.8982,-5.8964,-5.8657,-5.7997,-5.7997,-5.7997,-5.7997,-5.7997,-5.7997,-5.7997,-5.7997,-5.7997,-5.7978,-5.7666,-5.7171,-5.6436,-5.484,-5.3794,-5.3185,-5.3185,-5.3093,-5.2803,-5.1353,-5.071,-5.0343,-4.8838,-4.8306,-4.8306,-4.8306,-4.8306,-4.8012,-4.6397,-4.5902,-4.5553,-4.3938,-4.3515,-4.3515,-4.3515,-4.3515,-4.3515,-4.3515,-4.3386,-4.2873,-4.1407,-4.0967,-4.0451,-3.8982,-3.8707,-3.8707,-3.8707,-3.8707,-3.8707,-3.8707,-3.8707,-3.8707,-3.8707,-3.7845,-3.7015,-3.6358,-3.5371,-3.4491,-3.3862,-3.3807,-3.3807,-3.3807,-3.3807,-3.3513,-3.2858,-3.2821,-3.2821,-3.2821,-3.2502,-3.2829,-3.3807,-3.348,-3.3494,-3.3807,-3.3807,-3.3807,-4.0239,-4.0073,-4.0766,-4.3028,-4.3201,-4.4182,0.0,-5.0221,-5.0539,-5.2991,-5.4234,-5.4942,-5.5225,-5.5877,-5.6492,-5.6767,-5.7409,-5.7932,-5.8123,-5.8143,-5.8437,-5.9239,-6.0052,-6.0566,-6.0658,-6.0676,-6.0639,-6.0548,-6.0529,-6.0181,-5.9368,-5.9313,-5.8988,-5.8162,-5.8125,-5.8088,-5.7997,-5.7997,-5.7997,-5.7997,-5.7997,-5.7997,-5.7997,-5.7997,-5.7997,-5.7923,-5.6473,-5.5835,-5.5592,-5.4014,-5.3277,-5.3185,-5.3185,-5.2766,-5.2032,-5.1132,-5.0343,-4.961,-4.8636,-4.8306,-4.8306,-4.8306,-4.8306,-4.8012,-4.6397,-4.5902,-4.5553,-4.3938,-4.3515,-4.3515,-4.3515,-4.3515,-4.3515,-4.3515,-4.2947,-4.2194,-4.1279,-4.0543,-3.9772,-3.8872,-3.8707,-3.8707,-3.8707,-3.8707,-3.8707,-3.8707,-3.8707,-3.8707,-3.8707,-3.7367,-3.6395,-3.6303,-3.4871,-3.3899,-3.3807,-3.3807,-3.3807,-3.3807,-3.3807,-3.3752,-3.3678,-3.3678,-3.3678,-3.3678,-3.362,-3.3675,-3.3807,-3.3748,-3.3748,-3.3807,-3.3807,-3.3807,-4.4182,-4.422,-4.4586,-4.6124,-4.7759,-4.9625,-5.2087,-5.3145,-5.4049,-5.5637,-5.6772,-5.7415,-5.7142,-5.7546,-5.7808,-5.7528,-5.7776,-5.8115,-5.8372,-5.7781,-5.7545,-5.815,-5.7851,-5.8345,-6.0217,-6.0401,-6.0217,-5.9758,-5.9698,-5.9355,-5.8547,-5.851,-5.8345,-5.7997,-5.7997,-5.7997,-5.7997,-5.7997,-5.7997,-5.7997,-5.7997,-5.7997,-5.7997,-5.7997,-5.774,-5.7207,-5.5592,-5.4895,-5.4803,-5.3683,-5.3185,-5.3185,-5.3185,-5.2621,-5.1687,-5.1057,-5.0305,-4.9482,-4.86,-4.8306,-4.8306,-4.8306,-4.8306,-4.8012,-4.6397,-4.5902,-4.5553,-4.3938,-4.3515,-4.3515,-4.3515,-4.3515,-4.3515,-4.3515,-4.3239,-4.2653,-4.137,-4.0838,-4.023,-3.8946,-3.8707,-3.8707,-3.8707,-3.8707,-3.8707,-3.8707,-3.8707,-3.8707,-3.8707,-3.7698,-3.6615,-3.5646,-3.4504,-3.3807,-3.3807,-3.3807,-3.3807,-3.3807,-3.3807,-3.3807,-3.3807,-3.3807,-3.3807,-3.3807,-3.3807,-3.3807,-3.3807,-3.3807,-3.3807,-3.3807,-3.3807,-3.3807,-4.6086,-4.6528,-4.725,-4.8769,-5.1375,-5.3626,-5.3837,-5.5203,-5.653,-5.6926,-5.7787,-5.8318,-5.7855,-5.7904,-5.7953,-5.7702,-5.7666,-5.788,-5.8424,-5.7512,-5.6923,-5.7277,-5.6295,-5.651,-5.8859,-5.9281,-5.9263,-5.8914,-5.8877,-5.8621,-5.8033,-5.7997,-5.7997,-5.7997,-5.7776,-5.7776,-5.7997,-5.7776,-5.7666,-5.7666,-5.7666,-5.7666,-5.7666,-5.7666,-5.7226,-5.64,-5.5005,-5.4399,-5.4344,-5.3537,-5.3185,-5.3185,-5.3185,-5.2456,-5.134,-5.0947,-5.014,-4.9132,-4.8526,-4.8306,-4.8306,-4.8306,-4.8306,-4.8012,-4.6397,-4.5902,-4.5553,-4.3938,-4.3515,-4.3515,-4.3515,-4.3515,-4.3515,-4.3515,-4.3515,-4.3112,-4.1735,-4.126,-4.0691,-3.9294,-3.8854,-3.8707,-3.8707,-3.8707,-3.8707,-3.8707,-3.8707,-3.8707,-3.8707,-3.779,-3.6597,-3.5169,-3.427,-3.3807,-3.3807,-3.3807,-3.3807,-3.3807,-3.3807,-3.3807,-3.3807,-3.3807,-3.3807,-3.3807,-3.3807,-3.3807,-3.3807,-3.3807,-3.3807,-3.3807,-3.3807,-3.3807,-4.4605,-4.5605,-4.7692,-5.0962,-5.3126,-5.4664,-5.5453,-5.6973,-5.7992,-5.7176,-5.7347,-5.7481,-5.7022,-5.6574,-5.6409,-5.6783,-5.684,-5.7116,-5.7909,-5.7317,-5.6804,-5.6826,-5.611,-5.5651,-5.5743,-5.6455,-5.7226,-5.7978,-5.8033,-5.8033,-5.7997,-5.7997,-5.7997,-5.7997,-5.7244,-5.7207,-5.7997,-5.7226,-5.684,-5.684,-5.684,-5.684,-5.684,-5.684,-5.64,-5.5574,-5.4748,-5.4399,-5.4344,-5.3537,-5.3185,-5.3185,-5.3185,-5.2234,-5.082,-5.0807,-4.9759,-4.8343,-4.8324,-4.8306,-4.8306,-4.8306,-4.8306,-4.8012,-4.6397,-4.5902,-4.5553,-4.3938,-4.3515,-4.3515,-4.3515,-4.3515,-4.3515,-4.3515,-4.3515,-4.3276,-4.2433,-4.1662,-4.0838,-4.001,-3.9239,-3.8707,-3.8707,-3.8707,-3.8707,-3.8707,-3.8707,-3.8707,-3.8707,-3.7312,-3.5991,-3.5096,-3.427,-3.3807,-3.3807,-3.3807,-3.3807,-3.3807,-3.3807,-3.3807,-3.3807,-3.3807,-3.3807,-3.3807,-3.3807,-3.3807,-3.3807,-3.3807,-3.3807,-3.3807,-3.3807,-3.3807,-4.7298,-4.9356,-5.1491,-5.3203,-5.5338,-5.7088,-5.7357,-5.7877,-5.805,-5.7176,-5.6644,-5.5951,-5.4666,-5.4752,-5.5062,-5.5193,-5.6106,-5.7079,-5.7886,-5.7317,-5.6602,-5.6069,-5.528,-5.4803,-5.4803,-5.5519,-5.6345,-5.7152,-5.7207,-5.7446,-5.796,-5.7997,-5.7758,-5.7226,-5.695,-5.6675,-5.64,-5.6124,-5.5996,-5.5996,-5.5996,-5.5996,-5.5978,-5.5445,-5.506,-5.4748,-5.3959,-5.361,-5.3592,-5.3295,-5.3185,-5.3185,-5.3185,-5.2438,-5.1283,-5.0929,-4.9736,-4.8306,-4.8306,-4.8306,-4.8306,-4.8306,-4.8306,-4.8012,-4.6397,-4.5902,-4.5553,-4.3938,-4.3515,-4.3515,-4.3515,-4.3515,-4.3515,-4.3515,-4.3515,-4.3277,-4.247,-4.168,-4.0857,-4.0065,-3.9239,-3.8707,-3.8707,-3.8707,-3.8707,-3.8707,-3.8707,-3.8707,-3.8707,-3.7753,-3.6795,-3.5954,-3.5096,-3.438,-3.3844,-3.3807,-3.3807,-3.3807,-3.3807,-3.3807,-3.3807,-3.3807,-3.3807,-3.3807,-3.3807,-3.3807,-3.3807,-3.3807,-3.3807,-3.3807,-3.4344,-3.4601,-5.0067,-5.2183,-5.403,-5.5491,-5.7088,-5.8223,-5.7915,-5.7588,-5.7049,-5.5876,-5.463,-5.3264,-5.1726,-5.1544,-5.1956,-5.2948,-5.4216,-5.5666,-5.7336,-5.6877,-5.618,-5.5647,-5.4638,-5.3977,-5.3977,-5.4436,-5.5188,-5.629,-5.6363,-5.6602,-5.7097,-5.7134,-5.6914,-5.64,-5.6088,-5.5831,-5.5614,-5.5299,-5.517,-5.517,-5.517,-5.5023,-5.473,-5.4491,-5.4234,-5.394,-5.3427,-5.3185,-5.3185,-5.3185,-5.3185,-5.3167,-5.2894,-5.2181,-5.1228,-5.0617,-4.9496,-4.8306,-4.8306,-4.8306,-4.8306,-4.8306,-4.8122,-4.7627,-4.6305,-4.57,-4.5204,-4.3882,-4.3515,-4.3515,-4.3515,-4.3515,-4.3515,-4.3515,-4.3515,-4.3368,-4.2837,-4.2103,-4.1295,-4.0487,-3.968,-3.9038,-3.8762,-3.8707,-3.8707,-3.8707,-3.8707,-3.8707,-3.8707,-3.7991,-3.7309,-3.6795,-3.5683,-3.4784,-3.427,-3.3972,-3.3807,-3.3807,-3.3807,-3.3807,-3.3807,-3.3807,-3.3807,-3.3807,-3.3807,-3.3935,-3.4215,-3.4215,-3.4394,-3.4706,-3.522,-3.5463,-5.2587,-5.3991,-5.5338,-5.7703,-5.83,-5.8069,-5.7137,-5.6195,-5.5011,-5.3299,-5.1313,-4.9458,-4.8105,-4.7128,-4.7415,-5.0111,-5.1426,-5.3225,-5.6363,-5.6143,-5.5669,-5.5614,-5.4216,-5.324,-5.3185,-5.3185,-5.383,-5.5354,-5.5522,-5.5556,-5.5614,-5.5614,-5.5596,-5.5559,-5.4803,-5.4748,-5.5464,-5.4711,-5.4344,-5.4344,-5.4344,-5.394,-5.3222,-5.3995,-5.3922,-5.3185,-5.3185,-5.3185,-5.3185,-5.3185,-5.3185,-5.3112,-5.2307,-5.1499,-5.071,-4.9884,-4.904,-4.8306,-4.8306,-4.8306,-4.8306,-4.8306,-4.7755,-4.6947,-4.614,-4.5351,-4.4544,-4.3718,-4.3515,-4.3515,-4.3515,-4.3515,-4.3515,-4.3515,-4.3515,-4.3515,-4.3515,-4.2873,-4.2066,-4.126,-4.0414,-3.9588,-3.8836,-3.8707,-3.8707,-3.8707,-3.8707,-3.8707,-3.8707,-3.8028,-3.7547,-3.7492,-3.6083,-3.5096,-3.5023,-3.4325,-3.388,-3.3807,-3.3844,-3.3844,-3.3807,-3.3807,-3.3825,-3.3862,-3.3862,-3.4266,-3.5078,-3.5078,-3.5481,-3.6303,-3.634,-3.6358,-5.3645,-5.6145,-5.8242,-5.83,-5.83,-5.7896,-5.6376,-5.4395,-5.2222,-4.9875,-4.7317,-4.4772,-4.2342,-4.3896,-4.5918,-4.6967,-5.0875,-5.4491,-5.6528,-5.662,-5.6271,-5.5666,-5.4711,-5.3867,-5.3259,-5.3185,-5.3369,-5.3794,-5.4363,-5.4968,-5.5578,-5.5614,-5.5317,-5.4711,-5.4509,-5.4216,-5.383,-5.361,-5.3518,-5.3518,-5.3518,-5.3387,-5.3203,-5.3427,-5.339,-5.3185,-5.3185,-5.3185,-5.3185,-5.3185,-5.3185,-5.3112,-5.2307,-5.1499,-5.069,-4.9896,-4.9055,-4.8306,-4.8306,-4.8306,-4.8306,-4.8306,-4.7755,-4.6947,-4.614,-4.5351,-4.4544,-4.3718,-4.3515,-4.3515,-4.3515,-4.3515,-4.3515,-4.3515,-4.3515,-4.3515,-4.3515,-4.2873,-4.2066,-4.126,-3.9974,-3.8946,-3.8744,-3.8707,-3.8707,-3.8707,-3.8707,-3.8707,-3.8707,-3.8524,-3.8157,-3.7566,-3.7125,-3.6358,-3.5114,-3.5422,-3.5128,-3.388,-3.4362,-3.4417,-3.3825,-3.3807,-3.4082,-3.4674,-3.4692,-3.5114,-3.5973,-3.5973,-3.6083,-3.6303,-3.6905,-3.7199,-5.6126,-5.8357,-5.9781,-5.8607,-5.8011,-5.6992,-5.4145,-5.1718,-4.9131,-4.5841,-4.3115,-4.0605,-3.8324,-4.0162,-4.2537,-4.4062,-4.8624,-5.2863,-5.5394,-5.6051,-5.6106,-5.5669,-5.4876,-5.4087,-5.3277,-5.3185,-5.3185,-5.3185,-5.3628,-5.4069,-5.4528,-5.4546,-5.4344,-5.3904,-5.3867,-5.3665,-5.3185,-5.3185,-5.3185,-5.3185,-5.3185,-5.3185,-5.3185,-5.3185,-5.3185,-5.3185,-5.3185,-5.3185,-5.3185,-5.3185,-5.3185,-5.3096,-5.1922,-5.1204,-5.067,-4.9475,-4.8706,-4.8306,-4.8306,-4.8306,-4.8306,-4.8306,-4.7535,-4.6489,-4.6049,-4.5094,-4.4085,-4.3643,-4.3515,-4.3515,-4.3515,-4.3515,-4.3515,-4.3515,-4.3515,-4.3515,-4.3515,-4.3149,-4.2488,-4.1315,-3.9808,-3.8707,-3.8707,-3.8707,-3.8707,-3.8707,-3.8707,-3.8707,-3.8707,-3.8707,-3.8524,-3.8065,-3.7713,-3.7125,-3.6193,-3.6211,-3.5899,-3.4963,-3.533,-3.5367,-3.4908,-3.489,-3.511,-3.5555,-3.5573,-3.5991,-3.6831,-3.6831,-3.7,-3.7367,-3.7808,-3.8028,-5.8838,-6.0146,-6.0396,-5.8723,-5.755,-5.5714,-5.1501,-4.8718,-4.5882,-4.1743,-3.9002,-3.6857,-3.5219,-3.6485,-3.8697,-4.1526,-4.5739,-4.9972,-5.371,-5.484,-5.5317,-5.5449,-5.473,-5.3977,-5.328,-5.3185,-5.3185,-5.3185,-5.3185,-5.3185,-5.3185,-5.3185,-5.3185,-5.3185,-5.3185,-5.3185,-5.3185,-5.3185,-5.3185,-5.3185,-5.3185,-5.3185,-5.3185,-5.3185,-5.3185,-5.3185,-5.3185,-5.3185,-5.3185,-5.3185,-5.3151,-5.2894,-5.1389,-5.0725,-5.0446,-4.8892,-4.8306,-4.8306,-4.8306,-4.8306,-4.8306,-4.8306,-4.7278,-4.6049,-4.592,-4.4837,-4.3626,-4.3533,-4.3515,-4.3515,-4.3515,-4.3515,-4.3515,-4.3515,-4.3515,-4.3515,-4.3515,-4.3423,-4.2928,-4.1534,-3.9958,-3.8854,-3.8854,-3.8781,-3.8707,-3.8707,-3.8707,-3.8707,-3.8707,-3.8707,-3.8707,-3.8707,-3.8065,-3.7621,-3.7511,-3.6945,-3.6523,-3.6303,-3.6395,-3.6413,-3.6303,-3.6303,-3.634,-3.645,-3.645,-3.6868,-3.7658,-3.7658,-3.801,-3.8707,-3.8707,-3.8707,-5.8992,-6.0146,-6.0396,-5.8723,-5.7107,-5.4818,-5.0587,-4.6474,-4.2556,-3.9001,-3.5965,-3.3433,-3.1768,-3.4284,-3.74,-3.9916,-4.432,-4.8823,-5.2839,-5.3537,-5.3867,-5.4528,-5.3904,-5.3353,-5.3203,-5.3185,-5.3185,-5.3185,-5.3185,-5.3185,-5.3185,-5.3185,-5.3185,-5.3185,-5.3185,-5.3185,-5.3185,-5.3185,-5.3185,-5.3185,-5.3185,-5.3185,-5.3185,-5.3185,-5.3185,-5.3185,-5.3185,-5.3185,-5.3185,-5.3185,-5.2821,-5.2105,-5.1169,-5.0398,-4.9682,-4.8673,-4.8306,-4.8306,-4.8306,-4.8306,-4.8306,-4.8306,-4.7645,-4.6764,-4.6104,-4.5241,-4.436,-4.3681,-4.3515,-4.3515,-4.3515,-4.3515,-4.3515,-4.3515,-4.3515,-4.3515,-4.3515,-4.2983,-4.2433,-4.2158,-4.0781,-3.968,-3.968,-3.9148,-3.8707,-3.8707,-3.8707,-3.8707,-3.8707,-3.8707,-3.8707,-3.8707,-3.8579,-3.8212,-3.7566,-3.7973,-3.7716,-3.6376,-3.6923,-3.6997,-3.6321,-3.6303,-3.6611,-3.729,-3.729,-3.7694,-3.8487,-3.8487,-3.856,-3.8707,-3.8707,-3.8707,-5.9165,-5.9819,-5.9723,-5.803,-5.5665,-5.2395,-4.7278,-4.2891,-3.868,-3.4409,-3.2171,-3.0598,-2.9384,-3.2184,-3.543,-3.7669,-4.1175,-4.543,-5.0603,-5.1298,-5.205,-5.4142,-5.4069,-5.3665,-5.3243,-5.3185,-5.3185,-5.3185,-5.3185,-5.3185,-5.3185,-5.3185,-5.3185,-5.3185,-5.3185,-5.3185,-5.3185,-5.3185,-5.3185,-5.3185,-5.3185,-5.3185,-5.3185,-5.3185,-5.3185,-5.3185,-5.3185,-5.3185,-5.3185,-5.3185,-5.2729,-5.1903,-5.1114,-5.0325,-4.9479,-4.8636,-4.8306,-4.8306,-4.8306,-4.8306,-4.8306,-4.8306,-4.7755,-4.6947,-4.614,-4.5351,-4.4544,-4.3718,-4.3515,-4.3515,-4.3515,-4.3515,-4.3515,-4.3515,-4.3515,-4.3515,-4.3515,-4.2873,-4.2304,-4.2304,-4.135,-4.0396,-3.9955,-3.957,-3.9184,-3.8762,-3.8707,-3.8707,-3.8707,-3.8707,-3.8707,-3.8707,-3.8707,-3.8542,-3.8157,-3.8487,-3.8377,-3.7606,-3.79,-3.7955,-3.7551,-3.7551,-3.7734,-3.812,-3.812,-3.8303,-3.8707,-3.8707,-3.8707,-3.8707,-3.8707,-3.8707,-5.9031,-5.9377,-5.905,-5.7195,-5.4164,-5.0144,-4.4412,-3.9804,-3.5448,-3.0763,-2.9106,-2.8345,-2.7879,-3.0268,-3.3113,-3.5625,-3.8136,-4.1893,-4.7959,-4.9058,-5.0398,-5.3518,-5.4032,-5.3904,-5.3259,-5.3185,-5.3185,-5.3185,-5.3185,-5.3185,-5.3185,-5.3185,-5.3185,-5.3185,-5.3185,-5.3185,-5.3185,-5.3185,-5.3185,-5.3185,-5.3185,-5.3185,-5.3185,-5.3185,-5.3185,-5.3185,-5.3185,-5.3185,-5.3206,-5.3023,-5.2472,-5.1665,-5.0857,-5.003,-4.9239,-4.8544,-4.8306,-4.8306,-4.8306,-4.8306,-4.8306,-4.8306,-4.7755,-4.6947,-4.614,-4.5351,-4.4544,-4.3718,-4.3515,-4.3515,-4.3515,-4.3515,-4.3515,-4.3515,-4.3515,-4.3515,-4.3515,-4.3002,-4.2561,-4.2561,-4.1919,-4.1167,-4.0524,-4.012,-3.968,-3.9056,-3.8817,-3.8707,-3.8707,-3.8707,-3.8707,-3.8707,-3.8707,-3.8707,-3.8707,-3.8707,-3.8707,-3.8707,-3.8707,-3.8707,-3.8707,-3.8707,-3.8707,-3.8707,-3.8707,-3.8707,-3.8707,-3.8707,-3.8707,-3.8707,-3.8707,-3.8707,-5.8184,-5.8934,-5.8915,-5.6434,-5.328,-4.9452,-4.4278,-3.8904,-3.4036,-3.0517,-2.8202,-2.7016,-2.7677,-2.8665,-3.0631,-3.4491,-3.6622,-3.9761,-4.5442,-4.7498,-4.937,-5.1922,-5.2876,-5.3277,-5.3203,-5.3185,-5.3185,-5.3185,-5.3185,-5.3185,-5.3185,-5.3185,-5.3185,-5.3185,-5.3185,-5.3185,-5.3185,-5.3185,-5.3185,-5.3185,-5.3185,-5.3185,-5.3185,-5.3185,-5.3185,-5.3185,-5.3185,-5.3185,-5.313,-5.2417,-5.1628,-5.0839,-5.0033,-4.9169,-4.8397,-4.8343,-4.8306,-4.8306,-4.8306,-4.8306,-4.8306,-4.8306,-4.7755,-4.6947,-4.614,-4.5351,-4.4544,-4.3718,-4.3515,-4.3515,-4.3515,-4.3515,-4.3515,-4.3515,-4.3515,-4.3515,-4.3515,-4.3441,-4.3404,-4.3404,-4.2745,-4.2176,-4.2084,-4.0873,-3.9863,-3.979,-3.9166,-3.8707,-3.8707,-3.8707,-3.8707,-3.8707,-3.8707,-3.8707,-3.8707,-3.8707,-3.8707,-3.8707,-3.8707,-3.8707,-3.8707,-3.8707,-3.8707,-3.8707,-3.8707,-3.8707,-3.8707,-3.8707,-3.8707,-3.8707,-3.8707,-3.8707,-5.6376,-5.7357,-5.7511,-5.5472,-5.2029,-4.7798,-4.2701,-3.7354,-3.2496,-2.902,-2.709,-2.627,-2.6946,-2.7336,-2.8927,-3.3118,-3.3543,-3.5494,-4.1669,-4.3502,-4.5598,-4.9317,-5.0949,-5.2142,-5.3115,-5.3185,-5.3185,-5.3185,-5.3185,-5.3185,-5.3185,-5.3185,-5.3185,-5.3185,-5.3185,-5.3185,-5.3185,-5.3185,-5.3185,-5.3185,-5.3185,-5.3185,-5.3185,-5.3185,-5.3185,-5.3185,-5.3185,-5.2931,-5.2454,-5.2123,-5.1224,-5.005,-4.9739,-4.9058,-4.8306,-4.8306,-4.8306,-4.8306,-4.8306,-4.8306,-4.8306,-4.8306,-4.7443,-4.6324,-4.5993,-4.5351,-4.4544,-4.3718,-4.3515,-4.3515,-4.3515,-4.3515,-4.3515,-4.3515,-4.3515,-4.3515,-4.3515,-4.3515,-4.3515,-4.3515,-4.3239,-4.2873,-4.2378,-4.1368,-4.0469,-3.9955,-3.9221,-3.8707,-3.8707,-3.8707,-3.8596,-3.8249,-3.8216,-3.835,-3.8658,-3.8399,-3.8216,-3.8216,-3.8216,-3.8216,-3.8216,-3.8216,-3.8366,-3.8692,-3.8707,-3.8707,-3.8707,-3.8707,-3.8707,-3.8707,-3.8707,-3.8707,-5.4126,-5.5395,-5.581,-5.3857,-5.0337,-4.6086,-4.1247,-3.6059,-3.1314,-2.8062,-2.6309,-2.5541,-2.6212,-2.6524,-2.7843,-3.1354,-3.1659,-3.3415,-3.911,-4.0824,-4.3008,-4.7095,-4.8857,-5.0362,-5.1977,-5.2784,-5.3185,-5.3185,-5.3185,-5.3185,-5.3185,-5.2986,-5.2968,-5.3185,-5.3185,-5.3185,-5.3185,-5.3185,-5.3185,-5.3185,-5.3185,-5.3185,-5.3185,-5.3185,-5.3185,-5.3206,-5.2968,-5.2527,-5.1958,-5.1481,-5.062,-4.9574,-4.9335,-4.8838,-4.8306,-4.8306,-4.8306,-4.8306,-4.8306,-4.8306,-4.8306,-4.8306,-4.7205,-4.5902,-4.5902,-4.5168,-4.4232,-4.3644,-4.3515,-4.3515,-4.3515,-4.3515,-4.3515,-4.3515,-4.3515,-4.3515,-4.3515,-4.3515,-4.3515,-4.3515,-4.3515,-4.3331,-4.2745,-4.1992,-4.1185,-4.0377,-3.957,-3.8964,-3.8726,-3.8707,-3.8562,-3.8183,-3.7877,-3.7843,-3.8218,-3.7912,-3.7685,-3.7685,-3.7685,-3.7685,-3.7685,-3.7825,-3.8082,-3.8465,-3.8627,-3.8707,-3.8707,-3.8707,-3.8707,-3.8707,-3.8707,-3.8721,-5.1481,-5.3222,-5.3914,-5.1366,-4.8153,-4.4517,-4.0285,-3.5208,-3.0694,-2.8114,-2.5948,-2.4756,-2.5567,-2.6358,-2.7447,-2.916,-3.1643,-3.4685,-3.8483,-4.0457,-4.2597,-4.5571,-4.6636,-4.781,-4.9482,-5.1793,-5.3185,-5.3185,-5.3185,-5.3185,-5.3185,-5.2454,-5.238,-5.3167,-5.3185,-5.3185,-5.3185,-5.3185,-5.3185,-5.3185,-5.3185,-5.3185,-5.3185,-5.3185,-5.3185,-5.317,-5.2362,-5.1995,-5.1887,-5.029,-4.9629,-4.9519,-4.8655,-4.8324,-4.8306,-4.8306,-4.8306,-4.8306,-4.8306,-4.8306,-4.8306,-4.8306,-4.7205,-4.5902,-4.5902,-4.4782,-4.3515,-4.3515,-4.3515,-4.3515,-4.3515,-4.3515,-4.3515,-4.3515,-4.3515,-4.3515,-4.3515,-4.3515,-4.3515,-4.3515,-4.3515,-4.3515,-4.3496,-4.2818,-4.2011,-4.1205,-4.0396,-3.9588,-3.8799,-3.8707,-3.8707,-3.8692,-3.7808,-3.7209,-3.7228,-3.7209,-3.7209,-3.7209,-3.7209,-3.7209,-3.7209,-3.7649,-3.7893,-3.7893,-3.8433,-3.8707,-3.8707,-3.8707,-3.8707,-3.8707,-3.8707,-3.8802,-4.6259,-4.799,-4.8702,-4.6144,-4.4239,-4.1893,-3.768,-3.4069,-3.0836,-2.816,-2.6135,-2.5019,-2.5591,-2.5564,-2.6879,-3.1147,-3.2233,-3.3915,-3.7938,-4.0719,-4.3083,-4.5173,-4.8881,-5.1479,-5.2013,-5.2766,-5.2968,-5.2417,-5.238,-5.2142,-5.1591,-5.1316,-5.1793,-5.317,-5.2674,-5.2637,-5.3185,-5.3185,-5.3185,-5.3185,-5.3185,-5.3185,-5.3185,-5.3185,-5.3185,-5.317,-5.2344,-5.1683,-5.1096,-5.0051,-4.9262,-4.8673,-4.8416,-4.8306,-4.8306,-4.8306,-4.8306,-4.8306,-4.8306,-4.8306,-4.8214,-4.7663,-4.6764,-4.5792,-4.5259,-4.4342,-4.3515,-4.3515,-4.3515,-4.3515,-4.3515,-4.3515,-4.3515,-4.3515,-4.3515,-4.3515,-4.3515,-4.3515,-4.3515,-4.3515,-4.3515,-4.3515,-4.3515,-4.2818,-4.2213,-4.1974,-4.124,-4.0432,-3.9625,-3.9515,-3.9051,-3.781,-3.7396,-3.7323,-3.7649,-3.7058,-3.6643,-3.6643,-3.6643,-3.6643,-3.6643,-3.7154,-3.7578,-3.7893,-3.8433,-3.8707,-3.8707,-3.8707,-3.8982,-3.9533,-3.9648,-4.0058,-4.2066,-4.4143,-4.4932,-4.2681,-4.1239,-3.9335,-3.5404,-3.2545,-3.004,-2.7705,-2.6045,-2.5089,-2.5386,-2.5404,-2.6571,-3.0216,-3.1374,-3.3166,-3.7106,-4.0052,-4.2807,-4.5586,-4.9415,-5.1958,-5.227,-5.2837,-5.2876,-5.205,-5.1995,-5.1646,-5.0839,-5.0508,-5.0949,-5.2252,-5.1811,-5.1922,-5.2747,-5.2747,-5.2913,-5.3185,-5.3185,-5.3185,-5.3185,-5.3185,-5.3041,-5.2711,-5.1903,-5.1077,0.0,-4.9444,-4.8783,-4.8306,-4.8306,-4.8306,-4.8306,-4.8306,-4.8306,-4.8306,-4.8306,-4.8306,-4.8177,-4.7351,-4.6342,-4.5296,-4.4488,-4.3901,-4.3515,-4.3515,-4.3515,-4.3515,-4.3515,-4.3515,-4.3515,-4.3515,-4.3515,-4.3515,-4.3515,-4.3515,-4.3515,-4.3515,-4.3515,-4.3515,-4.3515,-4.3075,-4.2653,-4.2359,-4.1882,-4.1258,-4.0469,-4.0359,-3.9798,-3.8365,-3.7878,-3.766,-3.765,-3.6686,-3.6097,-3.6097,-3.6097,-3.6097,-3.6097,-3.6603,-3.718,-3.7731,-3.8466,-3.9,-3.9278,-3.9493,-3.9863,-4.0343,-4.0347,-4.062,0.0,-4.1104,-4.2027,-4.0227,-3.8661,-3.6661,-3.3314,-3.0698,0.0,-2.6928,-2.5746,-2.5068,-2.5239,-2.5825,-2.6598,-2.7576,-2.9864,-3.2768,-3.6335,-3.9151,-4.2465,-4.6838,-4.8838,-5.0161,-5.0894,-5.227,-5.2784,-5.1977,-5.1848,-5.1481,-5.0674,-4.9903,-4.9867,-5.06,-5.0618,-5.1041,-5.1903,-5.1958,-5.2344,-5.302,-5.3148,-5.3167,-5.3115,-5.3115,-5.2711,-5.194,-5.1096,-5.0288,-4.9537,-4.8655,-4.8306,-4.8306,-4.8306,-4.8306,-4.8306,-4.8306,-4.8306,-4.8306,-4.8306,-4.8269,-4.8086,-4.7204,-4.5883,-4.4488,-4.3718,-4.3515,-4.3515,-4.3515,-4.3515,-4.3515,-4.3515,-4.3515,-4.3515,-4.3515,-4.3515,-4.3515,-4.3515,-4.3515,-4.3515,-4.3515,-4.3515,-4.3515,-4.3515,-4.3515,-4.324,-4.2506,-4.2396,-4.2084,-4.1279,-4.1187,-4.0857,-4.0033,-3.9049,-3.8166,-3.7365,-3.6327,-3.565,-3.56,-3.565,-3.5684,-3.5684,-3.6204,-3.6828,-3.7573,-3.8588,-3.9482,-4.0202,-4.0826,-4.1136,-4.1189,-4.0835,-4.0686,-3.2442,0.0,-3.5718,-3.3372,-3.2987,-3.2468,0.0,-2.8607,-2.7876,-2.6813,-2.5746,-2.5602,-2.7542,-2.7039,-2.7752,-3.2213,-3.3382,-3.5025,-3.8687,-4.3271,-4.717,-4.9632,-5.1371,-5.2435,-5.2637,-5.2417,-5.194,-5.1151,-5.0508,-4.9794,-4.893,-4.871,-4.8691,-4.8893,-4.8893,-4.9591,-5.1077,-5.1683,-5.1793,-5.1389,-5.2619,-5.2894,-5.227,-5.227,-5.2179,-5.1903,-5.049,-4.9776,-4.9537,-4.8655,-4.8306,-4.8306,-4.8306,-4.8306,-4.8306,-4.8306,-4.8306,-4.8306,-4.8306,-4.7901,-4.7149,-4.5718,-4.4599,-4.3736,-4.357,-4.3515,-4.3515,-4.3515,-4.3515,-4.3515,-4.3515,-4.3515,-4.3515,-4.3515,-4.3515,-4.3515,-4.3515,-4.3515,-4.3515,-4.3515,-4.3515,-4.3515,-4.3515,-4.3515,-4.3441,-4.324,-4.3222,-4.2928,-4.2121,-4.2029,-4.1546,-4.0344,-3.9635,-3.8997,-3.8391,-3.7209,-3.6265,-3.5633,-3.618,-3.6502,-3.6502,-3.6977,-3.7586,-3.833,-3.8989,-3.963,-4.0202,-4.0962,-4.1559,-4.1996,-4.168,-4.1524,-2.9352,-3.166,-3.3782,-3.1987,-3.191,-3.1698,-2.9544,-2.814,-2.7063,-2.6173,-2.554,-2.5641,-2.73,-2.73,-2.835,-3.2354,-3.3998,-3.6549,-4.1669,-4.589,-4.9176,-5.1121,-5.2454,-5.3185,-5.3185,-5.2472,-5.1665,-5.0857,-5.005,-4.9225,-4.8361,-4.8306,-4.8306,-4.8306,-4.8306,-4.893,-5.0233,-5.0694,-5.0857,-5.082,-5.1683,-5.1867,-5.1444,-5.1444,-5.1242,-5.0859,-4.9978,-4.9372,-4.8967,-4.8489,-4.8306,-4.8306,-4.8306,-4.8306,-4.8306,-4.8306,-4.8306,-4.8306,-4.8306,-4.7535,-4.6342,-4.5095,-4.4158,-4.3515,-4.3515,-4.3515,-4.3515,-4.3515,-4.3515,-4.3515,-4.3515,-4.3515,-4.3515,-4.3515,-4.3515,-4.3515,-4.3515,-4.3515,-4.3515,-4.3515,-4.3515,-4.3515,-4.3515,-4.3515,-4.3515,-4.3515,-4.3515,-4.3332,-4.291,-4.2837,-4.2421,-4.1321,-4.0742,-4.0064,-3.914,-3.8523,-3.774,-3.6721,-3.706,-3.7297,-3.7297,-3.7547,-3.8133,-3.9131,-3.9765,-4.0369,-4.0957,-4.1658,-4.2157,-4.2468,-4.2009,-4.181,-2.8352,-3.1089,-3.3705,-3.2449,-3.2429,-3.2237,-3.0423,-2.8346,-2.6582,-2.5846,-2.5677,-2.597,-2.7039,-2.7993,-2.9372,-3.168,-3.4463,-3.8438,-4.4535,-4.746,-4.9652,-5.1434,-5.2344,-5.2839,-5.2839,-5.2105,-5.1353,-5.0674,-4.9848,-4.9077,-4.8343,-4.8306,-4.8306,-4.8306,-4.8306,-4.8655,-4.939,-4.9537,-4.9886,-5.0417,-5.0692,-5.0747,-5.0618,-5.0618,-5.0233,-4.9592,-4.9463,-4.8967,-4.8306,-4.8306,-4.8306,-4.8306,-4.8306,-4.8306,-4.8306,-4.8306,-4.8306,-4.8288,-4.8159,-4.715,-4.5773,-4.4966,-4.4158,-4.3515,-4.3515,-4.3515,-4.3515,-4.3515,-4.3515,-4.3515,-4.3515,-4.3515,-4.3515,-4.3515,-4.3515,-4.3515,-4.3515,-4.3515,-4.3515,-4.3515,-4.3515,-4.3515,-4.3515,-4.3515,-4.3515,-4.3515,-4.3515,-4.3515,-4.3515,-4.3515,-4.3239,-4.2561,-4.1996,-4.1189,-3.9959,-3.9922,-3.9474,-3.8326,-3.8142,-3.8075,-3.8075,-3.8176,-3.8744,-3.983,-4.0452,-4.1064,-4.1664,-4.2282,-4.2616,-4.2692,-4.208,-4.181,-2.9462,-3.1525,-3.2391,-2.941,-3.0294,-3.1256,-2.8832,-2.7986,-2.7659,-2.7525,-2.7378,-2.8186,-3.1296,-3.1877,-3.2984,-3.6381,-3.9703,-4.2908,-4.5877,-4.8047,-4.9487,-4.991,-5.0674,-5.1169,-5.1169,-5.0435,-4.9922,-4.9794,-4.8985,-4.8434,-4.8324,-4.8306,-4.8306,-4.8306,-4.8306,-4.8361,-4.8508,-4.9224,-4.9279,-4.871,-5.0123,-5.0435,-4.9794,-4.9794,-4.9721,-4.9555,-4.882,-4.8416,-4.8306,-4.8306,-4.8306,-4.8306,-4.8306,-4.8306,-4.8306,-4.8306,-4.8306,-4.8214,-4.7516,-4.6691,-4.5773,-4.4966,-4.4158,-4.3515,-4.3515,-4.3515,-4.3515,-4.3515,-4.3515,-4.3515,-4.3515,-4.3515,-4.3515,-4.3515,-4.3515,-4.3515,-4.3515,-4.3515,-4.3515,-4.3515,-4.3515,-4.3515,-4.3515,-4.3515,-4.3515,-4.3515,-4.3515,-4.3515,-4.3515,-4.3515,-4.346,-4.3331,-4.2832,-4.2246,-4.1498,-4.1001,-4.0455,-3.9782,-3.9174,-3.8819,-3.8819,-3.9436,-3.9858,-4.0059,-4.0178,-4.0497,-4.1041,-4.1643,-4.2203,-4.2692,-4.208,-4.181,-2.7442,-2.9558,-3.1173,-2.964,-3.1852,-3.3981,-3.2372,-3.1275,-3.0487,-3.0044,-2.9882,-3.0401,-3.2381,-3.3525,-3.5755,-4.0615,-4.3508,-4.5685,-4.7207,-4.8566,-4.9439,-4.958,-5.0306,-5.0802,-5.0802,-5.0068,-4.961,-4.961,-4.8783,-4.8306,-4.8306,-4.8306,-4.8306,-4.8306,-4.8306,-4.8306,-4.8306,-4.8691,-4.8691,-4.8324,-4.9077,-4.926,-4.8893,-4.8893,-4.8893,-4.8875,-4.8471,-4.8306,-4.8306,-4.8306,-4.8306,-4.8306,-4.8306,-4.8306,-4.8306,-4.8306,-4.8306,-4.8196,-4.7369,-4.6562,-4.5773,-4.4966,-4.4158,-4.3515,-4.3515,-4.3515,-4.3515,-4.3515,-4.3515,-4.3515,-4.3515,-4.3515,-4.3515,-4.3515,-4.3515,-4.3515,-4.3515,-4.3515,-4.3515,-4.3515,-4.3515,-4.3515,-4.3515,-4.3515,-4.3515,-4.3515,-4.3515,-4.3515,-4.3515,-4.3515,-4.3515,-4.3515,-4.3014,-4.246,-4.1853,-4.1246,-4.0679,-4.0146,-3.9791,-3.9605,-3.9605,-3.9926,-4.0096,-4.0096,-4.0096,-4.0229,-4.0473,-4.1036,-4.1468,-4.1707,-4.1446,-4.149,-2.6519,-2.8404,-3.05,-3.0885,-3.3423,-3.5788,-3.5788,-3.4449,-3.3199,-3.3179,-3.3006,-3.3064,-3.3742,-3.5748,-3.8942,-4.4085,-4.6355,-4.7717,-4.8418,-4.9026,-4.938,-4.9322,-4.9829,-5.0215,-5.0215,-4.9664,-4.9317,-4.9317,-4.8673,-4.8306,-4.8306,-4.8306,-4.8306,-4.8306,-4.8306,-4.8306,-4.8306,-4.8306,-4.8306,-4.8306,-4.8306,-4.8306,-4.8306,-4.8306,-4.8306,-4.8306,-4.8306,-4.8306,-4.8306,-4.8306,-4.8306,-4.8306,-4.8306,-4.8306,-4.8306,-4.8306,-4.8306,-4.8196,-4.7369,-4.6562,-4.5773,-4.4966,-4.4158,-4.3515,-4.3515,-4.3515,-4.3515,-4.3515,-4.3515,-4.3515,-4.3515,-4.3515,-4.3515,-4.3515,-4.3515,-4.3515,-4.3515,-4.3515,-4.3515,-4.3515,-4.3515,-4.3515,-4.3515,-4.3515,-4.3515,-4.3515,-4.3515,-4.3515,-4.3515,-4.3515,-4.3515,-4.3515,-4.3124,-4.2598,-4.1874,-4.1133,-4.0546,-4.0121,-4.0096,-4.0096,-4.0096,-4.0096,-4.0096,-4.0096,-4.0096,-4.0096,-4.0096,-4.0631,-4.0903,-4.0903,-4.0903,-4.126,-2.9404,-3.0212,-3.0769,-3.2333,-3.2949,-3.3776,-3.6096,-3.5315,-3.4763,-3.7065,-3.6911,-3.6596,-3.7454,-4.0327,-4.347,-4.6259,-4.8125,-4.9261,-4.9395,-4.9451,-4.9224,-4.8475,-4.8453,-4.8489,-4.8489,-4.8434,-4.8398,-4.8398,-4.8343,-4.8306,-4.8306,-4.8306,-4.8306,-4.8306,-4.8306,-4.8306,-4.8306,-4.8306,-4.8306,-4.8306,-4.8306,-4.8306,-4.8306,-4.8306,-4.8306,-4.8306,-4.8306,-4.8306,-4.8306,-4.8306,-4.8306,-4.8306,-4.8306,-4.8306,-4.8306,-4.8306,-4.8306,-4.8196,-4.7369,-4.6562,-4.5773,-4.4966,-4.4158,-4.3515,-4.3515,-4.3515,-4.3515,-4.3515,-4.3515,-4.3515,-4.3515,-4.3515,-4.3515,-4.3515,-4.3515,-4.3515,-4.3515,-4.3515,-4.3515,-4.3515,-4.3515,-4.3515,-4.3515,-4.3515,-4.3515,-4.3515,-4.3515,-4.3515,-4.3515,-4.3515,-4.3515,-4.3515,-4.348,-4.3014,-4.1877,-4.0791,-4.0146,-4.0096,-4.0096,-4.0096,-4.0096,-4.0096,-4.0096,-4.0096,-4.0096,-4.0096,-4.0096,-4.0631,-4.0903,-4.0903,-4.0903,-4.1319,-2.7769,-2.9192,-3.0673,-3.1852,-3.3333,-3.5038,-3.7046,-3.8238,-3.9354,-4.0854,-4.0912,-4.0623,-4.0412,-4.2277,-4.4528,-4.6567,-4.8317,-4.9414,-4.949,-4.9489,-4.9187,-4.8402,-4.8306,-4.8306,-4.8306,-4.8306,-4.8306,-4.8306,-4.8306,-4.8306,-4.8306,-4.8306,-4.8306,-4.8306,-4.8306,-4.8306,-4.8306,-4.8306,-4.8306,-4.8306,-4.8306,-4.8306,-4.8306,-4.8306,-4.8306,-4.8306,-4.8306,-4.8306,-4.8306,-4.8306,-4.8306,-4.8306,-4.8306,-4.8306,-4.8306,-4.8306,-4.8306,-4.8269,-4.7957,-4.7003,-4.5847,-4.5553,-4.4562,-4.3515,-4.3515,-4.3515,-4.3515,-4.3515,-4.3515,-4.3515,-4.3515,-4.3515,-4.3515,-4.3515,-4.3515,-4.3515,-4.3515,-4.3515,-4.3515,-4.3515,-4.3515,-4.3515,-4.3515,-4.3515,-4.3515,-4.3515,-4.3515,-4.3515,-4.3515,-4.3515,-4.3515,-4.3515,-4.2884,-4.2126,-4.1313,-4.0546,-4.0096,-4.0096,-4.0096,-4.0096,-4.0096,-4.0096,-4.0096,-4.0096,-4.0096,-4.0096,-4.0096,-4.0311,-4.0631,-4.1092,-4.1092,-4.1685,-2.7082,-2.8467,-3.025,-3.141,-3.3615,-3.6077,-3.8296,-4.0354,-4.2269,-4.3951,-4.3855,-4.3297,-4.2701,-4.3758,-4.5182,-4.6663,-4.8548,-4.974,-4.9528,-4.9489,-4.9187,-4.8402,-4.8306,-4.8306,-4.8306,-4.8306,-4.8306,-4.8306,-4.8306,-4.8306,-4.8306,-4.8306,-4.8306,-4.8306,-4.8306,-4.8306,-4.8306,-4.8306,-4.8306,-4.8306,-4.8306,-4.8306,-4.8306,-4.8306,-4.8306,-4.8306,-4.8306,-4.8306,-4.8306,-4.8306,-4.8306,-4.8306,-4.8306,-4.8306,-4.8306,-4.8306,-4.8306,-4.8269,-4.8012,-4.704,-4.5865,-4.5608,-4.4599,-4.3515,-4.3515,-4.3515,-4.3515,-4.3515,-4.3515,-4.3515,-4.3515,-4.3515,-4.3515,-4.3515,-4.3515,-4.3515,-4.3515,-4.3515,-4.3515,-4.3515,-4.3515,-4.3515,-4.3515,-4.3515,-4.3515,-4.3515,-4.3515,-4.3515,-4.3515,-4.3515,-4.3427,-4.3268,-4.2384,-4.1556,-4.0949,-4.0417,-4.0096,-4.0096,-4.0096,-4.0096,-4.0096,-4.0096,-4.0096,-4.0096,-4.0096,-4.0096,-4.0096,-4.0096,-4.0485,-4.1204,-4.1204,-4.1929,-2.8126,-2.8492,-2.955,-3.1295,-3.3654,-3.6423,-3.9765,-4.12,-4.2788,-4.6212,-4.5547,-4.4335,-4.4316,-4.5017,-4.5893,-4.6759,-4.9029,-5.0421,-4.9603,-4.9489,-4.9187,-4.8402,-4.8306,-4.8306,-4.8306,-4.8306,-4.8306,-4.8306,-4.8306,-4.8306,-4.8306,-4.8306,-4.8306,-4.8306,-4.8306,-4.8306,-4.8306,-4.8306,-4.8306,-4.8306,-4.8306,-4.8306,-4.8306,-4.8306,-4.8306,-4.8306,-4.8306,-4.8306,-4.8306,-4.8306,-4.8306,-4.8306,-4.8306,-4.8306,-4.8306,-4.8306,-4.8306,-4.8196,-4.7369,-4.6562,-4.5773,-4.4966,-4.4158,-4.3515,-4.3515,-4.3515,-4.3515,-4.3515,-4.3515,-4.3515,-4.3515,-4.3515,-4.3515,-4.3515,-4.3515,-4.3515,-4.3515,-4.3515,-4.3515,-4.3515,-4.3515,-4.3515,-4.3515,-4.3515,-4.3515,-4.3515,-4.3515,-4.3515,-4.3515,-4.3515,-4.3304,-4.2769,-4.218,-4.1556,-4.0949,-4.0417,-4.0096,-4.0113,-4.0096,-4.0096,-4.0096,-4.0096,-4.0096,-4.0096,-4.0096,-4.0096,-4.0113,-4.0113,-4.0476,-4.1221,-4.1221,-4.2016,-2.8126,-2.9371,-3.1333,-3.3026,-3.6257,-3.9738,-4.2527,-4.3855,-4.5259,-4.8086,-4.7759,-4.6605,-4.5441,-4.5932,-4.6605,-4.6846,-4.8529,-4.972,-4.9528,-4.9489,-4.9187,-4.8402,-4.8306,-4.8306,-4.8306,-4.8306,-4.8306,-4.8306,-4.8306,-4.8306,-4.8306,-4.8306,-4.8306,-4.8306,-4.8306,-4.8306,-4.8306,-4.8306,-4.8306,-4.8306,-4.8306,-4.8306,-4.8306,-4.8306,-4.8306,-4.8306,-4.8306,-4.8306,-4.8306,-4.8306,-4.8306,-4.8306,-4.8306,-4.8306,-4.8306,-4.8306,-4.8306,-4.8196,-4.7369,-4.6562,-4.5773,-4.4966,-4.4158,-4.3515,-4.3515,-4.3515,-4.3515,-4.3515,-4.3515,-4.3515,-4.3515,-4.3515,-4.3515,-4.3515,-4.3515,-4.3515,-4.3515,-4.3515,-4.3515,-4.3515,-4.3515,-4.368,-4.425,-4.4342,-4.4342,-4.4342,-4.4342,-4.4342,-4.4342,-4.4342,-4.4145,-4.3602,-4.3007,-4.2181,-4.0984,-4.0417,-4.0333,-4.0832,-4.04,-4.0096,-4.0096,-4.0096,-4.0096,-4.0096,-4.0096,-4.0367,-4.0865,-4.0865,-4.1525,-4.276,-4.276,-4.3301,-2.8917,-3.0506,-3.2756,-3.5122,-3.813,-4.1343,-4.4586,-4.624,-4.7653,-4.9529,-4.8952,-4.7751,-4.6618,-4.6925,-4.7318,-4.7203,-4.8721,-4.9816,-4.9547,-4.9489,-4.9187,-4.8402,-4.8306,-4.8306,-4.8306,-4.8306,-4.8306,-4.8306,-4.8306,-4.8306,-4.8306,-4.8306,-4.8306,-4.8306,-4.8306,-4.8306,-4.8306,-4.8306,-4.8306,-4.8306,-4.8306,-4.8306,-4.8306,-4.8306,-4.8306,-4.8306,-4.8306,-4.8122,-4.7846,-4.8177,-4.8122,-4.7846,-4.8196,-4.8104,-4.781,-4.781,-4.7627,-4.7278,-4.6782,-4.6104,-4.5351,-4.4874,-4.4158,-4.3515,-4.3515,-4.3515,-4.3515,-4.3515,-4.3515,-4.3515,-4.3515,-4.3515,-4.3515,-4.3515,-4.3515,-4.3515,-4.3515,-4.3515,-4.3515,-4.3515,-4.3754,-4.403,-4.4195,-4.4745,-4.5076,-4.4746,-4.4984,-4.5186,-4.5186,-4.5186,-4.4967,-4.4435,-4.4037,-4.3314,-4.1968,-4.156,-4.1452,-4.1636,-4.1204,-4.0976,-4.0976,-4.0417,-4.0248,-4.0536,-4.0527,-4.0899,-4.1644,-4.1644,-4.2252,-4.3392,-4.3392,-4.3842,-2.9991,-3.1552,-3.3737,-3.7238,-3.9604,-4.2104,-4.6009,-4.8144,-4.951,-5.0308,-4.9183,-4.7943,-4.7559,-4.7764,-4.7884,-4.7495,-4.9086,-5.0106,-4.932,-4.9294,-4.9062,-4.8291,-4.8196,-4.8233,-4.8306,-4.8233,-4.8233,-4.8306,-4.8233,-4.8196,-4.8196,-4.8196,-4.8196,-4.8196,-4.8269,-4.8306,-4.8306,-4.8233,-4.8196,-4.8196,-4.8122,-4.8086,-4.8104,-4.8233,-4.8306,-4.8306,-4.8233,-4.7773,-4.7149,-4.781,-4.7664,-4.7058,-4.7865,-4.77,-4.7003,-4.7076,-4.6581,-4.5883,-4.581,-4.5314,-4.469,-4.4617,-4.4103,-4.3515,-4.3515,-4.3515,-4.3515,-4.3515,-4.3515,-4.3515,-4.3515,-4.3515,-4.3515,-4.3515,-4.3515,-4.3515,-4.3515,-4.3515,-4.3515,-4.3515,-4.4158,-4.4488,-4.3828,-4.4984,-4.5755,-4.5021,-4.548,-4.592,-4.5993,-4.6012,-4.579,-4.5269,-4.5208,-4.47,-4.3509,-4.3339,-4.3053,-4.253,-4.2373,-4.232,-4.2388,-4.106,-4.0637,-4.1288,-4.1305,-4.166,-4.2388,-4.2388,-4.2777,-4.3521,-4.3521,-4.391,-2.9084,-3.0983,-3.3891,-3.7988,-4.2297,-4.5778,-4.6692,-4.7682,-4.8432,-4.8625,-4.8142,-4.7485,-4.6732,-4.6982,-4.7062,-4.6309,-4.7144,-4.7702,-4.7199,-4.7682,-4.7915,-4.7408,-4.7351,-4.7608,-4.8251,-4.7718,-4.7608,-4.8251,-4.77,-4.7351,-4.7351,-4.7351,-4.7351,-4.7351,-4.7957,-4.8306,-4.8306,-4.7663,-4.7351,-4.7351,-4.6728,-4.6416,-4.6452,-4.7719,-4.8306,-4.8269,-4.7626,-4.7259,-4.7058,-4.6617,-4.6305,-4.625,-4.7039,-4.6856,-4.6232,-4.6856,-4.6581,-4.581,-4.5186,-4.4838,-4.4617,-4.3956,-4.3626,-4.3515,-4.3515,-4.3515,-4.3515,-4.3515,-4.3515,-4.3515,-4.3515,-4.3515,-4.3515,-4.3515,-4.3515,-4.3515,-4.3515,-4.3515,-4.3515,-4.3515,-4.4158,-4.4856,-4.5296,-4.6195,-4.6782,-4.6617,-4.6195,-4.614,-4.6746,-4.6837,-4.6631,-4.6101,-4.6039,-4.5479,-4.4137,-4.3569,-4.3502,-4.3939,-4.2918,-4.2557,-4.3149,-4.2303,-4.1897,-4.2049,-4.2049,-4.2422,-4.3139,-4.3139,-4.3572,-4.4333,-4.4333,-4.4418,-2.9577,-3.1749,-3.4757,-3.9854,-4.3288,-4.5534,-4.5946,-4.6237,-4.6426,-4.6426,-4.7056,-4.7231,-4.6038,-4.652,-4.6754,-4.5745,-4.6435,-4.6949,-4.657,-4.6861,-4.6979,-4.6581,-4.6544,-4.6691,-4.7113,-4.6783,-4.6709,-4.7131,-4.6764,-4.6544,-4.6544,-4.6544,-4.6544,-4.6544,-4.6929,-4.715,-4.715,-4.6746,-4.6544,-4.6526,-4.6104,-4.5902,-4.5938,-4.7168,-4.7718,-4.77,-4.7278,-4.6654,-4.5938,-4.592,-4.5663,-4.5406,-4.6214,-4.603,-4.5388,-4.5792,-4.5443,-4.469,-4.4268,-4.4121,-4.4066,-4.3626,-4.3515,-4.3515,-4.3515,-4.3515,-4.3515,-4.3515,-4.3515,-4.3515,-4.3515,-4.3515,-4.3515,-4.3515,-4.3515,-4.3515,-4.3515,-4.3515,-4.3608,-4.3993,-4.4727,-4.5406,-4.5828,-4.6562,-4.7223,-4.7608,-4.7333,-4.7205,-4.7608,-4.7663,-4.7568,-4.7277,-4.7257,-4.6835,-4.5817,-4.5152,-4.4827,-4.4921,-4.3987,-4.3555,-4.3961,-4.3606,-4.3217,-4.2828,-4.2828,-4.3217,-4.3978,-4.3978,-4.4181,-4.4615,-4.4615,-4.4615,-2.9444,-3.2209,-3.564,-4.1201,-4.3139,-4.3904,-4.4619,-4.4699,-4.458,-4.4514,-4.5824,-4.6601,-4.5301,-4.5836,-4.6152,-4.5152,-4.5843,-4.6363,-4.6031,-4.6113,-4.6077,-4.5736,-4.5681,-4.5755,-4.5883,-4.5773,-4.5755,-4.5883,-4.5773,-4.5681,-4.5681,-4.5681,-4.5681,-4.5681,-4.5828,-4.5902,-4.5902,-4.5755,-4.5681,-4.5681,-4.5553,-4.5553,-4.5718,-4.6379,-4.6764,-4.6892,-4.6746,-4.592,-4.4745,-4.5278,-4.5094,-4.458,-4.5388,-4.5204,-4.4525,-4.4636,-4.4195,-4.3515,-4.3515,-4.3515,-4.3515,-4.3515,-4.3515,-4.3515,-4.3515,-4.3515,-4.3515,-4.3515,-4.3515,-4.3515,-4.3515,-4.3606,-4.3699,-4.3699,-4.3809,-4.3882,-4.3736,-4.3699,-4.3938,-4.4764,-4.5571,-4.6159,-4.6287,-4.6856,-4.7516,-4.8214,-4.8306,-4.8306,-4.8306,-4.8306,-4.8306,-4.8306,-4.8306,-4.8055,-4.7449,-4.6887,-4.6264,-4.5563,-4.5025,-4.4692,-4.4598,-4.4615,-4.4282,-4.3639,-4.3623,-4.3927,-4.4615,-4.4615,-4.4615,-4.4615,-4.4615,-4.4615,-2.5552,-3.0021,-3.5647,-3.9528,-4.1944,-4.3403,-4.3516,-4.4084,-4.4501,-4.4146,-4.4285,-4.4412,-4.4199,-4.408,-4.3924,-4.3764,-4.3889,-4.3961,-4.3911,-4.4502,-4.4926,-4.4874,-4.4874,-4.5131,-4.5828,-4.5278,-4.5149,-4.5847,-4.5259,-4.4874,-4.4874,-4.4874,-4.4874,-4.4874,-4.5535,-4.5902,-4.5902,-4.5223,-4.4874,-4.4856,-4.414,-4.4176,-4.4874,-4.4966,-4.5406,-4.6012,-4.5333,-4.4911,-4.4636,-4.4066,-4.3772,-4.3736,-4.4562,-4.4378,-4.3736,-4.4452,-4.4195,-4.3515,-4.3515,-4.3515,-4.3515,-4.3515,-4.3515,-4.3515,-4.3515,-4.3515,-4.3515,-4.3515,-4.3515,-4.3515,-4.3515,-4.4011,-4.4544,-4.4544,-4.5076,-4.5388,-4.469,-4.4544,-4.4782,-4.5571,-4.6397,-4.7149,-4.7865,-4.8086,-4.8196,-4.8288,-4.8306,-4.8306,-4.8306,-4.8306,-4.8306,-4.8306,-4.8306,-4.8055,-4.7449,-4.732,-4.6774,-4.5571,-4.5407,-4.5142,-4.4626,-4.4615,-4.4564,-4.4445,-4.4445,-4.4496,-4.4615,-4.4615,-4.4615,-4.4615,-4.4615,-4.4615,-2.6812,-3.0721,-3.5002,-3.89,-4.0429,-4.1196,-4.2133,-4.2511,-4.272,-4.2982,-4.3061,-4.319,-4.3652,-4.3597,-4.3515,-4.3515,-4.3515,-4.3515,-4.3515,-4.3791,-4.403,-4.403,-4.403,-4.4176,-4.4507,-4.4232,-4.4176,-4.4525,-4.4232,-4.403,-4.403,-4.403,-4.403,-4.403,-4.436,-4.4562,-4.4562,-4.4195,-4.403,-4.4011,-4.3663,-4.3681,-4.403,-4.403,-4.447,-4.5223,-4.4856,-4.4452,-4.3993,-4.3662,-4.3515,-4.3551,-4.3883,-4.3809,-4.3551,-4.3901,-4.3791,-4.3515,-4.3515,-4.3515,-4.3515,-4.3515,-4.3515,-4.3515,-4.3515,-4.3515,-4.3589,-4.4048,-4.4176,-4.4287,-4.4727,-4.5112,-4.5369,-4.5369,-4.5645,-4.5938,-4.6012,-4.5682,-4.5608,-4.6434,-4.7204,-4.7865,-4.8251,-4.8306,-4.8306,-4.8306,-4.8306,-4.8306,-4.8306,-4.8306,-4.8306,-4.8306,-4.8306,-4.8191,-4.7917,-4.7259,-4.6594,-4.6039,-4.5372,-4.4896,-4.4598,-4.4615,-4.4615,-4.4615,-4.4615,-4.4615,-4.4615,-4.4615,-4.4615,-4.4615,-4.4615,-4.4615,-2.742,-3.0074,-3.2504,-3.6903,-3.8035,-3.8549,-4.0438,-4.0834,-4.102,-4.1827,-4.2011,-4.2176,-4.2782,-4.3222,-4.3515,-4.3515,-4.3515,-4.3515,-4.3515,-4.3515,-4.3515,-4.3515,-4.3515,-4.3515,-4.3515,-4.3515,-4.3515,-4.3515,-4.3515,-4.3515,-4.3515,-4.3515,-4.3515,-4.3515,-4.3515,-4.3515,-4.3515,-4.3515,-4.3515,-4.3515,-4.3515,-4.3515,-4.3515,-4.3515,-4.3828,-4.4397,-4.4397,-4.4048,-4.3515,-4.3515,-4.3515,-4.3515,-4.3515,-4.3515,-4.3515,-4.3515,-4.3515,-4.3515,-4.3515,-4.3515,-4.3515,-4.3515,-4.3515,-4.3515,-4.3515,-4.3626,-4.392,-4.4544,-4.4856,-4.5149,-4.5736,-4.6049,-4.6214,-4.6214,-4.6361,-4.6617,-4.7003,-4.6782,-4.6691,-4.7278,-4.7902,-4.8306,-4.8306,-4.8306,-4.8306,-4.8306,-4.8306,-4.8306,-4.8306,-4.8306,-4.8306,-4.8306,-4.8172,-4.8075,-4.8075,-4.7044,-4.6336,-4.6167,-4.532,-4.4759,-4.4615,-4.4615,-4.4615,-4.4615,-4.4615,-4.4615,-4.4615,-4.4615,-4.4615,-4.4615,-4.4615,-4.4615,-2.4804,-2.5913,-2.7034,-3.2091,-3.4283,-3.584,-3.8297,-3.942,-4.0194,-4.0985,-4.115,-4.1168,-4.1224,-4.247,-4.3515,-4.3515,-4.3515,-4.3515,-4.3515,-4.3515,-4.3515,-4.3515,-4.3515,-4.3515,-4.3515,-4.3515,-4.3515,-4.3515,-4.3515,-4.3515,-4.3515,-4.3515,-4.3515,-4.3515,-4.3515,-4.3515,-4.3515,-4.3515,-4.3515,-4.3515,-4.3515,-4.3515,-4.3515,-4.3515,-4.3533,-4.3552,-4.3552,-4.3551,-4.3515,-4.3515,-4.3515,-4.3515,-4.3515,-4.3515,-4.3515,-4.3515,-4.3515,-4.3515,-4.3515,-4.3515,-4.3515,-4.3515,-4.3515,-4.3515,-4.3515,-4.403,-4.4636,-4.4691,-4.5259,-4.5847,-4.5883,-4.6471,-4.7039,-4.7039,-4.7608,-4.7994,-4.7259,-4.7663,-4.8196,-4.8233,-4.8269,-4.8306,-4.8306,-4.8306,-4.8306,-4.8306,-4.8306,-4.8306,-4.8306,-4.8306,-4.8306,-4.8306,-4.7777,-4.7467,-4.7467,-4.6801,-4.6143,-4.5571,-4.5485,-4.5205,-4.4626,-4.4615,-4.4615,-4.4615,-4.4615,-4.4615,-4.4615,-4.4615,-4.4615,-4.4615,-4.4615,-4.4615,-2.3444,-2.5058,-2.6864,-2.9717,-3.1955,-3.383,-3.5238,-3.7,-3.8594,-3.9386,-3.9974,-4.0487,-4.1003,-4.1572,-4.2139,-4.2653,-4.2727,-4.291,-4.3441,-4.3515,-4.3515,-4.3515,-4.3515,-4.3515,-4.3515,-4.3515,-4.3515,-4.3515,-4.3515,-4.3515,-4.3515,-4.3515,-4.3515,-4.3515,-4.3515,-4.3515,-4.3515,-4.3515,-4.3515,-4.3515,-4.3515,-4.3515,-4.3515,-4.3515,-4.3515,-4.3515,-4.3515,-4.3515,-4.3515,-4.3515,-4.3515,-4.3515,-4.3515,-4.3515,-4.3515,-4.3515,-4.3515,-4.3515,-4.3515,-4.3515,-4.3589,-4.4103,-4.4268,-4.4378,-4.4874,-4.5241,-4.559,-4.6104,-4.6452,-4.6782,-4.7315,-4.7664,-4.7865,-4.7865,-4.8104,-4.8233,-4.792,-4.8104,-4.8306,-4.8306,-4.8306,-4.8306,-4.8306,-4.8306,-4.8306,-4.8306,-4.8306,-4.8306,-4.8306,-4.8306,-4.8306,-4.8306,-4.8113,-4.7995,-4.7995,-4.7021,-4.6312,-4.6088,-4.5346,-4.4841,-4.4598,-4.4615,-4.4615,-4.4615,-4.4615,-4.4615,-4.4615,-4.4615,-4.4615,-4.4615,-4.4615,-4.4615,-2.2015,-2.3538,-2.5566,-2.7978,-2.939,-3.0815,-3.3256,-3.4871,-3.6229,-3.7606,-3.8524,-3.9331,-4.0141,-4.0288,-4.0653,-4.1717,-4.1901,-4.2084,-4.2616,-4.2928,-4.3094,-4.3094,-4.3332,-4.3515,-4.3515,-4.3515,-4.3515,-4.3515,-4.3515,-4.3515,-4.3515,-4.3515,-4.3515,-4.3515,-4.3515,-4.3515,-4.3515,-4.3515,-4.3515,-4.3515,-4.3515,-4.3515,-4.3515,-4.3515,-4.3515,-4.3515,-4.3515,-4.3515,-4.3515,-4.3515,-4.3515,-4.3515,-4.3515,-4.3515,-4.3515,-4.3515,-4.3515,-4.3515,-4.3515,-4.368,-4.3956,-4.4213,-4.4672,-4.5149,-4.5424,-4.5883,-4.6416,-4.6947,-4.7278,-4.7626,-4.8159,-4.8306,-4.8306,-4.8306,-4.8306,-4.8306,-4.8306,-4.8306,-4.8306,-4.8306,-4.8306,-4.8306,-4.8306,-4.8306,-4.8306,-4.8306,-4.8306,-4.8306,-4.8306,-4.8306,-4.821,-4.8035,-4.8015,-4.7917,-4.7677,-4.671,-4.6112,-4.6112,-4.5169,-4.4615,-4.4615,-4.4615,-4.4615,-4.4615,-4.4615,-4.4615,-4.4615,-4.4615,-4.4615,-4.4615,-4.4615,-4.4615,0.0,0.0,0.0,-2.666,-2.6494,-2.6825,-3.2302,-3.2999,-3.3188,-3.5679,-3.6831,-3.7639,-3.8487,-3.8652,-3.9184,-4.0728,-4.1022,-4.1058,-4.1095,-4.1772,-4.2268,-4.2268,-4.2947,-4.3441,-4.3441,-4.3441,-4.3441,-4.3441,-4.3441,-4.3441,-4.3441,-4.3441,-4.3441,-4.3441,-4.346,-4.346,-4.346,-4.3496,-4.3515,-4.3515,-4.3515,-4.3515,-4.3515,-4.3515,-4.3515,-4.3515,-4.3515,-4.3515,-4.3515,-4.3515,-4.3515,-4.3515,-4.3515,-4.3515,-4.3515,-4.3515,-4.3533,-4.3551,-4.3551,-4.4066,-4.4617,-4.3846,-4.4654,-4.5792,-4.5039,-4.5902,-4.7131,-4.7131,-4.77,-4.8306,-4.8306,-4.8306,-4.8306,-4.8306,-4.8306,-4.8306,-4.8306,-4.8306,-4.8306,-4.8306,-4.8306,-4.8306,-4.8306,-4.8306,-4.8306,-4.8306,-4.8306,-4.8306,-4.8306,-4.8306,-4.8075,-4.7488,-4.7406,-4.715,-4.6513,-4.5858,-4.5511,-4.5546,-4.4934,-4.4615,-4.4615,-4.4615,-4.4615,-4.4615,-4.4615,-4.4615,-4.4615,-4.4615,-4.4615,-4.4615,-4.4615,-4.4615,-2.1602,0.0,0.0,0.0,0.0,0.0,-2.7376,-2.8906,-3.0693,-3.3115,-3.4266,-3.5257,-3.6688,-3.7441,-3.7988,-3.8429,-3.946,-4.0432,-4.1022,-4.1279,-4.1425,-4.1425,-4.1627,-4.1772,-4.1772,-4.1772,-4.1772,-4.1772,-4.1772,-4.1772,-4.1772,-4.1772,-4.1772,-4.1772,-4.2323,-4.2635,-4.2635,-4.3221,-4.3515,-4.3515,-4.3515,-4.3515,-4.3515,-4.3515,-4.3515,-4.3515,-4.3515,-4.3515,-4.3515,-4.3515,-4.3515,-4.3515,-4.3515,-4.3515,-4.3515,-4.3515,-4.3864,-4.4378,-4.4378,-4.4892,-4.5626,-4.5993,-4.6397,-4.6837,-4.7205,-4.7608,-4.7957,-4.7957,-4.8141,-4.8306,-4.8306,-4.8306,-4.8306,-4.8306,-4.8306,-4.8306,-4.8306,-4.8306,-4.8306,-4.8306,-4.8306,-4.8306,-4.8306,-4.8306,-4.8306,-4.8306,-4.8306,-4.8306,-4.8306,-4.8306,-4.8248,-4.8075,-4.7656,-4.7555,-4.7891,-4.6446,-4.5736,-4.6247,-4.5224,-4.4615,-4.4615,-4.4615,-4.4615,-4.4615,-4.4615,-4.4615,-4.4615,-4.4615,-4.4615,-4.4615,-4.4615,-4.4615,-2.2106,-2.273,-2.3639,-2.3373,0.0,0.0,-2.6109,-2.7236,-2.8675,-3.1097,-3.2247,-3.3293,-3.4945,-3.5917,-3.6468,-3.6468,-3.7826,-3.9166,-3.9976,-4.0396,-4.0598,-4.0598,-4.091,-4.1095,-4.1095,-4.1095,-4.1095,-4.1095,-4.1095,-4.1095,-4.1095,-4.1095,-4.1095,-4.1095,-4.1535,-4.1809,-4.1809,-4.2598,-4.3002,-4.3002,-4.3332,-4.3515,-4.3515,-4.3515,-4.3515,-4.3515,-4.3515,-4.3515,-4.3515,-4.3515,-4.3515,-4.3515,-4.3515,-4.3515,-4.3515,-4.3515,-4.4011,-4.4691,-4.4691,-4.5461,-4.6434,-4.6562,-4.7039,-4.7626,-4.7755,-4.8031,-4.8306,-4.8306,-4.8306,-4.8306,-4.8306,-4.8306,-4.8306,-4.8306,-4.8306,-4.8306,-4.8306,-4.8306,-4.8306,-4.8306,-4.8306,-4.8306,-4.8306,-4.8306,-4.8306,-4.8306,-4.8306,-4.8306,-4.8306,-4.8306,-4.8094,-4.7554,-4.7449,-4.7259,-4.691,-4.6315,-4.59,-4.576,-4.5603,-4.5258,-4.4632,-4.5207,-4.5241,-4.4615,-4.4919,-4.4891,-4.4615,-4.4615,-4.4615,-4.4615,-4.4615,-4.4615,-2.2749,-2.285,-2.3703,-2.4952,-2.4318,0.0,-2.6686,-2.6851,-2.7108,-2.9347,-3.0375,-3.1347,-3.2963,-3.3922,-3.4472,-3.4472,-3.5936,-3.7437,-3.8432,-3.9258,-3.9772,-3.9772,-4.0414,-4.082,-4.082,-4.082,-4.082,-4.082,-4.082,-4.082,-4.082,-4.082,-4.082,-4.082,-4.0912,-4.0967,-4.0967,-4.1772,-4.2213,-4.2304,-4.302,-4.3423,-4.3515,-4.3515,-4.3515,-4.3515,-4.3515,-4.3515,-4.3515,-4.3515,-4.3515,-4.3515,-4.3515,-4.3515,-4.3515,-4.3515,-4.4011,-4.4691,-4.4691,-4.5755,-4.6984,-4.6269,-4.7058,-4.8177,-4.7443,-4.7718,-4.8306,-4.8306,-4.8306,-4.8306,-4.8306,-4.8306,-4.8306,-4.8306,-4.8306,-4.8306,-4.8306,-4.8306,-4.8306,-4.8306,-4.8306,-4.8306,-4.8306,-4.8306,-4.8306,-4.8306,-4.8306,-4.8306,-4.8306,-4.823,-4.7777,-4.6641,-4.691,-4.6566,-4.5063,-4.5915,-4.6028,-4.4914,-4.5991,-4.6075,-4.4784,-4.5974,-4.6058,-4.475,-4.528,-4.5263,-4.4615,-4.4615,-4.4615,-4.4615,-4.4615,-4.4615,-2.5915,-2.5786,-2.5658,-2.4685,-2.5162,0.0,-2.4235,-2.4814,-2.5962,-2.7071,-2.7438,-2.8033,-2.9647,-3.0583,-3.1146,-3.1146,-3.3036,-3.5257,-3.7437,-3.8432,-3.8927,-3.8927,-3.9074,-3.9184,-3.9184,-3.9184,-3.9184,-3.9184,-3.9184,-3.9184,-3.9184,-3.9184,-3.9184,-3.9184,-3.979,-4.012,-4.012,-4.0946,-4.1645,-4.2304,-4.2451,-4.2873,-4.3515,-4.3515,-4.3515,-4.3515,-4.3515,-4.3515,-4.3515,-4.3515,-4.3515,-4.3515,-4.3515,-4.3515,-4.3515,-4.3515,-4.4011,-4.4691,-4.4691,-4.5755,-4.7076,-4.6911,-4.7516,-4.8269,-4.8122,-4.8196,-4.8306,-4.8306,-4.8306,-4.8306,-4.8306,-4.8306,-4.8306,-4.8306,-4.8306,-4.8306,-4.8306,-4.8306,-4.8306,-4.8306,-4.8306,-4.8306,-4.8306,-4.8306,-4.8306,-4.8306,-4.8306,-4.8306,-4.8306,-4.7877,-4.747,-4.7237,-4.6401,-4.6186,-4.7027,-4.6344,-4.6016,-4.6358,-4.6075,-4.5788,-4.55,-4.5771,-4.5788,-4.55,-4.5026,-4.475,-4.4615,-4.4615,-4.4615,-4.4615,-4.4615,-4.4615,-2.6943,-2.6602,-2.6502,-2.6098,-2.5988,0.0,0.0,-2.4795,-2.5136,-2.6355,-2.6282,-2.6484,-2.8099,-2.8723,-2.9127,-2.9537,-3.1292,-3.3049,-3.4279,-3.6211,-3.7496,-3.7496,-3.7496,-3.7661,-3.8065,-3.8102,-3.8267,-3.867,-3.8707,-3.8707,-3.8707,-3.8707,-3.8707,-3.8707,-3.9093,-3.9294,-3.9294,-4.0102,-4.091,-4.1717,-4.2121,-4.2708,-4.3515,-4.3515,-4.3515,-4.3515,-4.3515,-4.3515,-4.3515,-4.3515,-4.3515,-4.3515,-4.3515,-4.3515,-4.3515,-4.3515,-4.4011,-4.4746,-4.5168,-4.5828,-4.6636,-4.7424,-4.77,-4.7773,-4.8196,-4.8306,-4.8233,-4.781,-4.7975,-4.8306,-4.8306,-4.8306,-4.8306,-4.8306,-4.8306,-4.8306,-4.8306,-4.8306,-4.8306,-4.8306,-4.8306,-4.8306,-4.8306,-4.8306,-4.8306,-4.8306,-4.8306,-4.8191,-4.7897,-4.7593,-4.715,-4.6519,-4.5883,-4.5821,-4.6627,-4.609,-4.5872,-4.6227,-4.6599,-4.6312,-4.5196,-4.6566,-4.7005,-4.6261,-4.5517,-4.4987,-4.4615,-4.4615,-4.4615,-4.4615,-4.4615,-4.4615,-2.7923,-2.764,-2.7769,-2.7787,-2.7174,-2.6476,0.0,0.0,0.0,-2.5933,-2.5621,-2.5576,-2.688,-2.7119,-2.731,-2.7959,-2.942,-3.0479,-3.0479,-3.3018,-3.5073,-3.5532,-3.5716,-3.6119,-3.6942,-3.6886,-3.7199,-3.8157,-3.8083,-3.8138,-3.845,-3.8615,-3.8707,-3.8707,-3.8707,-3.8707,-3.8707,-3.9331,-4.0065,-4.0875,-4.1534,-4.2341,-4.3276,-4.3276,-4.3349,-4.3515,-4.3515,-4.3515,-4.3515,-4.3515,-4.3515,-4.3515,-4.3515,-4.3515,-4.3515,-4.3515,-4.3901,-4.4562,-4.5204,-4.5535,-4.5902,-4.737,-4.7608,-4.7443,-4.8104,-4.8306,-4.8159,-4.7498,-4.7791,-4.8306,-4.8306,-4.8306,-4.8306,-4.8306,-4.8306,-4.8306,-4.8306,-4.8306,-4.8306,-4.8306,-4.8306,-4.8306,-4.8306,-4.8306,-4.8306,-4.8306,-4.8191,-4.7937,-4.7449,-4.7194,-4.6635,-4.5597,-4.5399,-4.5476,-4.5896,-4.5923,-4.5974,-4.6126,-4.7229,-4.7107,-4.5297,-4.753,-4.824,-4.7039,-4.616,-4.5399,-4.4818,-4.4682,-4.4615,-4.4615,-4.4615,-4.4615,-3.1091,-3.1384,-3.1262,-2.8484,-2.9267,-2.9634,-2.5419,0.0,-2.597,-2.4722,0.0,-2.4392,-2.4575,0.0,0.0,-2.4722,-2.6098,-2.7145,-2.7145,-2.8693,-3.062,-3.2766,-3.366,-3.4394,-3.5206,-3.4651,-3.4871,-3.645,-3.5848,-3.6068,-3.7566,-3.8303,-3.8707,-3.8707,-3.8707,-3.8707,-3.8707,-3.8799,-3.9239,-4.0029,-4.012,-4.0965,-4.2433,-4.2433,-4.2818,-4.3515,-4.3515,-4.3515,-4.3515,-4.3515,-4.3515,-4.3515,-4.3515,-4.3515,-4.3515,-4.3515,-4.357,-4.3662,-4.3753,-4.4232,-4.4966,-4.5883,-4.7076,-4.8196,-4.8269,-4.8306,-4.8288,-4.8196,-4.8233,-4.8306,-4.8306,-4.8306,-4.8306,-4.8306,-4.8306,-4.8306,-4.8306,-4.8306,-4.8306,-4.8306,-4.8306,-4.8306,-4.8306,-4.8306,-4.8306,-4.8306,-4.7838,-4.7488,-4.7406,-4.6425,-4.5673,-4.5511,-4.5025,-4.5241,-4.6549,-4.6667,-4.6955,-4.7601,-4.7804,-4.777,-4.7547,-4.7868,-4.7939,-4.78,-4.6413,-4.5669,-4.5568,-4.4936,-4.4615,-4.4615,-4.4615,-4.4615,-3.1623,-3.199,-3.2051,-2.9769,-2.9604,-2.9237,-2.6264,-2.5383,-2.5144,-2.4934,0.0,0.0,0.0,0.0,0.0,0.0,-2.5466,-2.5731,-2.5273,-2.619,-2.7805,-3.0216,-3.0803,-3.15,-3.2797,-3.3036,-3.3587,-3.4761,-3.4504,-3.4816,-3.5991,-3.7294,-3.7991,-3.7991,-3.8469,-3.8707,-3.8707,-3.8707,-3.9093,-3.99,-3.99,-4.0487,-4.1625,-4.2084,-4.2488,-4.2818,-4.3313,-4.3515,-4.3515,-4.3515,-4.3515,-4.3515,-4.3515,-4.3515,-4.3515,-4.3515,-4.3515,-4.357,-4.403,-4.4103,-4.414,-4.4947,-4.6287,-4.7516,-4.7058,-4.7572,-4.8214,-4.7736,-4.7938,-4.8306,-4.8306,-4.8306,-4.8306,-4.8306,-4.8306,-4.8306,-4.8306,-4.8306,-4.8306,-4.8306,-4.8306,-4.8306,-4.8306,-4.8015,-4.7777,-4.7777,-4.7237,-4.6847,-4.693,-4.6453,-4.6184,-4.6246,-4.6039,-4.6295,-4.7361,-4.7056,-4.7107,-4.7838,-4.7513,-4.7648,-4.8511,-4.8139,-4.7889,-4.7889,-4.728,-4.6786,-4.6346,-4.6024,-4.5652,-4.5229,-4.4818,-4.4615,-3.2284,-3.2816,-3.3005,-3.0491,-2.9592,-2.873,-2.6465,-2.5383,-2.4961,-2.5319,-2.5193,0.0,0.0,0.0,-2.4852,-2.5328,0.0,-2.5117,-2.43,-2.4695,-2.5723,-2.7482,-2.8271,-2.9127,-3.0301,-3.0742,-3.1463,-3.2724,-3.2614,-3.3115,-3.4582,-3.6266,-3.7272,-3.7492,-3.8285,-3.8707,-3.8707,-3.8707,-3.9001,-3.957,-3.957,-3.9992,-4.0799,-4.1387,-4.1882,-4.2323,-4.291,-4.3313,-4.3515,-4.3515,-4.3515,-4.3515,-4.3515,-4.3515,-4.3515,-4.3515,-4.3515,-4.3588,-4.4176,-4.4121,-4.3956,-4.4782,-4.581,-4.6727,-4.6599,-4.7223,-4.7901,-4.7516,-4.7846,-4.8306,-4.8306,-4.8306,-4.8306,-4.8306,-4.8306,-4.8306,-4.8306,-4.8306,-4.8306,-4.8306,-4.8306,-4.8306,-4.8306,-4.7797,-4.7406,-4.7406,-4.702,-4.672,-4.6612,-4.6793,-4.6921,-4.6806,-4.6786,-4.7107,-4.7821,-4.7411,-4.7428,-4.8142,-4.7699,-4.7885,-4.8968,-4.8494,-4.8206,-4.8206,-4.799,-4.7648,-4.7107,-4.6887,-4.6515,-4.5974,-4.5246,-4.4801,-3.3935,-3.4926,-3.5037,-3.0234,-2.9592,-2.9127,-2.5181,-2.5438,-2.6319,-2.5558,-2.6311,-2.7001,-2.6622,-2.6234,-2.583,-2.5452,-2.5393,0.0,0.0,-2.4226,-2.4263,-2.4337,-2.641,-2.7871,-2.7908,-2.7236,-2.7769,-3.0136,-2.9592,-3.0509,-3.3678,-3.5422,-3.6703,-3.7474,-3.8285,-3.8707,-3.8707,-3.8707,-3.8707,-3.8744,-3.8744,-3.9166,-3.9937,-3.9971,-4.0818,-4.2304,-4.2323,-4.2782,-4.3515,-4.3515,-4.3515,-4.3515,-4.3515,-4.3515,-4.3515,-4.3515,-4.3515,-4.3515,-4.3533,-4.403,-4.4783,-4.5608,-4.5902,-4.6214,-4.7774,-4.7718,-4.7296,-4.8048,-4.8288,-4.8306,-4.8306,-4.8306,-4.8306,-4.8306,-4.8306,-4.8306,-4.8306,-4.8306,-4.8306,-4.8306,-4.8306,-4.8306,-4.8306,-4.7797,-4.7406,-4.7406,-4.7543,-4.7403,-4.6682,-4.7261,-4.7517,-4.6857,-4.6786,-4.7107,-4.7821,-4.7872,-4.8189,-4.8934,-4.8951,-4.8951,-4.9001,-4.8984,-4.8968,-4.8968,-4.8244,-4.7872,-4.7855,-4.7141,-4.6786,-4.6735,-4.6007,-4.528,-3.5424,-3.6262,-3.617,-3.2344,-3.1201,-3.0027,-2.6304,-2.6197,-2.6453,-2.4986,-2.6208,-2.7259,-2.6368,-2.6091,-2.5873,-2.547,-2.5393,-2.475,0.0,-2.2116,-2.2162,-2.3263,-2.5081,-2.6201,-2.6201,-2.5962,-2.6586,-2.8466,-2.8356,-2.9145,-3.1311,-3.3476,-3.5018,-3.5811,-3.7184,-3.8157,-3.8689,-3.8707,-3.8707,-3.8707,-3.8707,-3.8658,-3.8583,-3.9144,-3.9515,-3.9804,-4.1162,-4.1923,-4.225,-4.3137,-4.3515,-4.3515,-4.3515,-4.3515,-4.3515,-4.3515,-4.3515,-4.3515,-4.3515,-4.368,-4.3938,-4.4213,-4.4672,-4.5314,-4.6397,-4.6874,-4.7278,-4.8086,-4.8306,-4.8306,-4.8306,-4.8306,-4.8306,-4.8306,-4.8306,-4.8306,-4.8306,-4.8306,-4.8306,-4.8306,-4.8306,-4.8489,-4.9058,-4.8616,-4.8201,-4.8201,-4.8352,-4.8398,-4.8149,-4.8362,-4.8454,-4.828,-4.8257,-4.8359,-4.8612,-4.8646,-4.8748,-4.8984,-4.9001,-4.9001,-4.9001,-4.9001,-4.9001,-4.9001,-4.8765,-4.8646,-4.8646,-4.8376,-4.8003,-4.753,-4.7276,-4.6769,-3.57,-3.632,0.0,-3.3252,-3.2097,-3.083,-2.743,-2.7402,-2.7686,-2.6233,-2.7031,-2.7959,-2.7865,-2.6867,-2.6065,-2.6016,-2.5556,-2.4531,0.0,-2.1987,-2.2107,-2.2914,-2.3914,-2.4658,-2.4952,-2.4713,-2.5209,-2.6825,-2.6953,-2.7769,-2.9666,-3.2063,-3.3867,-3.4968,-3.6633,-3.7784,-3.8415,-3.8433,-3.8433,-3.8433,-3.8433,-3.8232,-3.7929,-3.8434,-3.8582,-3.8488,-4.0082,-4.1047,-4.1595,-4.2741,-4.3339,-4.3515,-4.3515,-4.3515,-4.3515,-4.3515,-4.3515,-4.3515,-4.3515,-4.3515,-4.3551,-4.3828,-4.4287,-4.4911,-4.6012,-4.6691,-4.7278,-4.8086,-4.8306,-4.8306,-4.8306,-4.8306,-4.8248,-4.8035,-4.8152,-4.823,-4.8035,-4.8152,-4.8306,-4.8306,-4.8306,-4.8581,-4.9445,-4.9271,-4.9009,-4.9031,-4.9198,-4.9192,-4.8913,-4.9115,-4.9229,-4.9026,-4.9001,-4.9001,-4.9001,-4.9001,-4.9001,-4.9001,-4.9001,-4.9001,-4.9001,-4.9001,-4.9001,-4.9001,-4.9001,-4.9001,-4.9001,-4.9001,-4.8765,-4.8308,-4.8308,-4.8054]},{"header":{"parameterUnit":"m.s-1","parameterCategory":1,"la1":30.6,"la2":29.2853,"lo1":-89.7004,"lo2":-87.6739,"dy":0.0162,"dx":0.0183,"nx":112,"ny":82,"refTime":"2026-04-25T00:00:00:Z","depth":0,"parameterNumber":3,"parameterNumberName":"V-component_of_WINDS"},"data":[0.0,0.0,0.0,0.0,0.0,0.0,0.0,0.0,0.0,0.0,0.0,0.0,0.0,0.0,0.0,0.0,0.0,0.0,0.0,0.0,0.0,0.0,0.0,0.0,0.0,0.0,0.0,0.0,0.0,0.0,0.0,0.0,0.0,0.0,0.0,0.0,0.0,0.0,0.0,0.0,0.0,0.0,0.0,0.0,0.0,0.0,0.0,0.0,0.0,0.0,0.0,0.0,0.0,0.0,0.0,0.0,0.0,0.0,0.0,0.0,0.0,0.0,0.0,0.0,0.0,0.0,0.0,0.0,0.0,0.0,0.0,0.0,0.0,0.0,0.0,0.0,0.0,0.0,0.0,0.0,0.0,0.0,0.0,0.0,0.0,0.0,0.0,0.0,0.0,0.0,0.7179,0.8036,1.1241,1.3296,1.3213,1.5305,1.5545,1.3018,0.0,0.0,0.0,0.0,0.0,0.0,0.0,0.0,0.0,0.0,0.0,0.0,0.0,0.0,0.0,0.0,0.0,0.0,0.0,0.0,0.0,0.0,0.0,0.0,0.0,0.0,0.0,0.0,0.0,0.0,0.0,0.0,0.0,0.0,0.0,0.0,0.0,0.0,0.0,0.0,0.0,0.0,0.0,0.0,0.0,0.0,0.0,0.0,0.0,0.0,0.0,0.0,0.0,0.0,0.0,0.0,0.0,0.0,0.0,0.0,0.0,0.0,0.0,0.0,0.0,0.0,0.0,0.0,0.0,0.0,0.0,0.0,0.0,0.0,0.0,0.0,0.0,0.0,0.0,0.0,0.0,0.0,0.0,0.0,0.0,0.0,0.0,0.0,0.0,0.0,0.0,0.0,0.0,0.0,0.0,0.0,0.0,0.0,0.0,0.0,0.0,0.0,0.0,0.0,0.7527,1.0133,1.2128,1.3734,1.4933,1.5859,1.5424,1.3273,0.0,0.0,0.0,0.0,0.0,0.0,0.0,0.0,0.0,0.0,0.0,0.0,0.0,0.0,0.0,0.0,0.0,0.0,0.0,0.0,0.0,0.0,0.0,0.0,0.0,0.0,0.0,0.0,0.0,0.0,0.0,0.0,0.0,0.0,0.0,0.0,0.0,0.0,0.0,0.0,0.0,0.0,0.0,0.0,0.0,0.0,0.0,0.0,0.0,0.0,0.0,0.0,0.0,0.0,0.0,0.0,0.0,0.0,0.0,0.0,0.0,0.0,0.0,0.0,0.0,0.0,0.0,0.0,0.0,0.0,0.0,0.0,0.0,0.0,0.0,0.0,0.0,0.0,0.0,0.0,0.0,0.0,0.0,0.0,0.0,0.0,0.0,0.0,0.0,0.0,0.0,0.0,0.0,0.0,0.0,0.0,0.0,0.0,0.0,0.0,0.0,0.0,0.0,0.7503,0.8885,1.0809,1.3096,1.466,1.5118,1.5725,1.515,1.3125,1.2098,0.0,0.0,0.0,0.0,0.0,0.0,0.0,0.0,0.0,0.0,0.0,0.0,0.0,0.0,0.0,0.0,0.0,0.0,0.0,0.0,0.0,0.0,0.0,0.0,0.0,0.0,0.0,0.0,0.0,0.0,0.0,0.0,0.0,0.0,0.0,0.0,0.0,0.0,0.0,0.0,0.0,0.0,0.0,0.0,0.0,0.0,0.0,0.0,0.0,0.0,0.0,0.0,0.0,0.0,0.0,0.0,0.0,0.0,0.0,0.0,0.0,0.0,0.0,0.0,0.0,0.0,0.0,0.0,0.0,0.0,0.0,0.0,0.0,0.0,0.0,0.0,0.0,0.0,0.0,0.0,0.0,0.0,0.0,0.0,0.0,0.0,0.0,0.0,0.0,0.0,0.0,0.0,0.0,0.0,0.0,0.0,0.0,0.0,0.0,0.0,0.0,0.0,0.9046,1.0334,1.1949,1.4073,1.5423,1.5533,1.5566,1.4803,1.2911,1.1484,0.0,0.0,0.0,0.0,0.0,0.0,0.0,0.0,0.0,0.0,0.0,0.0,0.0,0.0,0.0,0.0,0.0,0.0,0.0,0.0,0.0,0.0,0.0,0.0,0.0,0.0,0.0,0.0,0.0,0.0,0.0,0.0,0.0,0.0,0.0,0.0,0.0,0.0,0.0,0.0,0.0,0.0,0.0,0.0,0.0,0.0,0.0,0.0,0.0,0.0,0.0,0.0,0.0,0.0,0.0,0.0,0.0,0.0,0.0,0.0,0.0,0.0,0.0,0.0,0.0,0.0,0.0,0.0,0.0,0.0,0.0,0.0,0.0,0.0,0.0,0.0,0.0,0.0,0.0,0.0,0.0,0.0,0.0,0.0,0.0,0.0,0.0,0.0,0.0,0.0,0.0,0.0,0.0,0.0,0.0,0.0,0.0,0.0,0.0,0.0,0.0,0.0,1.0093,1.1541,1.4739,1.5257,1.5852,1.6962,1.5838,1.4419,1.2884,1.0908,0.0,0.0,0.0,0.0,0.0,0.0,0.0,0.0,0.0,0.0,0.0,0.0,0.0,0.0,0.0,0.0,0.0,0.0,0.0,0.0,0.0,0.0,0.0,0.0,0.0,0.0,0.0,0.0,0.0,0.0,0.0,0.0,0.0,0.0,0.0,0.0,0.0,0.0,0.0,0.0,0.0,0.0,0.0,0.0,0.0,0.0,0.0,0.0,0.0,0.0,0.0,0.0,0.0,0.0,0.0,0.0,0.0,0.0,0.0,0.0,0.0,0.0,0.0,0.0,0.0,0.0,0.0,0.0,0.0,0.0,0.0,0.0,0.0,0.0,0.0,0.0,0.0,0.0,0.0,0.0,0.0,0.0,0.0,0.0,0.0,0.0,0.0,0.0,0.0,0.0,0.0,0.0,0.0,0.0,0.0,0.0,0.0,0.0,0.0,0.0,0.0,0.0,1.1478,1.3295,1.5176,1.6079,1.6607,1.6843,1.5865,1.4442,1.2623,0.0,0.0,0.0,0.0,0.0,0.0,0.0,0.0,0.0,0.0,0.0,0.0,0.0,0.0,0.0,0.0,0.0,0.0,0.0,0.0,0.0,0.0,0.0,0.0,0.0,0.0,0.0,0.0,0.0,0.0,0.0,0.0,0.0,0.0,0.0,0.0,0.0,0.0,0.0,0.0,0.0,0.0,0.0,0.0,0.0,0.0,0.0,0.0,0.0,0.0,0.0,0.0,0.0,0.0,0.0,0.0,0.0,0.0,0.0,0.0,0.0,0.0,0.0,0.0,0.0,0.0,0.0,0.0,0.0,0.0,0.0,0.0,0.0,0.0,0.0,0.0,0.0,0.0,0.0,0.0,0.0,0.0,0.0,0.0,0.0,0.0,0.0,0.0,0.0,0.0,0.0,0.0,0.0,0.0,0.0,0.0,0.0,0.0,0.0,0.0,0.0,0.0,1.0645,1.2721,1.4533,1.5805,1.673,1.7079,1.6734,1.5558,1.4115,1.2412,0.0,0.0,0.0,0.0,0.0,0.0,0.0,0.0,0.0,0.0,0.0,0.0,0.0,0.0,0.0,0.0,0.0,0.0,0.0,0.0,0.0,0.0,0.0,0.0,0.0,0.0,0.0,0.0,0.0,0.0,0.0,0.0,0.0,0.0,0.0,0.0,0.0,0.0,0.0,0.0,0.0,0.0,0.0,0.0,0.0,0.0,0.0,0.0,0.0,0.0,0.0,0.0,0.0,0.0,0.0,0.0,0.0,0.0,0.0,0.0,0.0,0.0,0.0,0.0,0.0,0.0,0.0,0.0,0.0,0.0,0.0,0.0,0.0,0.0,0.0,0.0,0.0,0.0,0.0,0.0,0.0,0.0,0.0,0.0,0.0,0.0,0.0,0.0,0.0,0.0,0.0,0.0,0.0,0.0,0.0,0.0,0.0,0.0,0.0,0.0,0.0,0.0,1.2479,1.3702,1.5059,1.6972,1.7192,1.7072,1.672,1.4779,1.3227,0.0,0.0,0.0,0.0,0.0,0.0,0.0,0.0,0.0,0.0,0.0,0.0,0.0,0.0,0.0,0.0,0.0,0.0,0.0,0.0,0.0,0.0,0.0,0.0,0.0,0.0,0.0,0.0,0.0,0.0,0.0,0.0,0.0,0.0,0.0,0.0,0.0,0.0,0.0,0.0,0.0,0.0,0.0,0.0,0.0,0.0,0.0,0.0,0.0,0.0,0.0,0.0,0.0,0.0,0.0,0.0,0.0,0.0,0.0,0.0,0.0,0.0,0.0,0.0,0.0,0.0,0.0,0.0,0.0,0.0,0.0,0.0,0.0,0.0,0.0,0.0,0.0,0.0,0.0,0.0,0.0,0.0,0.0,0.0,0.0,0.0,0.0,0.0,0.0,0.0,0.0,0.0,0.0,0.0,0.0,0.0,0.0,0.0,0.0,0.0,0.0,0.0,0.0,1.2592,1.4309,1.5735,1.6723,1.6703,1.6413,1.6112,1.4918,1.3614,1.2091,0.0,0.0,0.0,0.0,0.0,0.0,0.0,0.0,0.0,0.0,0.0,0.0,0.0,0.0,0.0,0.0,0.0,0.0,0.0,0.0,0.0,0.0,0.0,0.0,0.0,0.0,0.0,0.0,0.0,0.0,0.0,0.0,0.0,0.0,0.0,0.0,0.0,0.0,0.0,0.0,0.0,0.0,0.0,0.0,0.0,0.0,0.0,0.0,0.0,0.0,0.0,0.0,0.0,0.0,0.0,0.0,0.0,0.0,0.0,0.0,0.0,0.0,0.0,0.0,0.0,0.0,0.0,0.0,0.0,0.0,0.0,0.0,0.0,0.0,0.0,0.0,0.0,0.0,0.0,0.0,0.0,0.0,0.0,0.0,0.0,0.0,0.0,0.0,0.0,0.0,0.0,0.0,0.0,0.0,0.0,0.0,0.0,0.0,0.0,0.0,0.0,0.0,1.2455,1.4376,1.5885,1.6473,1.638,1.6152,1.5804,1.4917,1.3641,1.2013,0.0,0.0,0.0,0.0,0.0,0.0,0.0,0.0,0.0,0.0,0.0,0.0,0.0,0.0,0.0,0.0,0.0,0.0,0.0,0.0,0.0,0.0,0.0,0.0,0.0,0.0,0.0,0.0,0.0,0.0,0.0,0.0,0.0,0.0,0.0,0.0,0.0,0.0,0.0,0.0,0.0,0.0,0.0,0.0,0.0,0.0,0.0,0.0,0.0,0.0,0.0,0.0,0.0,0.0,0.0,0.0,0.0,0.0,0.0,0.0,0.0,0.0,0.0,0.0,0.0,0.0,0.0,0.0,0.0,0.0,0.0,0.0,0.0,0.0,0.0,0.0,0.0,0.0,0.0,0.0,0.0,0.0,0.0,0.0,0.0,0.0,0.0,0.0,0.0,0.0,0.0,0.0,0.0,0.0,0.0,0.0,0.0,0.0,0.0,0.0,0.0,0.0,1.2151,1.4088,1.5585,1.6172,1.6233,1.6099,1.5778,1.475,1.3494,1.204,0.0,0.0,0.0,0.0,0.0,0.0,0.0,0.0,0.0,0.0,0.0,0.0,0.0,0.0,0.0,0.0,0.0,0.0,0.0,0.0,0.0,0.0,0.0,0.0,0.0,0.0,0.0,0.0,0.0,0.0,0.0,0.0,0.0,0.0,0.0,0.0,0.0,0.0,0.0,0.0,0.0,0.0,0.0,0.0,0.0,0.0,0.0,0.0,0.0,0.0,0.0,0.0,0.0,0.0,0.0,0.0,0.0,0.0,0.0,0.0,1.3326,1.2899,0.0,0.0,0.0,0.0,0.0,0.0,0.0,0.0,0.0,0.0,0.0,0.0,0.0,0.0,0.0,0.0,0.0,0.0,0.0,0.0,0.0,0.0,0.0,0.0,0.0,0.0,0.0,0.0,0.0,0.0,0.0,0.0,0.0,0.0,0.0,0.0,0.0,0.0,0.0,0.0,1.2151,1.3915,1.5277,1.5858,1.5925,1.5712,1.519,1.4703,1.3794,1.2305,1.0835,0.0,0.0,0.0,0.0,0.0,0.0,0.0,0.0,0.0,0.0,0.0,0.0,0.0,0.0,0.0,0.0,0.0,0.0,0.0,0.0,0.0,0.0,0.0,0.0,0.0,0.0,0.0,0.0,0.0,0.0,0.0,0.0,0.0,0.0,0.0,0.0,0.0,0.0,0.0,0.0,0.0,0.0,0.0,0.0,0.0,0.0,0.0,0.0,0.0,0.0,0.0,0.0,0.0,0.0,0.0,0.0,0.0,0.0,0.0,1.4831,1.4222,0.0,0.0,0.0,0.0,0.0,0.0,0.0,0.0,0.0,0.0,0.0,0.0,0.0,0.0,0.0,0.0,0.0,0.0,0.0,0.0,0.0,0.0,0.0,0.0,0.0,0.0,0.0,0.0,0.0,0.0,0.0,0.0,0.0,0.0,0.0,0.0,0.0,0.0,0.0,0.0,1.2151,1.3903,1.519,1.5718,1.5705,1.5444,1.5042,1.4563,1.3734,1.2385,1.1189,0.0,0.0,0.0,0.0,0.0,0.0,0.0,0.0,0.0,0.0,0.0,0.0,0.0,0.0,0.0,0.0,0.0,0.0,0.0,0.0,0.0,0.0,0.0,0.0,0.0,0.0,0.0,0.0,0.0,0.0,0.0,0.0,0.0,0.0,0.0,0.0,0.0,0.0,0.0,0.0,0.0,0.0,0.0,0.0,0.0,0.0,0.0,0.0,0.0,0.0,0.0,0.0,0.0,1.7615,1.7762,1.7883,1.7702,1.7588,1.7534,1.6506,1.5885,1.5471,1.4502,0.0,0.0,0.0,0.0,0.0,0.0,0.0,0.0,0.0,0.0,0.0,0.0,0.0,0.0,0.0,0.0,0.0,0.0,0.0,0.0,0.0,0.0,1.2619,1.2362,1.2826,1.2893,1.1182,0.0,0.0,0.0,0.0,0.0,0.0,0.0,0.0,0.0,0.0,0.0,1.2305,1.397,1.5209,1.5698,1.5538,1.5257,1.4961,1.4442,1.3694,1.2605,1.171,1.0762,0.0,0.0,0.0,0.0,0.0,0.0,0.0,0.0,0.0,0.0,0.0,0.0,0.0,0.0,0.0,0.0,0.0,0.0,0.0,0.0,0.0,0.0,0.0,0.0,0.0,0.0,0.0,0.0,0.0,0.0,0.0,0.0,1.3935,1.4302,0.0,0.0,0.0,0.0,0.0,0.0,0.0,0.0,0.0,0.0,0.0,0.0,0.0,1.7128,1.7636,1.8497,1.8831,1.8698,1.9205,1.9339,1.9189,1.9149,1.9135,1.9122,1.8911,0.0,1.6194,1.5992,0.0,0.0,0.0,0.0,0.0,0.0,0.0,0.0,0.0,0.0,0.0,0.0,0.0,0.0,0.0,0.0,0.0,0.0,0.0,0.0,0.0,0.0,1.4155,1.3861,1.3888,1.3901,1.3627,1.2211,1.0935,1.0742,0.9884,0.8991,0.0,0.0,0.0,0.0,0.0,0.0,1.2906,1.4188,1.5135,1.5418,1.5418,1.517,1.4623,1.4502,1.4175,1.3467,1.2625,1.1944,1.1578,0.974,0.0,0.0,0.0,0.0,0.0,0.0,0.0,0.0,0.0,0.0,0.0,0.0,0.0,0.0,0.0,0.0,0.0,0.0,0.0,0.0,0.0,0.0,0.0,0.0,0.0,0.0,0.0,0.0,0.0,1.3995,1.487,1.4997,1.493,1.4632,0.0,0.0,0.0,0.0,0.0,0.0,0.0,0.0,0.0,1.7488,1.7929,1.843,1.9025,1.9419,1.9713,1.9913,2.0167,2.0227,2.01,2.01,2.0013,1.9853,1.9853,1.9245,1.8176,1.7226,1.6119,1.5064,0.0,0.0,0.0,0.0,1.409,1.3929,1.4559,1.4385,1.3821,1.3614,0.0,0.0,0.0,0.0,0.0,0.0,0.0,1.2871,1.3206,1.4035,1.4776,1.4816,1.495,1.507,1.507,1.3968,1.2726,1.1891,1.145,1.0708,0.9132,0.8998,0.0,0.0,0.0,1.153,1.3019,1.3948,1.471,1.5331,1.5104,1.4803,1.4543,1.4369,1.4095,1.3626,1.2959,1.2455,1.2124,1.0775,1.0137,0.0,0.0,0.0,0.0,0.0,0.0,0.0,0.0,0.0,0.0,0.0,0.0,0.0,0.0,0.0,0.0,0.0,0.0,0.0,0.0,0.0,0.0,0.0,0.0,0.0,0.0,0.0,0.0,1.4667,1.5583,1.5199,1.5811,1.5932,0.0,0.0,0.0,0.0,0.0,0.0,1.6914,1.7561,1.817,1.8911,1.9366,1.9806,2.0247,2.0321,2.0581,2.1009,2.0935,2.0902,2.0902,2.0822,2.0668,2.0454,2.0454,2.0294,1.99,1.8277,1.7255,1.664,1.5886,1.5477,1.5383,1.5625,1.5545,1.545,1.6132,1.6052,1.5551,1.511,1.4469,1.366,1.2819,0.0,0.0,0.0,0.0,1.3414,1.4157,1.4689,1.515,1.5438,1.5671,1.5758,1.5684,1.5144,1.4282,1.31,1.2844,1.2181,1.0241,1.0033,0.0,0.9804,1.0668,1.1837,1.3253,1.3881,1.4476,1.5211,1.483,1.4489,1.4416,1.4208,1.3961,1.362,1.3153,1.2764,1.2425,1.157,1.1287,1.1665,0.0,0.0,0.0,0.0,0.0,0.0,0.0,0.0,0.0,0.0,0.0,0.0,0.0,0.0,0.0,0.0,0.0,0.0,0.0,0.0,0.0,0.0,0.0,0.0,0.0,0.0,0.0,0.0,0.0,1.469,1.6297,0.0,0.0,0.0,0.0,1.7025,1.7353,1.7856,1.8744,1.9345,1.9813,2.0134,2.0975,2.1501,2.1527,2.1737,2.1891,2.1917,2.1702,2.1574,2.1561,2.1216,2.1082,2.1062,2.1062,2.0902,2.0541,1.9332,1.8477,1.7869,1.7326,1.675,1.6295,1.6533,1.6453,1.6301,1.6573,1.6486,1.6274,1.6241,1.5411,1.4419,1.4402,1.3946,0.0,0.0,1.3946,1.4509,1.4881,1.515,1.5444,1.5738,1.5771,1.5752,1.5478,1.5209,1.4881,1.4476,1.3548,1.2569,1.1893,0.0,1.1295,1.1282,1.1844,1.2672,1.3888,1.4309,1.4623,1.4995,1.4703,1.4409,1.4135,1.4095,1.3961,1.362,1.3353,1.3053,1.2777,1.187,1.1639,1.2151,1.0606,0.0,0.0,0.0,0.0,0.0,0.0,0.0,0.0,0.0,0.0,0.0,0.0,0.0,0.0,0.0,0.0,0.0,0.0,0.0,0.0,0.0,0.0,0.0,0.0,0.0,0.0,0.0,0.0,1.7357,1.82,0.0,1.8029,1.7976,1.807,1.8277,1.8911,1.9512,2.002,2.0608,2.1062,2.1349,2.1663,2.183,2.183,2.1937,2.1984,2.1984,2.1755,2.1614,2.1608,2.1243,2.1109,2.1109,2.1109,2.1049,2.0909,2.0301,1.9593,1.8824,1.8243,1.7883,1.7716,1.7816,1.7669,1.7428,1.7476,1.7248,1.6797,1.6172,1.5705,1.5291,1.4923,1.4656,1.4529,1.4716,1.4923,1.515,1.5444,1.5598,1.5698,1.5758,1.5784,1.5752,1.5458,1.517,1.4921,1.4583,1.3874,1.3073,1.2285,1.2254,1.2248,1.2017,1.2368,1.2991,1.3955,1.3848,1.3935,1.4609,1.4199,1.3873,1.3808,1.376,1.3633,1.3347,1.2899,1.2579,1.2465,1.1797,1.1783,1.2555,1.1736,1.1134,0.0,0.0,0.0,0.0,0.0,0.0,0.0,0.0,0.0,0.0,0.0,0.0,0.0,0.0,0.0,0.0,0.0,0.0,0.0,0.0,0.0,0.0,0.0,0.0,0.0,1.7075,1.8337,1.8313,1.9292,1.98,1.9406,1.9546,1.9706,1.9806,2.0347,2.0808,2.1102,2.1577,2.1931,2.2124,2.2231,2.2278,2.2278,2.2278,2.2278,2.2278,2.1984,2.1797,2.169,2.139,2.1203,2.1109,2.1109,2.1109,2.1082,2.0688,2.018,1.9613,1.9125,1.8811,1.8637,1.8637,1.8384,1.7975,1.7923,1.7569,1.7105,1.6466,1.6139,1.5905,1.5571,1.5337,1.5297,1.5484,1.5538,1.5585,1.5731,1.5784,1.5784,1.5784,1.5784,1.5678,1.5337,1.5149,1.4888,1.4449,1.4055,1.3533,1.2872,1.2919,1.2946,1.2652,1.2859,1.33,1.3995,1.3661,1.3613,1.4436,1.3866,1.35,1.3593,1.3513,1.3367,1.3073,1.2579,1.2211,1.2011,1.1543,1.171,1.2633,1.2591,1.2193,1.1388,0.0,0.0,0.0,0.0,0.0,0.0,0.0,0.0,0.0,0.0,0.0,0.0,0.0,0.0,0.0,0.0,0.0,0.0,0.0,0.0,0.0,0.0,0.0,1.4945,1.7156,1.8563,1.7485,1.9562,2.0915,2.0293,2.0808,2.1256,2.1608,2.1641,2.1769,2.1984,2.2271,2.2432,2.2432,2.2712,2.2928,2.2928,2.2928,2.2928,2.2928,2.2552,2.2258,2.1977,2.1742,2.1383,2.1109,2.1109,2.1109,2.1062,2.0488,2.0241,2.014,1.9907,1.9439,1.8938,1.8938,1.8508,1.7962,1.7695,1.7454,1.7213,1.7206,1.6811,1.6335,1.6279,1.6066,1.5784,1.5784,1.5784,1.5784,1.5784,1.5784,1.5784,1.5784,1.5771,1.5658,1.5129,1.5001,1.4821,1.4202,1.4088,1.3995,1.3666,1.362,1.352,1.328,1.344,0.0,1.4048,1.378,1.3806,1.4386,1.3714,1.3307,1.3553,1.336,1.306,1.2777,1.2432,1.2011,1.1415,1.1136,1.1429,1.2388,1.3121,1.3046,1.2203,0.0,0.0,0.0,0.0,0.0,0.0,0.0,0.0,0.0,0.0,0.0,0.0,0.0,0.0,0.0,0.0,0.0,0.0,0.0,0.0,0.0,1.5669,1.6234,1.7283,1.9028,2.0259,2.0374,2.1224,2.1764,2.181,2.177,2.1777,2.1857,2.2064,2.2218,2.2298,2.2579,2.2739,2.2739,2.2819,2.2928,2.2928,2.2928,2.2928,2.2921,2.2345,2.2064,2.1964,2.1463,2.1189,2.1109,2.1109,2.1109,2.1082,2.0708,2.0428,2.012,1.9679,1.9386,1.9245,1.9245,1.8871,1.829,1.7762,1.7528,1.7481,1.7266,1.6894,1.6547,1.6339,1.6066,1.5784,1.5784,1.5784,1.5784,1.5784,1.5784,1.5784,1.5784,1.5665,1.5418,1.5089,1.4796,1.4536,1.4162,1.4088,1.4062,1.3981,1.3968,1.3941,1.3854,1.3915,1.3995,1.4075,1.3647,1.3433,1.3806,1.328,1.2945,1.3025,1.2958,1.2697,1.2181,1.1637,1.1376,1.1389,1.0949,1.1314,1.2657,1.2828,1.2681,0.0,0.0,0.0,0.0,0.0,0.0,0.0,0.0,0.0,0.0,0.0,0.0,0.0,0.0,0.0,0.0,0.0,0.0,0.0,0.0,0.0,0.0,1.7024,1.751,1.8248,1.9809,2.1076,2.1728,2.1991,2.2285,2.2572,2.2452,2.2352,2.2352,2.2512,2.2605,2.2605,2.2772,2.2806,2.2679,2.2679,2.2619,2.2498,2.2492,2.2492,2.2492,2.2151,2.1924,2.1797,2.145,2.1229,2.1109,2.1109,2.1109,2.1076,2.0661,2.0388,2.0187,0.0,0.0,0.0,0.0,1.8784,1.8404,1.7796,1.7582,1.7555,1.7434,1.7186,1.6834,1.6547,1.6246,1.5985,1.5865,1.5784,1.5784,1.5784,1.5784,1.5784,1.5784,1.5698,1.5464,1.5102,1.4874,1.4583,1.4168,1.4088,0.0,1.4088,1.4088,1.4088,1.4088,1.4088,1.4088,1.4088,1.3681,1.3413,1.3586,1.3106,1.2784,1.2784,1.267,0.0,0.0,0.0,1.1269,1.1069,1.0894,0.0,0.0,0.0,0.0,0.0,0.0,0.0,0.0,1.0459,0.978,0.0,0.0,0.0,0.0,0.0,0.0,0.0,0.0,0.0,0.0,0.0,0.0,0.0,0.0,0.0,0.0,1.8971,1.9311,1.8545,2.0004,2.1299,2.1648,2.2131,2.2572,2.2839,2.2928,2.2928,2.2928,2.2928,2.2846,2.2881,2.2812,0.0,0.0,0.0,2.2245,2.1991,2.1984,2.1984,2.1984,2.1951,2.1804,2.1614,2.1581,2.1363,2.1109,2.1109,2.1089,2.1015,2.0461,2.0133,2.0107,1.9853,1.9593,1.9357,1.8704,1.849,1.8404,1.7796,0.0,0.0,1.7582,1.744,1.7146,1.6794,1.6506,1.6213,1.5912,1.5784,1.5784,1.5784,1.5784,1.5784,1.5784,1.5731,1.5591,1.5122,1.4955,1.4754,1.4188,1.4088,1.4088,1.4088,1.4088,1.4088,1.4088,1.4088,1.4088,1.4088,1.3801,1.3553,1.3553,0.0,0.0,1.273,1.2452,1.2285,1.2258,1.2047,1.1538,1.072,1.1033,1.1244,1.1262,1.3072,1.3733,1.3139,1.4316,1.3979,1.2208,1.0615,1.0144,0.0,0.0,0.0,0.0,0.0,0.0,0.0,0.0,0.0,0.0,0.0,0.0,0.0,0.0,0.0,1.8361,1.858,1.8914,2.03,2.1085,2.113,2.005,2.1623,2.2799,2.2921,2.2928,2.2928,2.2928,2.2928,2.2759,2.2519,2.2505,2.2372,2.2078,2.2071,2.2044,2.1984,2.1984,2.1984,2.1984,2.175,0.0,2.1608,2.1303,2.1162,2.1109,2.1109,2.0975,2.0735,2.0381,1.996,1.9533,1.9472,1.9477,1.9357,1.8704,1.849,1.8404,1.7796,1.7582,1.7582,1.7582,1.744,1.7146,1.6794,1.6506,0.0,1.5912,1.5784,1.5784,1.5784,1.5784,1.5784,1.5784,1.5471,1.5149,1.5035,1.4633,1.4222,1.4108,1.4088,1.4088,1.4088,1.4088,1.4088,1.4088,1.4088,1.4088,1.4088,1.3621,1.3293,1.3293,1.2752,1.2385,1.2385,1.2338,1.2204,1.2,1.194,1.1683,1.1276,1.1755,1.2131,1.2219,1.2626,1.2786,1.2716,1.2461,1.2358,1.2446,1.1929,1.1296,0.0,0.0,0.0,0.0,0.0,0.0,0.0,0.0,0.0,0.0,0.0,1.3281,1.394,0.0,1.7956,1.9535,1.9609,1.9212,1.8581,2.031,2.139,2.0797,2.1821,2.2699,2.2846,2.2928,2.2799,2.2652,2.2639,2.2512,2.2218,2.2205,2.2071,2.1842,2.177,2.1697,2.155,2.155,2.155,2.1543,2.1396,2.1329,2.1329,2.1176,2.1109,2.1109,2.1109,2.0942,2.0641,2.0201,1.976,1.9424,1.9424,1.9424,1.9357,1.8704,1.849,1.8404,1.7796,1.7582,1.7582,1.7582,1.7482,1.7281,1.684,1.6607,1.64,1.5952,1.5784,1.5784,1.5784,1.5784,1.5784,1.5784,1.5611,1.5317,1.5068,1.478,1.4479,1.4148,1.4088,1.4088,1.4088,1.4088,1.4088,1.4088,1.4088,1.4088,1.4088,1.3701,1.3333,1.3227,1.2799,1.2465,1.2311,1.2305,1.2238,1.2098,1.2084,1.1951,1.1657,1.1931,1.2123,1.2193,1.2669,1.276,1.2463,1.259,1.2555,1.241,1.2284,1.1964,0.0,0.0,0.0,0.0,0.0,0.0,0.0,0.7702,0.7953,0.8228,1.1155,1.3821,1.4432,1.7328,1.9853,2.0561,2.0722,1.9877,1.7248,1.9539,2.1641,2.1864,2.2158,2.2425,2.2665,2.276,2.2592,2.2352,2.2338,2.2211,2.1917,2.1904,2.177,2.1541,2.1534,2.1349,2.1109,2.1109,2.1109,2.1109,2.1109,2.1109,2.1109,2.1109,2.1109,2.1102,2.0989,2.0808,2.0541,1.996,1.9579,1.9424,1.9424,1.939,1.9219,1.8691,1.8457,1.8323,1.7776,1.7582,1.7582,1.7582,1.7582,1.7475,1.6887,1.6707,1.658,1.5992,1.5784,1.5784,1.5784,1.5784,1.5784,1.5784,1.5738,1.5605,1.5122,1.4961,1.4723,1.4188,1.4088,1.4088,1.4088,1.4088,1.4088,1.4088,1.4088,1.4088,1.4088,1.3774,1.3427,1.3233,1.2918,1.2596,1.2325,1.2305,1.2305,1.2305,1.2305,1.2198,1.2,1.1986,1.1986,1.1986,1.2721,1.2849,1.2305,1.3062,1.3025,1.2305,1.2305,1.2305,0.7095,0.7021,0.7142,0.7587,0.7617,0.779,0.0,0.8855,0.8854,0.9344,1.2272,1.485,1.4927,1.8021,2.0561,2.0661,2.0895,2.0943,2.0583,2.0876,2.1269,2.1635,2.1857,2.2044,2.2078,2.2084,2.2071,2.2038,2.2031,2.1904,2.1681,2.1661,2.147,2.1169,2.1156,2.1142,2.1109,2.1109,2.1109,2.1109,2.1109,2.1109,2.1109,2.1109,2.1109,2.1082,2.0555,2.0253,2.0234,1.9659,1.9457,1.9424,1.9424,1.9205,1.8938,1.8611,1.8323,1.7995,1.7702,1.7582,1.7582,1.7582,1.7582,1.7475,1.6887,1.6707,1.658,1.5992,1.5784,1.5784,1.5784,1.5784,1.5784,1.5784,1.5631,1.5357,1.5075,1.4756,1.4476,1.4148,1.4088,1.4088,1.4088,1.4088,1.4088,1.4088,1.4088,1.4088,1.4088,1.3601,1.3247,1.3213,1.2692,1.2338,1.2305,1.2305,1.2305,1.2305,1.2305,1.2285,1.2258,1.2258,1.2258,1.2258,1.2361,1.2382,1.2305,1.2409,1.2409,1.2305,1.2305,1.2305,0.779,0.7797,0.7862,0.8133,0.8421,0.875,0.9184,0.9371,0.953,0.9748,1.2003,1.4182,1.5244,1.7594,1.9764,2.0797,2.1029,2.0722,1.9744,2.032,2.0519,1.9669,2.0415,2.1236,2.1917,2.1984,2.1917,2.175,2.1802,2.1603,2.1309,2.1296,2.1236,2.1109,2.1109,2.1109,2.1109,2.1109,2.1109,2.1109,2.1109,2.1109,2.1109,2.1109,2.1015,2.0822,2.0234,1.998,1.9947,1.9539,1.9424,1.9424,1.9424,1.9088,1.8685,1.8646,1.8372,1.7949,1.7689,1.7582,1.7582,1.7582,1.7582,1.7475,1.6887,1.6707,1.658,1.5992,1.5784,1.5784,1.5784,1.5784,1.5784,1.5784,1.5684,1.5524,1.5109,1.4914,1.4643,1.4175,1.4088,1.4088,1.4088,1.4088,1.4088,1.4088,1.4088,1.4088,1.4088,1.3721,1.3327,1.3018,1.2559,1.2305,1.2305,1.2305,1.2305,1.2305,1.2305,1.2305,1.2305,1.2305,1.2305,1.2305,1.2305,1.2305,1.2305,1.2305,1.2305,1.2305,1.2305,1.2305,0.8126,0.8204,0.8385,0.8654,0.9059,0.9456,0.9493,0.9734,0.9968,0.9974,1.1626,1.3598,1.5299,1.7083,1.89,2.0717,2.0989,2.0567,1.9407,2.0084,2.0227,1.8956,1.9659,2.0568,2.1423,2.1577,2.157,2.1443,2.143,2.1336,2.1122,2.1109,2.1109,2.1109,2.1029,2.1029,2.1109,2.1029,2.0989,2.0989,2.0989,2.0989,2.0989,2.0989,2.0828,2.0528,2.002,1.98,1.978,1.9486,1.9424,1.9424,1.9424,1.9028,1.8496,1.8606,1.8311,1.7883,1.7662,1.7582,1.7582,1.7582,1.7582,1.7475,1.6887,1.6707,1.658,1.5992,1.5784,1.5784,1.5784,1.5784,1.5784,1.5784,1.5784,1.5691,1.519,1.5068,1.4861,1.4302,1.4142,1.4088,1.4088,1.4088,1.4088,1.4088,1.4088,1.4088,1.4088,1.3754,1.332,1.2844,1.2516,1.2305,1.2305,1.2305,1.2305,1.2305,1.2305,1.2305,1.2305,1.2305,1.2305,1.2305,1.2305,1.2305,1.2305,1.2305,1.2305,1.2305,1.2305,1.2305,0.7865,0.8041,0.8463,0.9043,0.9367,0.9639,0.9778,1.0046,1.0226,1.0017,1.1537,1.3403,1.5013,1.6758,1.8533,2.0387,2.0688,2.0788,2.1006,2.0862,2.0675,2.0613,2.0353,2.0187,2.022,2.0548,2.0828,2.1102,2.1122,2.1122,2.1109,2.1109,2.1109,2.1109,2.0835,2.0822,2.1109,2.0828,2.0688,2.0688,2.0688,2.0688,2.0688,2.0688,2.0528,2.0227,1.9927,1.98,1.978,1.9486,1.9424,1.9424,1.9424,1.9011,1.8497,1.8304,1.7988,1.7595,1.7589,1.7582,1.7582,1.7582,1.7582,1.7475,1.6887,1.6707,1.658,1.5992,1.5784,1.5784,1.5784,1.5784,1.5784,1.5784,1.5784,1.5698,1.5444,1.5164,1.4914,1.4563,1.4282,1.4088,1.4088,1.4088,1.4088,1.4088,1.4088,1.4088,1.4088,1.3581,1.31,1.2817,1.2516,1.2305,1.2305,1.2305,1.2305,1.2305,1.2305,1.2305,1.2305,1.2305,1.2305,1.2305,1.2305,1.2305,1.2305,1.2305,1.2305,1.2305,1.2305,1.2305,0.834,0.8703,0.9079,0.9381,0.9758,1.0066,1.0114,1.0205,1.0236,1.0017,1.0435,1.1638,1.4138,1.5248,1.6768,1.9613,2.0421,2.0775,2.1069,2.0862,2.0601,2.0408,2.012,1.9947,1.9947,2.0207,2.0508,2.0802,2.0822,2.0909,2.1096,2.1109,2.1022,2.0828,2.0728,2.0628,2.0528,2.0428,2.0381,2.0381,2.0381,2.0381,2.0374,2.018,2.004,1.9927,1.9639,1.9512,1.9506,1.9464,1.9424,1.9424,1.9424,1.9021,1.8539,1.8599,1.8164,1.7582,1.7582,1.7582,1.7582,1.7582,1.7582,1.7475,1.6887,1.6707,1.658,1.5992,1.5784,1.5784,1.5784,1.5784,1.5784,1.5784,1.5784,1.5752,1.5458,1.517,1.4921,1.4583,1.4282,1.4088,1.4088,1.4088,1.4088,1.4088,1.4088,1.4088,1.4088,1.3741,1.3347,1.3086,1.2817,1.2556,1.2318,1.2305,1.2305,1.2305,1.2305,1.2305,1.2305,1.2305,1.2305,1.2305,1.2305,1.2305,1.2305,1.2305,1.2305,1.2305,1.2543,1.2636,0.8828,0.9201,0.9527,0.9785,1.0066,1.0266,1.0212,1.0154,1.0059,0.9852,0.994,1.0837,1.3257,1.4173,1.5637,1.8815,1.9733,2.0261,2.0869,2.0702,2.0448,2.0254,1.9887,1.9646,1.9646,1.9813,2.0087,2.0488,2.0514,2.0601,2.0782,2.0795,2.0715,2.0528,2.0414,2.0321,2.0173,2.0127,2.008,2.008,2.008,2.0027,1.992,1.9833,1.974,1.9633,1.9446,1.9424,1.9424,1.9424,1.9424,1.9417,1.9252,1.8928,1.8519,1.8486,1.8138,1.7582,1.7582,1.7582,1.7582,1.7582,1.7515,1.7335,1.6854,1.6633,1.6453,1.5917,1.5784,1.5784,1.5784,1.5784,1.5784,1.5784,1.5784,1.5731,1.5591,1.5324,1.503,1.4736,1.4442,1.4208,1.4108,1.4088,1.4088,1.4088,1.4088,1.4088,1.4088,1.3828,1.3533,1.3347,1.3032,1.2703,1.2516,1.2365,1.2305,1.2305,1.2305,1.2305,1.2305,1.2305,1.2305,1.2305,1.2305,1.2351,1.2496,1.2496,1.2518,1.2632,1.2819,1.2951,0.9273,0.952,0.9758,1.0175,1.028,1.0239,1.0011,0.9845,0.97,0.9398,1.0032,1.1078,1.2441,1.3569,1.5178,1.793,1.8718,1.9372,2.0514,2.0434,2.0193,2.0173,1.9733,1.9444,1.9424,1.9424,1.9593,2.0147,2.014,2.0221,2.0173,2.0173,2.0167,2.0153,1.9947,1.9927,2.0187,1.9913,1.978,1.978,1.978,1.9633,1.9437,1.9653,1.9626,1.9424,1.9424,1.9424,1.9424,1.9424,1.9424,1.9397,1.9038,1.8744,1.8457,1.8156,1.7849,1.7582,1.7582,1.7582,1.7582,1.7582,1.744,1.7146,1.6794,1.6506,1.6213,1.5912,1.5784,1.5784,1.5784,1.5784,1.5784,1.5784,1.5784,1.5784,1.5784,1.5605,1.5311,1.5068,1.471,1.4409,1.4135,1.4088,1.4088,1.4088,1.4088,1.4088,1.4088,1.3841,1.362,1.36,1.3133,1.2817,1.279,1.2536,1.2331,1.2305,1.2318,1.2318,1.2305,1.2305,1.2311,1.2325,1.2325,1.2472,1.2811,1.2811,1.2958,1.3213,1.3227,1.3233,0.9459,0.99,1.027,1.028,1.028,1.0209,0.9941,0.9591,0.9208,0.8794,0.9198,0.9926,1.0852,1.2794,1.492,1.6863,1.8517,1.9833,2.0575,2.0608,2.0481,2.0261,1.9913,1.9606,1.945,1.9424,1.9491,1.9579,1.9786,2.0007,2.016,2.0173,2.0134,1.9913,1.984,1.9733,1.9593,1.9512,1.9479,1.9479,1.9479,1.9497,1.943,1.9446,1.9432,1.9424,1.9424,1.9424,1.9424,1.9424,1.9424,1.9397,1.9038,1.8744,1.8512,1.8408,1.8036,1.7582,1.7582,1.7582,1.7582,1.7582,1.744,1.7146,1.6794,1.6506,1.6213,1.5912,1.5784,1.5784,1.5784,1.5784,1.5784,1.5784,1.5784,1.5784,1.5784,1.5605,1.5311,1.5068,1.4549,1.4175,1.4102,1.4088,1.4088,1.4088,1.4088,1.4088,1.4088,1.4021,1.3888,1.3626,1.3467,1.3233,1.2824,1.2893,1.2786,1.2331,1.2549,1.2569,1.2311,1.2305,1.2405,1.2663,1.267,1.2824,1.3093,1.3093,1.3133,1.3213,1.3387,1.3493,0.9897,1.029,1.0541,1.0334,1.0229,1.0049,0.9547,0.9469,0.9383,0.8703,0.946,1.0312,1.0538,1.1992,1.3821,1.582,1.7159,1.8525,2.0093,2.0401,2.0421,2.0193,1.9973,1.9686,1.9457,1.9424,1.9424,1.9424,1.9519,1.9679,1.9846,1.9853,1.978,1.9619,1.9606,1.9533,1.9424,1.9424,1.9424,1.9424,1.9424,1.9424,1.9424,1.9424,1.9424,1.9424,1.9424,1.9424,1.9424,1.9424,1.9424,1.9325,1.8898,1.87,1.8568,1.8252,1.7908,1.7582,1.7582,1.7582,1.7582,1.7582,1.7301,1.6978,1.676,1.6413,1.6046,1.5831,1.5784,1.5784,1.5784,1.5784,1.5784,1.5784,1.5784,1.5784,1.5784,1.5705,1.5464,1.5089,1.4489,1.4088,1.4088,1.4088,1.4088,1.4088,1.4088,1.4088,1.4088,1.4088,1.4021,1.3854,1.368,1.3467,1.3173,1.318,1.3066,1.2726,1.2859,1.2872,1.2705,1.2699,1.2779,1.2985,1.2991,1.31,1.336,1.336,1.3467,1.3601,1.3761,1.3841,1.0375,1.0605,1.0649,1.0354,1.0148,0.9761,0.9023,0.936,0.9596,0.8778,1.0041,1.118,1.0726,1.1329,1.262,1.4909,1.5582,1.672,1.935,1.996,2.0134,2.0113,1.992,1.9646,1.9392,1.9424,1.9424,1.9424,1.9424,1.9424,1.9424,1.9424,1.9424,1.9424,1.9424,1.9424,1.9424,1.9424,1.9424,1.9424,1.9424,1.9424,1.9424,1.9424,1.9424,1.9424,1.9424,1.9424,1.9424,1.9424,1.9345,1.9252,1.8704,1.8588,1.8611,1.7856,1.7582,1.7582,1.7582,1.7582,1.7582,1.7582,1.7208,1.676,1.6714,1.6319,1.5879,1.5791,1.5784,1.5784,1.5784,1.5784,1.5784,1.5784,1.5784,1.5784,1.5784,1.5751,1.5625,1.5117,1.4593,1.4142,1.4142,1.4115,1.4088,1.4088,1.4088,1.4088,1.4088,1.4088,1.4088,1.4088,1.3854,1.3646,1.3606,1.3447,1.3293,1.3213,1.3247,1.3253,1.3213,1.3213,1.3227,1.3267,1.3267,1.3373,1.366,1.366,1.3834,1.4088,1.4088,1.4088,1.0402,1.0605,1.0649,1.0354,1.007,0.9666,0.892,0.8928,0.89,0.8245,0.9301,1.0222,0.9788,1.1471,1.3336,1.4479,1.5912,1.7529,1.9232,1.9486,1.9606,1.9846,1.9619,1.9419,1.943,1.9424,1.9424,1.9424,1.9424,1.9424,1.9424,1.9424,1.9424,1.9424,1.9424,1.9424,1.9424,1.9424,1.9424,1.9424,1.9424,1.9424,1.9424,1.9424,1.9424,1.9424,1.9424,1.9424,1.9424,1.9424,1.9225,1.8965,1.8624,1.8343,1.8083,1.7716,1.7582,1.7582,1.7582,1.7582,1.7582,1.7582,1.74,1.7079,1.678,1.6466,1.6146,1.5899,1.5784,1.5784,1.5784,1.5784,1.5784,1.5784,1.5784,1.5784,1.5784,1.5645,1.5444,1.5344,1.4843,1.4442,1.4442,1.4249,1.4088,1.4088,1.4088,1.4088,1.4088,1.4088,1.4088,1.4088,1.4041,1.3908,1.3626,1.3821,1.3728,1.324,1.3393,1.342,1.322,1.3213,1.328,1.3527,1.3527,1.3673,1.4008,1.4008,1.4035,1.4088,1.4088,1.4088,1.0432,1.0548,1.0531,1.0232,0.9815,0.9239,0.8336,0.8629,0.8886,0.8023,0.9187,1.0238,0.9867,1.073,1.1984,1.3571,1.4379,1.5698,1.8293,1.8671,1.8945,1.9706,1.9679,1.9533,1.9379,1.9424,1.9424,1.9424,1.9424,1.9424,1.9424,1.9424,1.9424,1.9424,1.9424,1.9424,1.9424,1.9424,1.9424,1.9424,1.9424,1.9424,1.9424,1.9424,1.9424,1.9424,1.9424,1.9424,1.9424,1.9424,1.9192,1.8891,1.8604,1.8317,1.807,1.7702,1.7582,1.7582,1.7582,1.7582,1.7582,1.7582,1.744,1.7146,1.6794,1.6506,1.6213,1.5912,1.5784,1.5784,1.5784,1.5784,1.5784,1.5784,1.5784,1.5784,1.5784,1.5605,1.5398,1.5398,1.505,1.4703,1.4543,1.4402,1.4262,1.4108,1.4088,1.4088,1.4088,1.4088,1.4088,1.4088,1.4088,1.4028,1.3888,1.4008,1.3968,1.3687,1.3794,1.3814,1.3667,1.3667,1.3734,1.3874,1.3874,1.3941,1.4088,1.4088,1.4088,1.4088,1.4088,1.4088,1.0409,1.047,1.0412,1.0021,0.9551,0.8842,0.7831,0.8415,0.8879,0.7884,0.9142,1.0352,1.0147,1.0054,1.0719,1.2791,1.2945,1.3967,1.7278,1.7856,1.8343,1.9479,1.9666,1.9619,1.945,1.9424,1.9424,1.9424,1.9424,1.9424,1.9424,1.9424,1.9424,1.9424,1.9424,1.9424,1.9424,1.9424,1.9424,1.9424,1.9424,1.9424,1.9424,1.9424,1.9424,1.9424,1.9424,1.9424,1.9366,1.9299,1.9098,1.8804,1.851,1.8271,1.8043,1.7728,1.7582,1.7582,1.7582,1.7582,1.7582,1.7582,1.744,1.7146,1.6794,1.6506,1.6213,1.5912,1.5784,1.5784,1.5784,1.5784,1.5784,1.5784,1.5784,1.5784,1.5784,1.5651,1.5491,1.5491,1.5257,1.4983,1.475,1.4603,1.4442,1.4215,1.4128,1.4088,1.4088,1.4088,1.4088,1.4088,1.4088,1.4088,1.4088,1.4088,1.4088,1.4088,1.4088,1.4088,1.4088,1.4088,1.4088,1.4088,1.4088,1.4088,1.4088,1.4088,1.4088,1.4088,1.4088,1.4088,1.0259,1.0392,1.0388,0.9951,0.9395,0.872,0.7807,0.8136,0.8486,0.7821,0.8825,0.9833,1.0074,1.0327,1.1035,1.2596,1.3194,1.4276,1.6484,1.7288,1.7969,1.8898,1.9245,1.9457,1.943,1.9424,1.9424,1.9424,1.9424,1.9424,1.9424,1.9424,1.9424,1.9424,1.9424,1.9424,1.9424,1.9424,1.9424,1.9424,1.9424,1.9424,1.9424,1.9424,1.9424,1.9424,1.9424,1.9424,1.9403,1.9078,1.8791,1.8504,1.8149,1.7896,1.7675,1.7595,1.7582,1.7582,1.7582,1.7582,1.7582,1.7582,1.744,1.7146,1.6794,1.6506,1.6213,1.5912,1.5784,1.5784,1.5784,1.5784,1.5784,1.5784,1.5784,1.5784,1.5784,1.5758,1.5744,1.5744,1.5558,1.5351,1.5317,1.4877,1.4509,1.4482,1.4255,1.4088,1.4088,1.4088,1.4088,1.4088,1.4088,1.4088,1.4088,1.4088,1.4088,1.4088,1.4088,1.4088,1.4088,1.4088,1.4088,1.4088,1.4088,1.4088,1.4088,1.4088,1.4088,1.4088,1.4088,1.4088,0.9941,1.0114,1.0141,0.9781,0.9174,0.8428,0.7529,0.743,0.754,0.737,0.8121,0.9013,0.9741,0.9983,1.035,1.1202,1.1223,1.1919,1.4145,1.482,1.5812,1.7889,1.8544,1.8978,1.9332,1.9424,1.9424,1.9424,1.9424,1.9424,1.9424,1.9424,1.9424,1.9424,1.9424,1.9424,1.9424,1.9424,1.9424,1.9424,1.9424,1.9424,1.9424,1.9424,1.9424,1.9424,1.9424,1.9265,1.9092,1.8971,1.8644,1.8217,1.8042,1.7856,1.7582,1.7582,1.7582,1.7582,1.7582,1.7582,1.7582,1.7582,1.7268,1.686,1.674,1.6506,1.6213,1.5912,1.5784,1.5784,1.5784,1.5784,1.5784,1.5784,1.5784,1.5784,1.5784,1.5784,1.5784,1.5784,1.5684,1.5605,1.5424,1.5057,1.473,1.4543,1.4275,1.4088,1.4088,1.4088,1.4334,1.497,1.5054,1.4817,1.4166,1.4692,1.5054,1.5054,1.5054,1.5054,1.5054,1.5054,1.4776,1.413,1.4088,1.4088,1.4088,1.4088,1.4088,1.4088,1.4088,1.4088,0.9544,0.9768,0.9778,0.9496,0.8876,0.8126,0.7227,0.6928,0.6835,0.677,0.7451,0.8299,0.9122,0.9295,0.9485,0.9999,0.9679,1.0216,1.2613,1.3215,1.439,1.7025,1.7782,1.833,1.8918,1.9212,1.9424,1.9424,1.9424,1.9424,1.9424,1.9285,1.9279,1.9424,1.9424,1.9424,1.9424,1.9424,1.9424,1.9424,1.9424,1.9424,1.9424,1.9424,1.9424,1.9366,1.9279,1.9118,1.8911,1.8738,1.8362,1.7982,1.7896,1.7776,1.7582,1.7582,1.7582,1.7582,1.7582,1.7582,1.7582,1.7582,1.7181,1.6707,1.6707,1.644,1.6099,1.5885,1.5784,1.5784,1.5784,1.5784,1.5784,1.5784,1.5784,1.5784,1.5784,1.5784,1.5784,1.5784,1.5784,1.5718,1.5558,1.5284,1.499,1.4696,1.4402,1.4182,1.4095,1.4088,1.437,1.5137,1.5786,1.5869,1.5103,1.5752,1.6191,1.6191,1.6191,1.6191,1.6191,1.5861,1.5338,1.4573,1.425,1.4088,1.4088,1.4088,1.4088,1.4088,1.4088,1.4333,0.9135,0.9384,0.9507,0.8999,0.8437,0.78,0.7058,0.6804,0.6559,0.6104,0.6922,0.7805,0.8153,0.8311,0.8621,0.9229,0.9186,0.9987,1.2457,1.3145,1.4201,1.6474,1.7032,1.7402,1.7949,1.8851,1.9424,1.9424,1.9424,1.9424,1.9424,1.9092,1.9065,1.9417,1.9424,1.9424,1.9424,1.9424,1.9424,1.9424,1.9424,1.9424,1.9424,1.9424,1.9424,1.9352,1.9058,1.8925,1.8821,1.8242,1.8002,1.7962,1.7709,1.7589,1.7582,1.7582,1.7582,1.7582,1.7582,1.7582,1.7582,1.7582,1.7181,1.6707,1.6707,1.6299,1.5784,1.5784,1.5784,1.5784,1.5784,1.5784,1.5784,1.5784,1.5784,1.5784,1.5784,1.5784,1.5784,1.5784,1.5784,1.5784,1.5778,1.5585,1.5291,1.5048,1.4703,1.4409,1.4122,1.4088,1.4088,1.413,1.6,1.7302,1.7261,1.7302,1.7302,1.7302,1.7302,1.7302,1.7302,1.6273,1.5696,1.5696,1.4657,1.4088,1.4088,1.4088,1.4088,1.4088,1.4088,1.4895,0.8157,0.8462,0.8587,0.8136,0.7801,0.7387,0.6644,0.6199,0.5959,0.5986,0.6094,0.6616,0.7946,0.7633,0.7803,0.9746,0.9395,0.9406,1.0968,1.2644,1.4102,1.506,1.725,1.88,1.8931,1.9205,1.9279,1.9078,1.9065,1.8978,1.8778,1.8677,1.8851,1.9352,1.9172,1.9158,1.9424,1.9424,1.9424,1.9424,1.9424,1.9424,1.9424,1.9424,1.9424,1.9352,1.9052,1.8811,1.8597,1.8155,1.7869,1.7716,1.7622,1.7582,1.7582,1.7582,1.7582,1.7582,1.7582,1.7582,1.7549,1.7407,1.7021,1.6667,1.6473,1.6139,1.5784,1.5784,1.5784,1.5784,1.5784,1.5784,1.5784,1.5784,1.5784,1.5784,1.5784,1.5784,1.5784,1.5784,1.5784,1.5784,1.5784,1.5585,1.5364,1.5277,1.501,1.4716,1.4422,1.4382,1.4844,1.6147,1.6895,1.7009,1.6273,1.7577,1.847,1.847,1.847,1.847,1.847,1.7374,1.6437,1.5696,1.4657,1.4088,1.4088,1.4088,1.4188,1.4389,1.5468,1.6286,0.7417,0.7784,0.7923,0.7526,0.7272,0.6936,0.6282,0.5739,0.5432,0.548,0.5506,0.585,0.6981,0.6688,0.6934,0.8915,0.8627,0.8809,1.0684,1.2485,1.4064,1.5364,1.7499,1.8911,1.9025,1.9296,1.9245,1.8945,1.8925,1.8798,1.8504,1.8384,1.8544,1.9018,1.8858,1.8898,1.9199,1.9199,1.9259,1.9424,1.9424,1.9424,1.9424,1.9424,1.9305,1.9185,1.8891,1.8591,0.0,1.7996,1.7756,1.7582,1.7582,1.7582,1.7582,1.7582,1.7582,1.7582,1.7582,1.7582,1.7535,1.7293,1.6924,1.6486,1.6192,1.5979,1.5784,1.5784,1.5784,1.5784,1.5784,1.5784,1.5784,1.5784,1.5784,1.5784,1.5784,1.5784,1.5784,1.5784,1.5784,1.5784,1.5784,1.5678,1.5524,1.5418,1.5244,1.5017,1.473,1.4689,1.5078,1.6137,1.7013,1.7163,1.637,1.8341,1.9599,1.9599,1.9599,1.9599,1.9599,1.855,1.7684,1.7195,1.5639,1.4922,1.5126,1.4668,1.4509,1.4733,1.6764,1.7768,0.0,0.7248,0.7411,0.7048,0.6817,0.6464,0.5874,0.5413,0.0,0.4748,0.5121,0.55,0.5538,0.5696,0.6171,0.726,0.7377,0.8322,1.1282,1.2485,1.4106,1.6932,1.7776,1.8195,1.8524,1.9025,1.9212,1.8918,1.8871,1.8738,1.8444,1.8163,1.8089,1.8417,1.8424,1.8577,1.8891,1.8911,1.9052,1.9363,1.941,1.9417,1.9332,1.9332,1.9185,1.8905,1.8597,1.8303,1.7969,1.7709,1.7582,1.7582,1.7582,1.7582,1.7582,1.7582,1.7582,1.7582,1.7582,1.7569,1.7502,1.7239,1.6757,1.6192,1.5912,1.5784,1.5784,1.5784,1.5784,1.5784,1.5784,1.5784,1.5784,1.5784,1.5784,1.5784,1.5784,1.5784,1.5784,1.5784,1.5784,1.5784,1.5784,1.5784,1.5738,1.5471,1.5431,1.5317,1.5075,1.5042,1.4921,1.467,1.6576,1.7746,1.7523,1.9417,2.0635,2.0605,2.0635,2.0654,2.0654,1.9606,1.9223,1.9611,1.7433,1.6455,1.6807,1.5672,1.5125,1.5093,1.7861,1.9135,0.5757,0.0,0.6298,0.5884,0.5817,0.5725,0.0,0.5012,0.4884,0.4728,0.5121,0.5617,0.598,0.5902,0.6471,0.8519,0.9062,0.9344,0.9691,1.1848,1.459,1.782,1.8698,1.9085,1.9158,1.9078,1.8905,1.8617,1.8384,1.8062,1.7809,1.7729,1.7722,1.7796,1.7796,1.805,1.8591,1.8811,1.8851,1.8704,1.9152,1.9252,1.9025,1.9025,1.8991,1.8891,1.8377,1.8055,1.7969,1.7709,1.7582,1.7582,1.7582,1.7582,1.7582,1.7582,1.7582,1.7582,1.7582,1.7494,1.7219,1.6697,1.6233,1.5919,1.5804,1.5784,1.5784,1.5784,1.5784,1.5784,1.5784,1.5784,1.5784,1.5784,1.5784,1.5784,1.5784,1.5784,1.5784,1.5784,1.5784,1.5784,1.5784,1.5784,1.5758,1.5738,1.5732,1.5625,1.5331,1.5297,1.5534,1.6045,1.7388,1.8548,1.9298,2.0414,2.0937,2.0625,2.0889,2.1074,2.1074,2.0025,1.967,2.006,1.8701,1.7593,1.6807,1.6706,1.6213,1.5389,1.8123,1.9418,0.5176,0.5583,0.5919,0.564,0.5627,0.5589,0.5209,0.4962,0.4772,0.4644,0.4849,0.5246,0.599,0.5709,0.6123,0.8443,0.8872,0.9537,1.1263,1.3213,1.5505,1.8354,1.9092,1.9424,1.9424,1.9098,1.8804,1.851,1.8217,1.7856,1.7602,1.7582,1.7582,1.7582,1.7582,1.7809,1.8283,1.8388,1.851,1.8497,1.8811,1.8878,1.8724,1.8724,1.8651,1.8448,1.8129,1.7909,1.7822,1.7649,1.7582,1.7582,1.7582,1.7582,1.7582,1.7582,1.7582,1.7582,1.7582,1.7301,1.6924,1.6469,1.6072,1.5784,1.5784,1.5784,1.5784,1.5784,1.5784,1.5784,1.5784,1.5784,1.5784,1.5784,1.5784,1.5784,1.5784,1.5784,1.5784,1.5784,1.5784,1.5784,1.5784,1.5784,1.5784,1.5784,1.5784,1.5772,1.5618,1.5591,1.5703,1.6017,1.7085,1.8153,1.9196,2.0322,2.1028,2.1201,2.1396,2.1533,2.1533,2.0974,2.0597,2.0425,2.0043,1.9255,1.8021,1.7629,1.7086,1.6515,1.8539,1.9497,0.4999,0.5447,0.5905,0.5722,0.5718,0.5684,0.5399,0.503,0.4687,0.4586,0.4643,0.4989,0.5809,0.5536,0.5809,0.7679,0.7877,0.9317,1.3722,1.4907,1.6133,1.8467,1.9052,1.9232,1.9232,1.8965,1.8691,1.8444,1.8143,1.7862,1.7595,1.7582,1.7582,1.7582,1.7582,1.7709,1.7916,1.7969,1.8095,1.835,1.845,1.847,1.8424,1.8424,1.8283,1.7989,1.7942,1.7822,1.7582,1.7582,1.7582,1.7582,1.7582,1.7582,1.7582,1.7582,1.7582,1.7575,1.7528,1.7161,1.666,1.6366,1.6072,1.5784,1.5784,1.5784,1.5784,1.5784,1.5784,1.5784,1.5784,1.5784,1.5784,1.5784,1.5784,1.5784,1.5784,1.5784,1.5784,1.5784,1.5784,1.5784,1.5784,1.5784,1.5784,1.5784,1.5784,1.5784,1.5784,1.5784,1.5684,1.5491,1.6437,1.7484,1.8474,1.9905,2.1155,2.2016,2.2021,2.1982,2.1982,2.2041,2.1753,2.1067,2.1396,2.098,1.9761,1.8549,1.787,1.7738,1.8956,1.9497,0.5228,0.5559,0.5711,0.5186,0.5342,0.5511,0.5084,0.4935,0.4877,0.4853,0.5322,0.5766,0.5836,0.6232,0.6673,0.6907,0.7314,0.9218,1.3807,1.4118,1.4894,1.7797,1.8444,1.8624,1.8624,1.8357,1.8109,1.8062,1.7829,1.7629,1.7589,1.7582,1.7582,1.7582,1.7582,1.7602,1.7655,1.7916,1.7936,1.7729,1.8243,1.8357,1.8062,1.8062,1.8035,1.7975,1.7769,1.7622,1.7582,1.7582,1.7582,1.7582,1.7582,1.7582,1.7582,1.7582,1.7582,1.7549,1.7353,1.6994,1.666,1.6366,1.6072,1.5784,1.5784,1.5784,1.5784,1.5784,1.5784,1.5784,1.5784,1.5784,1.5784,1.5784,1.5784,1.5784,1.5784,1.5784,1.5784,1.5784,1.5784,1.5784,1.5784,1.5784,1.5784,1.5784,1.5784,1.5784,1.5784,1.5784,1.5764,1.5718,1.6872,1.8041,1.9241,2.0498,2.168,2.2853,2.2617,2.2412,2.2412,2.2711,2.2838,2.2722,2.279,2.2217,2.1025,1.9807,1.868,1.7738,1.8956,1.9497,0.487,0.5245,0.5532,0.5226,0.5616,0.603,0.5708,0.5515,0.5376,0.5298,0.5538,0.5944,0.6404,0.6555,0.6748,0.7207,0.7672,0.9295,1.3147,1.3583,1.4645,1.7618,1.831,1.849,1.849,1.8223,1.7995,1.7995,1.7756,1.7582,1.7582,1.7582,1.7582,1.7582,1.7582,1.7582,1.7582,1.7722,1.7722,1.7589,1.7862,1.7929,1.7796,1.7796,1.7796,1.7789,1.7642,1.7582,1.7582,1.7582,1.7582,1.7582,1.7582,1.7582,1.7582,1.7582,1.7582,1.7542,1.73,1.7005,1.666,1.6366,1.6072,1.5784,1.5784,1.5784,1.5784,1.5784,1.5784,1.5784,1.5784,1.5784,1.5784,1.5784,1.5784,1.5784,1.5784,1.5784,1.5784,1.5784,1.5784,1.5784,1.5784,1.5784,1.5784,1.5784,1.5784,1.5784,1.5784,1.5784,1.5784,1.5784,1.6943,1.8187,1.9405,2.0621,2.18,2.3003,2.2916,2.2808,2.2808,2.2994,2.3091,2.3091,2.3091,2.2818,2.2262,2.1078,2.0169,1.967,2.0215,2.0124,0.4706,0.504,0.5412,0.5481,0.5931,0.6351,0.6351,0.6074,0.5854,0.585,0.582,0.6053,0.6865,0.6787,0.691,0.7773,0.8174,0.9492,1.2634,1.3309,1.4568,1.7526,1.8136,1.8277,1.8277,1.8076,1.7889,1.7889,1.7716,1.7582,1.7582,1.7582,1.7582,1.7582,1.7582,1.7582,1.7582,1.7582,1.7582,1.7582,1.7582,1.7582,1.7582,1.7582,1.7582,1.7582,1.7582,1.7582,1.7582,1.7582,1.7582,1.7582,1.7582,1.7582,1.7582,1.7582,1.7582,1.7542,1.73,1.7005,1.666,1.6366,1.6072,1.5784,1.5784,1.5784,1.5784,1.5784,1.5784,1.5784,1.5784,1.5784,1.5784,1.5784,1.5784,1.5784,1.5784,1.5784,1.5784,1.5784,1.5784,1.5784,1.5784,1.5784,1.5784,1.5784,1.5784,1.5784,1.5784,1.5784,1.5784,1.5784,1.6662,1.7863,1.936,2.0845,2.2129,2.3047,2.3091,2.3091,2.3091,2.3091,2.3091,2.3091,2.3091,2.3091,2.3091,2.1889,2.1293,2.1293,2.1293,2.0853,0.5218,0.5361,0.546,0.5701,0.581,0.5956,0.6405,0.6227,0.6091,0.6536,0.6508,0.6494,0.6688,0.7156,0.7665,0.8157,0.8486,0.9743,1.2832,1.3308,1.4406,1.7285,1.7635,1.7649,1.7649,1.7629,1.7615,1.7615,1.7595,1.7582,1.7582,1.7582,1.7582,1.7582,1.7582,1.7582,1.7582,1.7582,1.7582,1.7582,1.7582,1.7582,1.7582,1.7582,1.7582,1.7582,1.7582,1.7582,1.7582,1.7582,1.7582,1.7582,1.7582,1.7582,1.7582,1.7582,1.7582,1.7542,1.73,1.7005,1.666,1.6366,1.6072,1.5784,1.5784,1.5784,1.5784,1.5784,1.5784,1.5784,1.5784,1.5784,1.5784,1.5784,1.5784,1.5784,1.5784,1.5784,1.5784,1.5784,1.5784,1.5784,1.5784,1.5784,1.5784,1.5784,1.5784,1.5784,1.5784,1.5784,1.5784,1.5784,1.5879,1.6889,1.9306,2.1632,2.3003,2.3091,2.3091,2.3091,2.3091,2.3091,2.3091,2.3091,2.3091,2.3091,2.3091,2.1889,2.1293,2.1293,2.1293,2.1509,0.4928,0.518,0.5443,0.5616,0.5878,0.6218,0.6532,0.6742,0.6939,0.7204,0.7214,0.7163,0.7126,0.7455,0.7851,0.8211,0.852,0.9773,1.2857,1.3318,1.4395,1.7259,1.7582,1.7582,1.7582,1.7582,1.7582,1.7582,1.7582,1.7582,1.7582,1.7582,1.7582,1.7582,1.7582,1.7582,1.7582,1.7582,1.7582,1.7582,1.7582,1.7582,1.7582,1.7582,1.7582,1.7582,1.7582,1.7582,1.7582,1.7582,1.7582,1.7582,1.7582,1.7582,1.7582,1.7582,1.7582,1.7569,1.7455,1.7108,1.6687,1.658,1.6219,1.5784,1.5784,1.5784,1.5784,1.5784,1.5784,1.5784,1.5784,1.5784,1.5784,1.5784,1.5784,1.5784,1.5784,1.5784,1.5784,1.5784,1.5784,1.5784,1.5784,1.5784,1.5784,1.5784,1.5784,1.5784,1.5784,1.5784,1.5784,1.5784,1.7163,1.8756,2.0486,2.2129,2.3091,2.3091,2.3091,2.3091,2.3091,2.3091,2.3091,2.3091,2.3091,2.3091,2.3091,2.2633,2.258,2.2837,2.2837,2.2692,0.4775,0.502,0.5368,0.5538,0.5965,0.6402,0.6753,0.7115,0.7501,0.775,0.7733,0.7634,0.7529,0.7716,0.7967,0.8228,0.856,0.9837,1.2866,1.3318,1.4395,1.7259,1.7582,1.7582,1.7582,1.7582,1.7582,1.7582,1.7582,1.7582,1.7582,1.7582,1.7582,1.7582,1.7582,1.7582,1.7582,1.7582,1.7582,1.7582,1.7582,1.7582,1.7582,1.7582,1.7582,1.7582,1.7582,1.7582,1.7582,1.7582,1.7582,1.7582,1.7582,1.7582,1.7582,1.7582,1.7582,1.7569,1.7475,1.7121,1.6693,1.66,1.6233,1.5784,1.5784,1.5784,1.5784,1.5784,1.5784,1.5784,1.5784,1.5784,1.5784,1.5784,1.5784,1.5784,1.5784,1.5784,1.5784,1.5784,1.5784,1.5784,1.5784,1.5784,1.5784,1.5784,1.5784,1.5784,1.5784,1.5784,1.5967,1.6339,1.8265,1.9988,2.1203,2.2403,2.3091,2.3091,2.3091,2.3091,2.3091,2.3091,2.3091,2.3091,2.3091,2.3091,2.3091,2.3091,2.3315,2.3789,2.3789,2.3662,0.4928,0.4992,0.5177,0.5518,0.5972,0.6463,0.6967,0.7265,0.7593,0.82,0.8031,0.7818,0.7814,0.7887,0.8092,0.8245,0.8645,0.9915,1.2886,1.3318,1.4395,1.7259,1.7582,1.7582,1.7582,1.7582,1.7582,1.7582,1.7582,1.7582,1.7582,1.7582,1.7582,1.7582,1.7582,1.7582,1.7582,1.7582,1.7582,1.7582,1.7582,1.7582,1.7582,1.7582,1.7582,1.7582,1.7582,1.7582,1.7582,1.7582,1.7582,1.7582,1.7582,1.7582,1.7582,1.7582,1.7582,1.7542,1.73,1.7005,1.666,1.6366,1.6072,1.5784,1.5784,1.5784,1.5784,1.5784,1.5784,1.5784,1.5784,1.5784,1.5784,1.5784,1.5784,1.5784,1.5784,1.5784,1.5784,1.5784,1.5784,1.5784,1.5784,1.5784,1.5784,1.5784,1.5784,1.5784,1.5784,1.5784,1.6298,1.7552,1.878,1.9988,2.1203,2.2403,2.3091,2.3101,2.3091,2.3091,2.3091,2.3091,2.3091,2.3091,2.3091,2.3091,2.3101,2.3101,2.3369,2.3799,2.3799,2.4258,0.4928,0.5179,0.5525,0.5823,0.6393,0.7007,0.7499,0.7733,0.798,0.8479,0.8421,0.8218,0.7961,0.8099,0.8218,0.8313,0.8557,0.9834,1.2866,1.3318,1.4395,1.7259,1.7582,1.7582,1.7582,1.7582,1.7582,1.7582,1.7582,1.7582,1.7582,1.7582,1.7582,1.7582,1.7582,1.7582,1.7582,1.7582,1.7582,1.7582,1.7582,1.7582,1.7582,1.7582,1.7582,1.7582,1.7582,1.7582,1.7582,1.7582,1.7582,1.7582,1.7582,1.7582,1.7582,1.7582,1.7582,1.7542,1.73,1.7005,1.666,1.6366,1.6072,1.5784,1.5784,1.5784,1.5784,1.5784,1.5784,1.5784,1.5784,1.5784,1.5784,1.5784,1.5784,1.5784,1.5784,1.5784,1.5784,1.5784,1.5784,1.5844,1.6106,1.6139,1.6139,1.6139,1.6139,1.6139,1.6139,1.6139,1.6615,1.7838,1.9036,2.0176,2.1221,2.2403,2.3227,2.3574,2.3266,2.3091,2.3091,2.3091,2.3091,2.3091,2.3091,2.3247,2.3594,2.3594,2.3975,2.4687,2.4687,2.5,0.5164,0.5379,0.5776,0.6193,0.668,0.7243,0.7862,0.8153,0.8349,0.8733,0.8632,0.8581,0.8903,0.8644,0.8557,0.9069,0.892,0.9853,1.2871,1.3318,1.4395,1.7259,1.7582,1.7582,1.7582,1.7582,1.7582,1.7582,1.7582,1.7582,1.7582,1.7582,1.7582,1.7582,1.7582,1.7582,1.7582,1.7582,1.7582,1.7582,1.7582,1.7582,1.7582,1.7582,1.7582,1.7582,1.7582,1.7515,1.7474,1.7535,1.7515,1.7474,1.7542,1.7508,1.746,1.746,1.7335,1.7208,1.7085,1.678,1.6506,1.6333,1.6072,1.5784,1.5784,1.5784,1.5784,1.5784,1.5784,1.5784,1.5784,1.5784,1.5784,1.5784,1.5784,1.5784,1.5784,1.5784,1.5784,1.5784,1.5925,1.6025,1.6086,1.6286,1.6406,1.6342,1.6373,1.6446,1.6446,1.6446,1.6924,1.8122,1.892,1.9968,2.1615,2.2389,2.3155,2.3978,2.3789,2.3598,2.3598,2.3276,2.3179,2.3344,2.3398,2.3613,2.4043,2.4043,2.4394,2.5116,2.5116,2.5312,0.5592,0.5634,0.5949,0.6566,0.6983,0.7424,0.8113,0.8489,0.873,0.8814,0.8783,0.9048,1.0163,0.9555,0.9253,1.0366,0.9819,1.0194,1.3042,1.3439,1.4475,1.7219,1.7542,1.7555,1.7582,1.7555,1.7555,1.7582,1.7555,1.7542,1.7542,1.7542,1.7542,1.7542,1.7569,1.7582,1.7582,1.7555,1.7542,1.7542,1.7515,1.7502,1.7508,1.7555,1.7582,1.7582,1.7555,1.7447,1.7219,1.7402,1.7348,1.7186,1.7481,1.742,1.7166,1.7192,1.7012,1.67,1.6673,1.6493,1.6266,1.6239,1.6052,1.5784,1.5784,1.5784,1.5784,1.5784,1.5784,1.5784,1.5784,1.5784,1.5784,1.5784,1.5784,1.5784,1.5784,1.5784,1.5784,1.5784,1.6072,1.6192,1.5952,1.6373,1.6653,1.6442,1.6553,1.6714,1.674,1.6747,1.7234,1.8405,1.8553,1.9552,2.199,2.2321,2.2952,2.4185,2.4341,2.4434,2.4473,2.3647,2.3403,2.3838,2.3848,2.4053,2.4473,2.4473,2.4697,2.5127,2.5127,2.5352,0.605,0.5917,0.5976,0.6698,0.7458,0.8072,0.8286,0.8408,0.854,0.8574,0.9358,1.0039,1.02,1.0955,1.1625,1.1815,1.17,1.2281,1.4093,1.4521,1.528,1.708,1.7293,1.7387,1.7562,1.7427,1.7387,1.7562,1.742,1.7293,1.7293,1.7293,1.7293,1.7293,1.7514,1.7582,1.7582,1.7407,1.7293,1.7293,1.7007,1.6894,1.6907,1.7368,1.7582,1.7569,1.7393,1.7259,1.7186,1.6967,1.6854,1.6834,1.7179,1.7112,1.6827,1.7112,1.7012,1.6673,1.6446,1.6375,1.6239,1.5999,1.5879,1.5784,1.5784,1.5784,1.5784,1.5784,1.5784,1.5784,1.5784,1.5784,1.5784,1.5784,1.5784,1.5784,1.5784,1.5784,1.5784,1.5784,1.6072,1.6326,1.6486,1.6814,1.7085,1.7025,1.6814,1.6794,1.7072,1.7105,1.7551,1.8743,1.8894,1.9422,2.0699,2.1782,2.2645,2.324,2.3974,2.457,2.4912,2.4424,2.4189,2.4277,2.4277,2.4492,2.4969,2.4969,2.5156,2.5596,2.5596,2.5644,0.6456,0.6171,0.6129,0.7027,0.8121,0.9057,0.9087,0.9617,1.0133,1.0133,1.0271,1.0742,1.1853,1.2248,1.2582,1.3009,1.2714,1.291,1.4349,1.4663,1.5321,1.6782,1.6941,1.6994,1.7148,1.7027,1.7001,1.7154,1.7021,1.6941,1.6941,1.6941,1.6941,1.6941,1.7081,1.7161,1.7161,1.7014,1.6941,1.6934,1.678,1.6707,1.672,1.7168,1.7427,1.742,1.7266,1.7038,1.6777,1.6714,1.662,1.6526,1.682,1.6754,1.652,1.6723,1.654,1.6266,1.6112,1.6059,1.6039,1.5879,1.5784,1.5784,1.5784,1.5784,1.5784,1.5784,1.5784,1.5784,1.5784,1.5784,1.5784,1.5784,1.5784,1.5784,1.5784,1.5784,1.5872,1.6012,1.6279,1.6526,1.668,1.7005,1.7246,1.7387,1.7228,1.7181,1.7387,1.7407,1.7608,1.8267,1.8318,1.8804,1.9922,2.1295,2.2411,2.326,2.4382,2.5146,2.5381,2.5176,2.4951,2.4727,2.4727,2.4951,2.5391,2.5391,2.5508,2.5693,2.5693,2.5693,0.6865,0.6663,0.6726,0.759,0.8973,1.0136,1.025,1.1093,1.1945,1.2188,1.1585,1.1619,1.3688,1.3468,1.3288,1.4237,1.3579,1.3404,1.4569,1.4761,1.525,1.6477,1.6627,1.6653,1.67,1.666,1.6653,1.67,1.666,1.6627,1.6627,1.6627,1.6627,1.6627,1.668,1.6707,1.6707,1.6653,1.6627,1.6627,1.658,1.658,1.664,1.6938,1.7079,1.7125,1.7072,1.677,1.6286,1.648,1.6413,1.6226,1.652,1.6453,1.6206,1.6301,1.6086,1.5784,1.5784,1.5784,1.5784,1.5784,1.5784,1.5784,1.5784,1.5784,1.5784,1.5784,1.5784,1.5784,1.5784,1.5818,1.5905,1.5905,1.5945,1.5917,1.5919,1.5905,1.5992,1.6293,1.6587,1.68,1.6847,1.7112,1.7353,1.7549,1.7582,1.7582,1.7582,1.7582,1.7582,1.7582,1.7582,1.8146,1.9472,2.0692,2.2005,2.3592,2.4766,2.5479,2.5684,2.5693,2.5566,2.5195,2.5185,2.5361,2.5693,2.5693,2.5693,2.5693,2.5693,2.5693,0.7327,0.7869,0.8558,0.8673,1.0022,1.1275,1.1305,1.1606,1.2237,1.3392,1.3539,1.3525,1.3883,1.4695,1.5393,1.5551,1.5434,1.5406,1.5604,1.5868,1.613,1.6333,1.6333,1.6426,1.668,1.648,1.6433,1.6687,1.6473,1.6333,1.6333,1.6333,1.6333,1.6333,1.6573,1.6707,1.6707,1.646,1.6333,1.6326,1.6066,1.6079,1.6333,1.6422,1.6526,1.6747,1.65,1.6346,1.6301,1.6039,1.5878,1.5919,1.6219,1.6152,1.5919,1.6179,1.6086,1.5784,1.5784,1.5784,1.5784,1.5784,1.5784,1.5784,1.5784,1.5784,1.5784,1.5784,1.5784,1.5784,1.5784,1.6019,1.6213,1.6213,1.6406,1.652,1.6266,1.6213,1.6299,1.6587,1.6887,1.7219,1.7422,1.7502,1.7542,1.7575,1.7582,1.7582,1.7582,1.7582,1.7582,1.7582,1.7582,1.8146,1.9472,1.9782,2.0947,2.3534,2.389,2.451,2.5635,2.5693,2.5664,2.5596,2.5596,2.5625,2.5693,2.5693,2.5693,2.5693,2.5693,2.5693,0.7467,0.8124,0.8889,0.9564,1.0833,1.2007,1.2281,1.2997,1.3829,1.459,1.4722,1.4766,1.4924,1.5439,1.5784,1.5784,1.5784,1.5784,1.5784,1.5939,1.6025,1.6025,1.6025,1.6079,1.6199,1.6099,1.6079,1.6206,1.6099,1.6025,1.6025,1.6025,1.6025,1.6025,1.6146,1.6219,1.6219,1.6086,1.6025,1.6019,1.5892,1.5899,1.6025,1.6025,1.6186,1.646,1.6326,1.6179,1.6012,1.5838,1.5784,1.5798,1.5972,1.5945,1.5798,1.5979,1.5939,1.5784,1.5784,1.5784,1.5784,1.5784,1.5784,1.5784,1.5784,1.5784,1.5865,1.6032,1.6079,1.6119,1.6279,1.642,1.6513,1.6513,1.6613,1.672,1.6804,1.6683,1.66,1.6901,1.7239,1.7481,1.7562,1.7582,1.7582,1.7582,1.7582,1.7582,1.7582,1.7582,1.7582,1.7582,1.7582,1.7838,1.8454,1.9878,2.1296,2.2517,2.3998,2.5079,2.5684,2.5693,2.5693,2.5693,2.5693,2.5693,2.5693,2.5693,2.5693,2.5693,2.5693,2.5693,0.754,0.8199,0.9014,1.0104,1.1402,1.2572,1.3139,1.411,1.493,1.5224,1.5291,1.5351,1.5571,1.5732,1.5784,1.5784,1.5784,1.5784,1.5784,1.5784,1.5784,1.5784,1.5784,1.5784,1.5784,1.5784,1.5784,1.5784,1.5784,1.5784,1.5784,1.5784,1.5784,1.5784,1.5784,1.5784,1.5784,1.5784,1.5784,1.5784,1.5784,1.5784,1.5784,1.5784,1.5952,1.6159,1.6159,1.6032,1.5784,1.5784,1.5784,1.5784,1.5784,1.5784,1.5784,1.5784,1.5784,1.5784,1.5784,1.5784,1.5784,1.5784,1.5784,1.5784,1.5784,1.5879,1.5985,1.6213,1.6326,1.6433,1.6647,1.676,1.682,1.682,1.6874,1.6967,1.7166,1.7085,1.6994,1.7266,1.7435,1.7582,1.7582,1.7582,1.7582,1.7582,1.7582,1.7582,1.7582,1.7582,1.7582,1.7582,1.7891,1.8094,1.8094,2.0333,2.1853,2.2206,2.4097,2.5323,2.5693,2.5693,2.5693,2.5693,2.5693,2.5693,2.5693,2.5693,2.5693,2.5693,2.5693,2.5693,0.7583,0.8419,0.9375,1.0195,1.1596,1.3,1.3844,1.4299,1.4629,1.4968,1.5028,1.5035,1.5055,1.5458,1.5784,1.5784,1.5784,1.5784,1.5784,1.5784,1.5784,1.5784,1.5784,1.5784,1.5784,1.5784,1.5784,1.5784,1.5784,1.5784,1.5784,1.5784,1.5784,1.5784,1.5784,1.5784,1.5784,1.5784,1.5784,1.5784,1.5784,1.5784,1.5784,1.5784,1.5791,1.5852,1.5852,1.5798,1.5784,1.5784,1.5784,1.5784,1.5784,1.5784,1.5784,1.5784,1.5784,1.5784,1.5784,1.5784,1.5784,1.5784,1.5784,1.5784,1.5784,1.6025,1.6301,1.6321,1.6473,1.6687,1.67,1.6914,1.7179,1.7179,1.7387,1.7468,1.7259,1.7407,1.7542,1.7555,1.7569,1.7582,1.7582,1.7582,1.7582,1.7582,1.7582,1.7582,1.7582,1.7582,1.7582,1.7582,1.876,1.948,1.948,2.0837,2.2257,2.3534,2.3741,2.4353,2.5635,2.5693,2.5693,2.5693,2.5693,2.5693,2.5693,2.5693,2.5693,2.5693,2.5693,2.5693,0.8044,0.8812,0.9678,1.0341,1.1394,1.2355,1.2826,1.3467,1.3999,1.4335,1.4549,1.4736,1.4975,1.5182,1.5337,1.5524,1.5551,1.5618,1.5758,1.5784,1.5784,1.5784,1.5784,1.5784,1.5784,1.5784,1.5784,1.5784,1.5784,1.5784,1.5784,1.5784,1.5784,1.5784,1.5784,1.5784,1.5784,1.5784,1.5784,1.5784,1.5784,1.5784,1.5784,1.5784,1.5784,1.5784,1.5784,1.5784,1.5784,1.5784,1.5784,1.5784,1.5784,1.5784,1.5784,1.5784,1.5784,1.5784,1.5784,1.5784,1.5865,1.6052,1.6112,1.6152,1.6333,1.6466,1.6593,1.6837,1.6965,1.7085,1.7221,1.7348,1.7481,1.7481,1.7508,1.7555,1.7501,1.7508,1.7582,1.7582,1.7582,1.7582,1.7582,1.7582,1.7582,1.7582,1.7582,1.7582,1.7582,1.7582,1.7582,1.7582,1.8048,1.8304,1.8304,2.0385,2.1904,2.2416,2.4048,2.5177,2.5684,2.5693,2.5693,2.5693,2.5693,2.5693,2.5693,2.5693,2.5693,2.5693,2.5693,2.5693,0.804,0.8596,0.9305,1.0218,1.0734,1.1216,1.2104,1.2692,1.3186,1.3687,1.4021,1.4315,1.466,1.4713,1.4796,1.5184,1.5251,1.5317,1.5511,1.5625,1.5685,1.5685,1.5772,1.5784,1.5784,1.5784,1.5784,1.5784,1.5784,1.5784,1.5784,1.5784,1.5784,1.5784,1.5784,1.5784,1.5784,1.5784,1.5784,1.5784,1.5784,1.5784,1.5784,1.5784,1.5784,1.5784,1.5784,1.5784,1.5784,1.5784,1.5784,1.5784,1.5784,1.5784,1.5784,1.5784,1.5784,1.5784,1.5784,1.5844,1.5999,1.6092,1.6259,1.6433,1.6533,1.67,1.6894,1.7146,1.7266,1.7393,1.7528,1.7582,1.7582,1.7582,1.7582,1.7582,1.7582,1.7582,1.7582,1.7582,1.7582,1.7582,1.7582,1.7582,1.7582,1.7582,1.7582,1.7582,1.7582,1.7582,1.7786,1.8199,1.8251,1.8454,1.8961,2.1041,2.2366,2.2366,2.4461,2.5693,2.5693,2.5693,2.5693,2.5693,2.5693,2.5693,2.5693,2.5693,2.5693,2.5693,2.5693,2.5693,0.0,0.0,0.0,0.967,0.961,0.973,1.1757,1.2011,1.212,1.2986,1.336,1.3653,1.4008,1.4068,1.4262,1.4874,1.4981,1.4995,1.5008,1.5204,1.5384,1.5384,1.5631,1.5758,1.5758,1.5758,1.5758,1.5758,1.5758,1.5758,1.5758,1.5758,1.5758,1.5758,1.5764,1.5764,1.5764,1.5778,1.5784,1.5784,1.5784,1.5784,1.5784,1.5784,1.5784,1.5784,1.5784,1.5784,1.5784,1.5784,1.5784,1.5784,1.5784,1.5784,1.5784,1.5784,1.5791,1.5798,1.5798,1.6039,1.6239,1.5959,1.6253,1.6667,1.6393,1.6764,1.7213,1.7213,1.742,1.7582,1.7582,1.7582,1.7582,1.7582,1.7582,1.7582,1.7582,1.7582,1.7582,1.7582,1.7582,1.7582,1.7582,1.7582,1.7582,1.7582,1.7582,1.7582,1.7582,1.7582,1.8094,1.9428,1.9576,2.0135,2.1566,2.2926,2.3692,2.371,2.4971,2.5693,2.5693,2.5693,2.5693,2.5693,2.5693,2.5693,2.5693,2.5693,2.5693,2.5693,2.5693,2.5693,0.7862,0.0,0.0,0.0,0.0,0.0,0.993,1.0521,1.1209,1.2094,1.2472,1.2832,1.3353,1.3627,1.378,1.3939,1.4362,1.4716,1.4981,1.5075,1.5129,1.5129,1.5202,1.5204,1.5204,1.5204,1.5204,1.5204,1.5204,1.5204,1.5204,1.5204,1.5204,1.5204,1.5404,1.5518,1.5518,1.5678,1.5784,1.5784,1.5784,1.5784,1.5784,1.5784,1.5784,1.5784,1.5784,1.5784,1.5784,1.5784,1.5784,1.5784,1.5784,1.5784,1.5784,1.5784,1.5965,1.6152,1.6152,1.6339,1.6607,1.674,1.6945,1.7105,1.7181,1.7387,1.7514,1.7514,1.7522,1.7582,1.7582,1.7582,1.7582,1.7582,1.7582,1.7582,1.7582,1.7582,1.7582,1.7582,1.7582,1.7582,1.7582,1.7582,1.7582,1.7582,1.7582,1.7582,1.7582,1.7582,1.774,1.8094,1.9013,1.988,2.0637,2.2528,2.3809,2.4139,2.5133,2.5693,2.5693,2.5693,2.5693,2.5693,2.5693,2.5693,2.5693,2.5693,2.5693,2.5693,2.5693,2.5693,0.8019,0.8245,0.8604,0.8478,0.0,0.0,0.9471,0.9913,1.0472,1.1357,1.1737,1.2118,1.2719,1.3073,1.3273,1.3273,1.3768,1.4255,1.4599,1.4703,1.4776,1.4776,1.489,1.5008,1.5008,1.5008,1.5008,1.5008,1.5008,1.5008,1.5008,1.5008,1.5008,1.5008,1.5169,1.5217,1.5217,1.5504,1.5651,1.5651,1.5772,1.5784,1.5784,1.5784,1.5784,1.5784,1.5784,1.5784,1.5784,1.5784,1.5784,1.5784,1.5784,1.5784,1.5784,1.5784,1.6019,1.6321,1.6321,1.6547,1.6901,1.6947,1.7179,1.7393,1.744,1.7482,1.7582,1.7582,1.7582,1.7582,1.7582,1.7582,1.7582,1.7582,1.7582,1.7582,1.7582,1.7582,1.7582,1.7582,1.7582,1.7582,1.7582,1.7582,1.7582,1.7582,1.7582,1.7582,1.7582,1.7582,1.8042,1.9213,1.9472,2.0426,2.2375,2.3408,2.4213,2.4846,2.5735,2.6064,2.5703,2.6035,2.6054,2.5693,2.5869,2.5918,2.5693,2.5693,2.5693,2.5693,2.5693,2.5693,0.8252,0.8317,0.8657,0.9051,0.8851,0.0,0.9713,0.9773,0.9866,1.0681,1.1056,1.141,1.1997,1.2388,1.2589,1.2589,1.308,1.358,1.3988,1.4289,1.4476,1.4476,1.471,1.4908,1.4908,1.4908,1.4908,1.4908,1.4908,1.4908,1.4908,1.4908,1.4908,1.4908,1.4941,1.4961,1.4961,1.5204,1.5364,1.5398,1.5658,1.5751,1.5784,1.5784,1.5784,1.5784,1.5784,1.5784,1.5784,1.5784,1.5784,1.5784,1.5784,1.5784,1.5784,1.5784,1.6019,1.6321,1.6321,1.671,1.7159,1.684,1.7128,1.7535,1.7326,1.7427,1.7582,1.7582,1.7582,1.7582,1.7582,1.7582,1.7582,1.7582,1.7582,1.7582,1.7582,1.7582,1.7582,1.7582,1.7582,1.7582,1.7582,1.7582,1.7582,1.7582,1.7582,1.7582,1.7582,1.7733,1.876,2.1194,2.0641,2.1591,2.5301,2.493,2.4926,2.58,2.6553,2.6602,2.5791,2.6543,2.6592,2.5771,2.6143,2.6133,2.5693,2.5693,2.5693,2.5693,2.5693,2.5693,0.9432,0.9385,0.9339,0.8985,0.9158,0.0,0.8851,0.9031,0.9417,0.9853,0.9987,1.0238,1.0827,1.1169,1.1336,1.1336,1.2024,1.2832,1.358,1.3988,1.4168,1.4168,1.4222,1.4262,1.4262,1.4262,1.4262,1.4262,1.4262,1.4262,1.4262,1.4262,1.4262,1.4262,1.4482,1.4603,1.4603,1.4903,1.5209,1.5398,1.5451,1.5605,1.5784,1.5784,1.5784,1.5784,1.5784,1.5784,1.5784,1.5784,1.5784,1.5784,1.5784,1.5784,1.5784,1.5784,1.6019,1.6321,1.6321,1.671,1.7192,1.7132,1.7353,1.7569,1.7515,1.7542,1.7582,1.7582,1.7582,1.7582,1.7582,1.7582,1.7582,1.7582,1.7582,1.7582,1.7582,1.7582,1.7582,1.7582,1.7582,1.7582,1.7582,1.7582,1.7582,1.7582,1.7582,1.7582,1.7582,1.8558,1.942,1.993,2.176,2.3533,2.5005,2.5689,2.6234,2.6697,2.6602,2.6435,2.6269,2.6426,2.6435,2.6269,2.5996,2.5771,2.5693,2.5693,2.5693,2.5693,2.5693,2.5693,0.9806,0.9715,0.9646,0.9499,0.9459,0.0,0.0,0.9025,0.9118,0.9593,0.9566,0.9639,1.0227,1.0454,1.0601,1.0787,1.139,1.1988,1.2434,1.318,1.3647,1.3647,1.3647,1.3707,1.3854,1.3868,1.3928,1.4075,1.4088,1.4088,1.4088,1.4088,1.4088,1.4088,1.4229,1.4302,1.4302,1.4596,1.489,1.5184,1.5331,1.5545,1.5784,1.5784,1.5784,1.5784,1.5784,1.5784,1.5784,1.5784,1.5784,1.5784,1.5784,1.5784,1.5784,1.5784,1.6019,1.6342,1.644,1.668,1.6974,1.732,1.742,1.7447,1.7542,1.7582,1.7555,1.746,1.7521,1.7582,1.7582,1.7582,1.7582,1.7582,1.7582,1.7582,1.7582,1.7582,1.7582,1.7582,1.7582,1.7582,1.7582,1.7582,1.7582,1.7582,1.7582,1.7838,1.8506,1.9169,2.0135,2.1507,2.2876,2.4236,2.5581,2.6143,2.6484,2.6689,2.6904,2.6738,2.6094,2.6885,2.7139,2.6709,2.6279,2.5908,2.5693,2.5693,2.5693,2.5693,2.5693,2.5693,1.0198,1.006,1.0107,1.0114,0.9857,0.9604,0.0,0.0,0.0,0.9439,0.9325,0.9277,0.975,0.9837,0.994,1.0211,1.0708,1.1056,1.1056,1.2017,1.2766,1.2933,1.2999,1.3146,1.34,1.338,1.3493,1.3888,1.3861,1.3881,1.3995,1.4055,1.4088,1.4088,1.4088,1.4088,1.4088,1.4315,1.4583,1.4928,1.5117,1.5411,1.5698,1.5698,1.5724,1.5784,1.5784,1.5784,1.5784,1.5784,1.5784,1.5784,1.5784,1.5784,1.5784,1.5784,1.5979,1.6219,1.6453,1.6573,1.6707,1.7241,1.7387,1.7326,1.7508,1.7582,1.7528,1.7347,1.7454,1.7582,1.7582,1.7582,1.7582,1.7582,1.7582,1.7582,1.7582,1.7582,1.7582,1.7582,1.7582,1.7582,1.7582,1.7582,1.7582,1.7582,1.7838,1.8401,1.9472,2.0033,2.1253,2.3484,2.3949,2.4756,2.6365,2.6514,2.6543,2.6631,2.7337,2.7197,2.6152,2.7441,2.7851,2.7158,2.665,2.6211,2.581,2.5732,2.5693,2.5693,2.5693,2.5693,1.1316,1.1423,1.1417,1.0367,1.0616,1.0749,0.9252,0.0,0.9452,0.8998,0.0,0.8878,0.8945,0.0,0.0,0.8998,0.9499,0.988,0.988,1.0479,1.1182,1.1966,1.2251,1.2518,1.2857,1.2612,1.2692,1.3267,1.3092,1.3172,1.3626,1.3941,1.4088,1.4088,1.4088,1.4088,1.4088,1.4122,1.4282,1.4569,1.4603,1.491,1.5444,1.5444,1.5585,1.5784,1.5784,1.5784,1.5784,1.5784,1.5784,1.5784,1.5784,1.5784,1.5784,1.5784,1.5804,1.5838,1.5871,1.6099,1.6422,1.67,1.7134,1.7542,1.7569,1.7582,1.7575,1.7542,1.7555,1.7582,1.7582,1.7582,1.7582,1.7582,1.7582,1.7582,1.7582,1.7582,1.7582,1.7582,1.7582,1.7582,1.7582,1.7582,1.7582,1.7582,1.8603,1.9428,1.9576,2.171,2.3335,2.3692,2.4766,2.5857,2.6875,2.6943,2.7109,2.7552,2.7669,2.765,2.7451,2.7637,2.7748,2.7598,2.6797,2.6367,2.6309,2.5879,2.5693,2.5693,2.5693,2.5693,1.151,1.1643,1.1705,1.0835,1.0775,1.0641,0.9559,0.9239,0.9152,0.9044,0.0,0.0,0.0,0.0,0.0,0.0,0.9237,0.9365,0.9198,0.9532,1.012,1.1035,1.1249,1.1504,1.1937,1.2024,1.2225,1.2652,1.2559,1.2672,1.31,1.3574,1.3828,1.3828,1.4001,1.4088,1.4088,1.4088,1.4229,1.4522,1.4522,1.4736,1.515,1.5317,1.5464,1.5585,1.5711,1.5784,1.5784,1.5784,1.5784,1.5784,1.5784,1.5784,1.5784,1.5784,1.5784,1.5804,1.6025,1.6052,1.6066,1.6359,1.6904,1.7353,1.7128,1.7315,1.7549,1.7434,1.7507,1.7582,1.7582,1.7582,1.7582,1.7582,1.7582,1.7582,1.7582,1.7582,1.7582,1.7582,1.7582,1.7582,1.7582,1.8251,1.876,1.876,1.993,2.1165,2.2196,2.3351,2.4427,2.5503,2.6114,2.6728,2.7344,2.7168,2.7197,2.7689,2.7432,2.751,2.8008,2.7793,2.7718,2.7718,2.7366,2.7012,2.6758,2.6572,2.6357,2.6113,2.581,2.5693,1.175,1.1944,1.2053,1.1136,1.0807,1.0492,0.9633,0.9239,0.9085,0.9184,0.9357,0.0,0.0,0.0,0.9323,0.9218,0.0,0.9111,0.8844,0.8958,0.9331,1.0037,1.0325,1.0601,1.1029,1.1189,1.1491,1.1911,1.187,1.2094,1.263,1.32,1.352,1.36,1.3935,1.4088,1.4088,1.4088,1.4195,1.4402,1.4402,1.4556,1.485,1.5064,1.5244,1.5404,1.5618,1.5711,1.5784,1.5784,1.5784,1.5784,1.5784,1.5784,1.5784,1.5784,1.5784,1.5811,1.6079,1.6059,1.5999,1.6299,1.673,1.7065,1.6961,1.7188,1.7494,1.7353,1.7474,1.7582,1.7582,1.7582,1.7582,1.7582,1.7582,1.7582,1.7582,1.7582,1.7582,1.7582,1.7582,1.7582,1.7582,1.8708,1.9576,1.9576,2.0873,2.2409,2.4071,2.4359,2.508,2.682,2.7012,2.7197,2.7679,2.7373,2.7383,2.7865,2.7539,2.7646,2.8271,2.7998,2.7832,2.7832,2.7777,2.751,2.7197,2.707,2.6855,2.6543,2.6123,2.5801,1.2351,1.2712,1.2752,1.1042,1.0807,1.0601,0.9165,0.9259,0.9579,0.9271,1.0265,1.0909,0.9887,1.0301,1.0469,0.939,0.9211,0.0,0.0,0.8818,0.8831,0.8858,0.9613,1.011,1.0123,0.9913,1.0107,1.0969,1.0807,1.1142,1.2258,1.2893,1.3313,1.3593,1.3935,1.4088,1.4088,1.4088,1.4088,1.4102,1.4102,1.4255,1.4536,1.4499,1.4856,1.5398,1.5404,1.5571,1.5784,1.5784,1.5784,1.5784,1.5784,1.5784,1.5784,1.5784,1.5784,1.5784,1.5791,1.6025,1.6355,1.66,1.6707,1.682,1.7388,1.7427,1.7273,1.7548,1.7575,1.7582,1.7582,1.7582,1.7582,1.7582,1.7582,1.7582,1.7582,1.7582,1.7582,1.7582,1.7582,1.7582,1.7582,1.8708,1.9576,1.9576,2.1043,2.261,2.4107,2.4602,2.5332,2.6849,2.7012,2.7197,2.7679,2.7708,2.7822,2.8252,2.8262,2.8262,2.8291,2.8281,2.8271,2.8271,2.7924,2.7708,2.7699,2.7217,2.7012,2.6982,2.6562,2.6143,1.3113,1.3154,1.312,1.1812,1.1356,1.104,1.0229,1.0551,1.0957,1.0767,1.1772,1.2244,1.0754,1.0708,1.0519,0.9397,0.9211,0.8978,0.0,0.8049,0.8094,0.8496,0.9098,0.9504,0.9504,0.9417,0.9644,1.0361,1.0321,1.0608,1.1396,1.2184,1.2746,1.3079,1.3534,1.3888,1.4082,1.4088,1.4088,1.4088,1.4088,1.4502,1.5295,1.5469,1.6066,1.6947,1.663,1.6514,1.6536,1.6021,1.5784,1.5784,1.5784,1.5784,1.5784,1.5784,1.5784,1.5784,1.5784,1.5844,1.5992,1.6092,1.6259,1.6493,1.6887,1.7119,1.7266,1.7502,1.7582,1.7582,1.7582,1.7582,1.7582,1.7582,1.7582,1.7582,1.7582,1.7582,1.7582,1.7582,1.7582,1.7649,1.7856,1.9028,1.9904,1.9904,2.1339,2.302,2.4798,2.5109,2.5899,2.7664,2.7861,2.792,2.8066,2.8086,2.8144,2.8281,2.8291,2.8291,2.8291,2.8291,2.8291,2.8291,2.8154,2.8086,2.8086,2.793,2.7715,2.7441,2.7295,2.7002,1.456,1.4536,0.0,1.3477,1.305,1.2691,1.1856,1.2164,1.2581,1.2372,1.3147,1.3561,1.2516,1.2068,1.1469,1.0215,0.9778,0.9233,0.0,0.8003,0.8074,0.8368,0.8704,0.8944,0.9051,0.8964,0.9144,0.973,0.9777,1.0107,1.0834,1.167,1.2368,1.277,1.3333,1.3939,1.465,1.4657,1.4657,1.4657,1.4657,1.5012,1.5711,1.5871,1.6626,1.7794,1.7584,1.7318,1.6964,1.6621,1.6204,1.5784,1.5784,1.5784,1.5784,1.5784,1.5784,1.5784,1.5784,1.5784,1.5798,1.5952,1.6119,1.6346,1.6747,1.7052,1.7266,1.7502,1.7582,1.7582,1.7582,1.7582,1.774,1.8199,1.7943,1.7733,1.8199,1.7943,1.7582,1.7582,1.7582,1.7682,1.7935,1.9284,2.03,2.0247,2.1648,2.3397,2.5192,2.5567,2.6313,2.8092,2.8291,2.8291,2.8291,2.8291,2.8291,2.8291,2.8291,2.8291,2.8291,2.8291,2.8291,2.8291,2.8291,2.8291,2.8291,2.8291,2.8154,2.7891,2.7891,2.7744]}]]